<?xml version="1.0" encoding="UTF-8" standalone="no" ?>
<gpx xmlns="http://www.topografix.com/GPX/1/1" xmlns:xsi="http://www.w3.org/2001/XMLSchema-instance" xsi:schemaLocation="http://www.topografix.com/GPX/1/1 http://www.topografix.com/GPX/1/1/gpx.xsd" version="1.1" creator="VisuGPX - https://www.visugpx.com">
  <metadata>
    <name>Dimanche 20 septembre 26</name>
  </metadata>
  <trk>
    <name><![CDATA[Dimanche 20 septembre 26]]></name>
    <extensions>
      <line xmlns="http://www.topografix.com/GPX/gpx_style/0/2">
        <width>7</width>
      </line>
    </extensions>
    <trkseg>
      <trkpt lat="43.38323" lon="-1.65922">
        <ele>5</ele>
        <time>2026-08-23T12:57:32.000Z</time>
      </trkpt>
      <trkpt lat="43.38309" lon="-1.65902">
        <ele>5</ele>
        <time>2026-08-23T12:57:36.000Z</time>
      </trkpt>
      <trkpt lat="43.38298" lon="-1.65877">
        <ele>4</ele>
        <time>2026-08-23T12:57:39.000Z</time>
      </trkpt>
      <trkpt lat="43.38268" lon="-1.65797">
        <ele>3</ele>
        <time>2026-08-23T12:57:51.000Z</time>
      </trkpt>
      <trkpt lat="43.38234" lon="-1.65703">
        <ele>4</ele>
        <time>2026-08-23T12:58:05.000Z</time>
      </trkpt>
      <trkpt lat="43.38233" lon="-1.65687">
        <ele>4</ele>
        <time>2026-08-23T12:58:07.000Z</time>
      </trkpt>
      <trkpt lat="43.38236" lon="-1.65679">
        <ele>4</ele>
        <time>2026-08-23T12:58:08.000Z</time>
      </trkpt>
      <trkpt lat="43.38351" lon="-1.65522">
        <ele>4</ele>
        <time>2026-08-23T12:58:37.000Z</time>
      </trkpt>
      <trkpt lat="43.38357" lon="-1.65509">
        <ele>4</ele>
        <time>2026-08-23T12:58:39.000Z</time>
      </trkpt>
      <trkpt lat="43.38352" lon="-1.65508">
        <ele>4</ele>
        <time>2026-08-23T12:58:40.000Z</time>
      </trkpt>
      <trkpt lat="43.38328" lon="-1.65473">
        <ele>4</ele>
        <time>2026-08-23T12:58:46.000Z</time>
      </trkpt>
      <trkpt lat="43.38325" lon="-1.65465">
        <ele>4</ele>
        <time>2026-08-23T12:58:47.000Z</time>
      </trkpt>
      <trkpt lat="43.38326" lon="-1.65462">
        <ele>4</ele>
        <time>2026-08-23T12:58:47.000Z</time>
      </trkpt>
      <trkpt lat="43.38327" lon="-1.65457">
        <ele>4</ele>
        <time>2026-08-23T12:58:48.000Z</time>
      </trkpt>
      <trkpt lat="43.38331" lon="-1.65453">
        <ele>5</ele>
        <time>2026-08-23T12:58:49.000Z</time>
      </trkpt>
      <trkpt lat="43.3837" lon="-1.65376">
        <ele>5</ele>
        <time>2026-08-23T12:59:01.000Z</time>
      </trkpt>
      <trkpt lat="43.3839" lon="-1.65332">
        <ele>6</ele>
        <time>2026-08-23T12:59:08.000Z</time>
      </trkpt>
      <trkpt lat="43.38394" lon="-1.65317">
        <ele>8</ele>
        <time>2026-08-23T12:59:10.000Z</time>
      </trkpt>
      <trkpt lat="43.38392" lon="-1.65295">
        <ele>10</ele>
        <time>2026-08-23T12:59:13.000Z</time>
      </trkpt>
      <trkpt lat="43.38384" lon="-1.65266">
        <ele>13</ele>
        <time>2026-08-23T12:59:17.000Z</time>
      </trkpt>
      <trkpt lat="43.38365" lon="-1.65248">
        <ele>13</ele>
        <time>2026-08-23T12:59:21.000Z</time>
      </trkpt>
      <trkpt lat="43.3836" lon="-1.65239">
        <ele>13</ele>
        <time>2026-08-23T12:59:22.000Z</time>
      </trkpt>
      <trkpt lat="43.38356" lon="-1.65227">
        <ele>13</ele>
        <time>2026-08-23T12:59:24.000Z</time>
      </trkpt>
      <trkpt lat="43.38343" lon="-1.652">
        <ele>12</ele>
        <time>2026-08-23T12:59:28.000Z</time>
      </trkpt>
      <trkpt lat="43.38276" lon="-1.65016">
        <ele>9</ele>
        <time>2026-08-23T12:59:55.000Z</time>
      </trkpt>
      <trkpt lat="43.3826" lon="-1.64971">
        <ele>8</ele>
        <time>2026-08-23T13:00:01.000Z</time>
      </trkpt>
      <trkpt lat="43.38254" lon="-1.64945">
        <ele>8</ele>
        <time>2026-08-23T13:00:05.000Z</time>
      </trkpt>
      <trkpt lat="43.38252" lon="-1.64928">
        <ele>8</ele>
        <time>2026-08-23T13:00:07.000Z</time>
      </trkpt>
      <trkpt lat="43.38255" lon="-1.6488">
        <ele>9</ele>
        <time>2026-08-23T13:00:13.000Z</time>
      </trkpt>
      <trkpt lat="43.38279" lon="-1.64626">
        <ele>7</ele>
        <time>2026-08-23T13:00:46.000Z</time>
      </trkpt>
      <trkpt lat="43.3828" lon="-1.64595">
        <ele>8</ele>
        <time>2026-08-23T13:00:50.000Z</time>
      </trkpt>
      <trkpt lat="43.38277" lon="-1.64488">
        <ele>10</ele>
        <time>2026-08-23T13:01:04.000Z</time>
      </trkpt>
      <trkpt lat="43.38272" lon="-1.64424">
        <ele>8</ele>
        <time>2026-08-23T13:01:13.000Z</time>
      </trkpt>
      <trkpt lat="43.38264" lon="-1.64383">
        <ele>7</ele>
        <time>2026-08-23T13:01:18.000Z</time>
      </trkpt>
      <trkpt lat="43.3825" lon="-1.64341">
        <ele>5</ele>
        <time>2026-08-23T13:01:24.000Z</time>
      </trkpt>
      <trkpt lat="43.38232" lon="-1.64309">
        <ele>5</ele>
        <time>2026-08-23T13:01:29.000Z</time>
      </trkpt>
      <trkpt lat="43.38212" lon="-1.64283">
        <ele>5</ele>
        <time>2026-08-23T13:01:34.000Z</time>
      </trkpt>
      <trkpt lat="43.38155" lon="-1.6423">
        <ele>6</ele>
        <time>2026-08-23T13:01:46.000Z</time>
      </trkpt>
      <trkpt lat="43.3812" lon="-1.64193">
        <ele>6</ele>
        <time>2026-08-23T13:01:54.000Z</time>
      </trkpt>
      <trkpt lat="43.38056" lon="-1.64058">
        <ele>9</ele>
        <time>2026-08-23T13:02:15.000Z</time>
      </trkpt>
      <trkpt lat="43.37906" lon="-1.63917">
        <ele>6</ele>
        <time>2026-08-23T13:02:47.000Z</time>
      </trkpt>
      <trkpt lat="43.37776" lon="-1.63786">
        <ele>8</ele>
        <time>2026-08-23T13:03:16.000Z</time>
      </trkpt>
      <trkpt lat="43.37759" lon="-1.63774">
        <ele>8</ele>
        <time>2026-08-23T13:03:19.000Z</time>
      </trkpt>
      <trkpt lat="43.37738" lon="-1.63772">
        <ele>8</ele>
        <time>2026-08-23T13:03:23.000Z</time>
      </trkpt>
      <trkpt lat="43.37642" lon="-1.63776">
        <ele>6</ele>
        <time>2026-08-23T13:03:40.000Z</time>
      </trkpt>
      <trkpt lat="43.37604" lon="-1.63785">
        <ele>6</ele>
        <time>2026-08-23T13:03:47.000Z</time>
      </trkpt>
      <trkpt lat="43.37541" lon="-1.63786">
        <ele>5</ele>
        <time>2026-08-23T13:03:58.000Z</time>
      </trkpt>
      <trkpt lat="43.37526" lon="-1.63781">
        <ele>5</ele>
        <time>2026-08-23T13:04:01.000Z</time>
      </trkpt>
      <trkpt lat="43.37517" lon="-1.6379">
        <ele>4</ele>
        <time>2026-08-23T13:04:03.000Z</time>
      </trkpt>
      <trkpt lat="43.3751" lon="-1.63791">
        <ele>4</ele>
        <time>2026-08-23T13:04:04.000Z</time>
      </trkpt>
      <trkpt lat="43.37445" lon="-1.63794">
        <ele>4</ele>
        <time>2026-08-23T13:04:16.000Z</time>
      </trkpt>
      <trkpt lat="43.37409" lon="-1.63788">
        <ele>4</ele>
        <time>2026-08-23T13:04:22.000Z</time>
      </trkpt>
      <trkpt lat="43.37111" lon="-1.63806">
        <ele>5</ele>
        <time>2026-08-23T13:05:15.000Z</time>
      </trkpt>
      <trkpt lat="43.37085" lon="-1.63801">
        <ele>6</ele>
        <time>2026-08-23T13:05:20.000Z</time>
      </trkpt>
      <trkpt lat="43.37067" lon="-1.63794">
        <ele>6</ele>
        <time>2026-08-23T13:05:23.000Z</time>
      </trkpt>
      <trkpt lat="43.36753" lon="-1.63597">
        <ele>7</ele>
        <time>2026-08-23T13:06:25.000Z</time>
      </trkpt>
      <trkpt lat="43.36709" lon="-1.63582">
        <ele>8</ele>
        <time>2026-08-23T13:06:33.000Z</time>
      </trkpt>
      <trkpt lat="43.36675" lon="-1.63576">
        <ele>8</ele>
        <time>2026-08-23T13:06:39.000Z</time>
      </trkpt>
      <trkpt lat="43.36638" lon="-1.63578">
        <ele>7</ele>
        <time>2026-08-23T13:06:46.000Z</time>
      </trkpt>
      <trkpt lat="43.36595" lon="-1.63589">
        <ele>5</ele>
        <time>2026-08-23T13:06:53.000Z</time>
      </trkpt>
      <trkpt lat="43.36349" lon="-1.63669">
        <ele>7</ele>
        <time>2026-08-23T13:07:38.000Z</time>
      </trkpt>
      <trkpt lat="43.36308" lon="-1.63673">
        <ele>7</ele>
        <time>2026-08-23T13:07:46.000Z</time>
      </trkpt>
      <trkpt lat="43.36277" lon="-1.63671">
        <ele>6</ele>
        <time>2026-08-23T13:07:51.000Z</time>
      </trkpt>
      <trkpt lat="43.36255" lon="-1.63666">
        <ele>6</ele>
        <time>2026-08-23T13:07:55.000Z</time>
      </trkpt>
      <trkpt lat="43.36233" lon="-1.63658">
        <ele>6</ele>
        <time>2026-08-23T13:07:59.000Z</time>
      </trkpt>
      <trkpt lat="43.36097" lon="-1.63603">
        <ele>5</ele>
        <time>2026-08-23T13:08:24.000Z</time>
      </trkpt>
      <trkpt lat="43.36075" lon="-1.63589">
        <ele>5</ele>
        <time>2026-08-23T13:08:29.000Z</time>
      </trkpt>
      <trkpt lat="43.36061" lon="-1.63577">
        <ele>5</ele>
        <time>2026-08-23T13:08:32.000Z</time>
      </trkpt>
      <trkpt lat="43.36039" lon="-1.63549">
        <ele>6</ele>
        <time>2026-08-23T13:08:37.000Z</time>
      </trkpt>
      <trkpt lat="43.36029" lon="-1.63531">
        <ele>6</ele>
        <time>2026-08-23T13:08:40.000Z</time>
      </trkpt>
      <trkpt lat="43.36014" lon="-1.63501">
        <ele>6</ele>
        <time>2026-08-23T13:08:45.000Z</time>
      </trkpt>
      <trkpt lat="43.35995" lon="-1.63453">
        <ele>8</ele>
        <time>2026-08-23T13:08:52.000Z</time>
      </trkpt>
      <trkpt lat="43.35984" lon="-1.63434">
        <ele>8</ele>
        <time>2026-08-23T13:08:55.000Z</time>
      </trkpt>
      <trkpt lat="43.35935" lon="-1.63358">
        <ele>9</ele>
        <time>2026-08-23T13:09:08.000Z</time>
      </trkpt>
      <trkpt lat="43.35921" lon="-1.63341">
        <ele>8</ele>
        <time>2026-08-23T13:09:11.000Z</time>
      </trkpt>
      <trkpt lat="43.35859" lon="-1.6328">
        <ele>9</ele>
        <time>2026-08-23T13:09:25.000Z</time>
      </trkpt>
      <trkpt lat="43.35789" lon="-1.63219">
        <ele>9</ele>
        <time>2026-08-23T13:09:40.000Z</time>
      </trkpt>
      <trkpt lat="43.3575" lon="-1.63192">
        <ele>7</ele>
        <time>2026-08-23T13:09:47.000Z</time>
      </trkpt>
      <trkpt lat="43.35673" lon="-1.63163">
        <ele>6</ele>
        <time>2026-08-23T13:10:02.000Z</time>
      </trkpt>
      <trkpt lat="43.35667" lon="-1.63163">
        <ele>6</ele>
        <time>2026-08-23T13:10:03.000Z</time>
      </trkpt>
      <trkpt lat="43.35663" lon="-1.63166">
        <ele>6</ele>
        <time>2026-08-23T13:10:04.000Z</time>
      </trkpt>
      <trkpt lat="43.35657" lon="-1.63166">
        <ele>6</ele>
        <time>2026-08-23T13:10:05.000Z</time>
      </trkpt>
      <trkpt lat="43.35638" lon="-1.63154">
        <ele>6</ele>
        <time>2026-08-23T13:10:08.000Z</time>
      </trkpt>
      <trkpt lat="43.35614" lon="-1.63148">
        <ele>5</ele>
        <time>2026-08-23T13:10:13.000Z</time>
      </trkpt>
      <trkpt lat="43.3544" lon="-1.63097">
        <ele>6</ele>
        <time>2026-08-23T13:10:44.000Z</time>
      </trkpt>
      <trkpt lat="43.35403" lon="-1.63082">
        <ele>7</ele>
        <time>2026-08-23T13:10:51.000Z</time>
      </trkpt>
      <trkpt lat="43.35386" lon="-1.63073">
        <ele>7</ele>
        <time>2026-08-23T13:10:54.000Z</time>
      </trkpt>
      <trkpt lat="43.3535" lon="-1.63044">
        <ele>7</ele>
        <time>2026-08-23T13:11:02.000Z</time>
      </trkpt>
      <trkpt lat="43.35306" lon="-1.62998">
        <ele>6</ele>
        <time>2026-08-23T13:11:12.000Z</time>
      </trkpt>
      <trkpt lat="43.35289" lon="-1.62974">
        <ele>6</ele>
        <time>2026-08-23T13:11:16.000Z</time>
      </trkpt>
      <trkpt lat="43.35268" lon="-1.62932">
        <ele>6</ele>
        <time>2026-08-23T13:11:23.000Z</time>
      </trkpt>
      <trkpt lat="43.35255" lon="-1.629">
        <ele>6</ele>
        <time>2026-08-23T13:11:27.000Z</time>
      </trkpt>
      <trkpt lat="43.35207" lon="-1.62759">
        <ele>8</ele>
        <time>2026-08-23T13:11:47.000Z</time>
      </trkpt>
      <trkpt lat="43.35118" lon="-1.62528">
        <ele>12</ele>
        <time>2026-08-23T13:12:21.000Z</time>
      </trkpt>
      <trkpt lat="43.35108" lon="-1.62493">
        <ele>11</ele>
        <time>2026-08-23T13:12:26.000Z</time>
      </trkpt>
      <trkpt lat="43.35103" lon="-1.62461">
        <ele>10</ele>
        <time>2026-08-23T13:12:30.000Z</time>
      </trkpt>
      <trkpt lat="43.35103" lon="-1.62402">
        <ele>11</ele>
        <time>2026-08-23T13:12:38.000Z</time>
      </trkpt>
      <trkpt lat="43.35109" lon="-1.62334">
        <ele>10</ele>
        <time>2026-08-23T13:12:47.000Z</time>
      </trkpt>
      <trkpt lat="43.35118" lon="-1.62308">
        <ele>11</ele>
        <time>2026-08-23T13:12:51.000Z</time>
      </trkpt>
      <trkpt lat="43.35181" lon="-1.62185">
        <ele>11</ele>
        <time>2026-08-23T13:13:10.000Z</time>
      </trkpt>
      <trkpt lat="43.35201" lon="-1.62157">
        <ele>12</ele>
        <time>2026-08-23T13:13:15.000Z</time>
      </trkpt>
      <trkpt lat="43.35214" lon="-1.62143">
        <ele>12</ele>
        <time>2026-08-23T13:13:18.000Z</time>
      </trkpt>
      <trkpt lat="43.3524" lon="-1.62126">
        <ele>14</ele>
        <time>2026-08-23T13:13:23.000Z</time>
      </trkpt>
      <trkpt lat="43.35407" lon="-1.6206">
        <ele>21</ele>
        <time>2026-08-23T13:13:54.000Z</time>
      </trkpt>
      <trkpt lat="43.35432" lon="-1.62045">
        <ele>21</ele>
        <time>2026-08-23T13:13:59.000Z</time>
      </trkpt>
      <trkpt lat="43.35486" lon="-1.62001">
        <ele>18</ele>
        <time>2026-08-23T13:14:10.000Z</time>
      </trkpt>
      <trkpt lat="43.35515" lon="-1.61963">
        <ele>18</ele>
        <time>2026-08-23T13:14:17.000Z</time>
      </trkpt>
      <trkpt lat="43.35787" lon="-1.61535">
        <ele>14</ele>
        <time>2026-08-23T13:15:31.000Z</time>
      </trkpt>
      <trkpt lat="43.35815" lon="-1.61503">
        <ele>12</ele>
        <time>2026-08-23T13:15:37.000Z</time>
      </trkpt>
      <trkpt lat="43.35913" lon="-1.61419">
        <ele>16</ele>
        <time>2026-08-23T13:15:58.000Z</time>
      </trkpt>
      <trkpt lat="43.35934" lon="-1.61396">
        <ele>16</ele>
        <time>2026-08-23T13:16:03.000Z</time>
      </trkpt>
      <trkpt lat="43.36033" lon="-1.61268">
        <ele>11</ele>
        <time>2026-08-23T13:16:27.000Z</time>
      </trkpt>
      <trkpt lat="43.36051" lon="-1.61238">
        <ele>11</ele>
        <time>2026-08-23T13:16:32.000Z</time>
      </trkpt>
      <trkpt lat="43.36075" lon="-1.61188">
        <ele>12</ele>
        <time>2026-08-23T13:16:40.000Z</time>
      </trkpt>
      <trkpt lat="43.36091" lon="-1.61139">
        <ele>13</ele>
        <time>2026-08-23T13:16:47.000Z</time>
      </trkpt>
      <trkpt lat="43.36101" lon="-1.61078">
        <ele>15</ele>
        <time>2026-08-23T13:16:55.000Z</time>
      </trkpt>
      <trkpt lat="43.36105" lon="-1.61018">
        <ele>17</ele>
        <time>2026-08-23T13:17:02.000Z</time>
      </trkpt>
      <trkpt lat="43.36113" lon="-1.60838">
        <ele>16</ele>
        <time>2026-08-23T13:17:26.000Z</time>
      </trkpt>
      <trkpt lat="43.36119" lon="-1.6075">
        <ele>18</ele>
        <time>2026-08-23T13:17:37.000Z</time>
      </trkpt>
      <trkpt lat="43.36118" lon="-1.60724">
        <ele>18</ele>
        <time>2026-08-23T13:17:41.000Z</time>
      </trkpt>
      <trkpt lat="43.36104" lon="-1.60585">
        <ele>18</ele>
        <time>2026-08-23T13:17:59.000Z</time>
      </trkpt>
      <trkpt lat="43.36102" lon="-1.60551">
        <ele>17</ele>
        <time>2026-08-23T13:18:03.000Z</time>
      </trkpt>
      <trkpt lat="43.36102" lon="-1.60518">
        <ele>17</ele>
        <time>2026-08-23T13:18:07.000Z</time>
      </trkpt>
      <trkpt lat="43.36103" lon="-1.60494">
        <ele>17</ele>
        <time>2026-08-23T13:18:10.000Z</time>
      </trkpt>
      <trkpt lat="43.36109" lon="-1.60462">
        <ele>16</ele>
        <time>2026-08-23T13:18:15.000Z</time>
      </trkpt>
      <trkpt lat="43.36126" lon="-1.60409">
        <ele>15</ele>
        <time>2026-08-23T13:18:22.000Z</time>
      </trkpt>
      <trkpt lat="43.36138" lon="-1.60384">
        <ele>15</ele>
        <time>2026-08-23T13:18:26.000Z</time>
      </trkpt>
      <trkpt lat="43.36153" lon="-1.60362">
        <ele>14</ele>
        <time>2026-08-23T13:18:30.000Z</time>
      </trkpt>
      <trkpt lat="43.36173" lon="-1.60338">
        <ele>13</ele>
        <time>2026-08-23T13:18:35.000Z</time>
      </trkpt>
      <trkpt lat="43.36211" lon="-1.60302">
        <ele>16</ele>
        <time>2026-08-23T13:18:43.000Z</time>
      </trkpt>
      <trkpt lat="43.36264" lon="-1.60257">
        <ele>19</ele>
        <time>2026-08-23T13:18:54.000Z</time>
      </trkpt>
      <trkpt lat="43.36299" lon="-1.60225">
        <ele>21</ele>
        <time>2026-08-23T13:19:02.000Z</time>
      </trkpt>
      <trkpt lat="43.36316" lon="-1.60201">
        <ele>20</ele>
        <time>2026-08-23T13:19:06.000Z</time>
      </trkpt>
      <trkpt lat="43.36336" lon="-1.60166">
        <ele>16</ele>
        <time>2026-08-23T13:19:12.000Z</time>
      </trkpt>
      <trkpt lat="43.36371" lon="-1.60073">
        <ele>15</ele>
        <time>2026-08-23T13:19:25.000Z</time>
      </trkpt>
      <trkpt lat="43.36387" lon="-1.60042">
        <ele>15</ele>
        <time>2026-08-23T13:19:30.000Z</time>
      </trkpt>
      <trkpt lat="43.36418" lon="-1.59996">
        <ele>13</ele>
        <time>2026-08-23T13:19:38.000Z</time>
      </trkpt>
      <trkpt lat="43.36447" lon="-1.59965">
        <ele>14</ele>
        <time>2026-08-23T13:19:45.000Z</time>
      </trkpt>
      <trkpt lat="43.36476" lon="-1.5994">
        <ele>14</ele>
        <time>2026-08-23T13:19:51.000Z</time>
      </trkpt>
      <trkpt lat="43.36533" lon="-1.59897">
        <ele>16</ele>
        <time>2026-08-23T13:20:02.000Z</time>
      </trkpt>
      <trkpt lat="43.36549" lon="-1.59873">
        <ele>17</ele>
        <time>2026-08-23T13:20:07.000Z</time>
      </trkpt>
      <trkpt lat="43.36562" lon="-1.59843">
        <ele>18</ele>
        <time>2026-08-23T13:20:11.000Z</time>
      </trkpt>
      <trkpt lat="43.36567" lon="-1.59809">
        <ele>18</ele>
        <time>2026-08-23T13:20:16.000Z</time>
      </trkpt>
      <trkpt lat="43.36573" lon="-1.59735">
        <ele>19</ele>
        <time>2026-08-23T13:20:25.000Z</time>
      </trkpt>
      <trkpt lat="43.36588" lon="-1.59546">
        <ele>11</ele>
        <time>2026-08-23T13:20:50.000Z</time>
      </trkpt>
      <trkpt lat="43.36592" lon="-1.59482">
        <ele>9</ele>
        <time>2026-08-23T13:20:58.000Z</time>
      </trkpt>
      <trkpt lat="43.36589" lon="-1.5943">
        <ele>9</ele>
        <time>2026-08-23T13:21:05.000Z</time>
      </trkpt>
      <trkpt lat="43.36581" lon="-1.59376">
        <ele>9</ele>
        <time>2026-08-23T13:21:12.000Z</time>
      </trkpt>
      <trkpt lat="43.36482" lon="-1.59044">
        <ele>9</ele>
        <time>2026-08-23T13:21:58.000Z</time>
      </trkpt>
      <trkpt lat="43.3646" lon="-1.58976">
        <ele>11</ele>
        <time>2026-08-23T13:22:08.000Z</time>
      </trkpt>
      <trkpt lat="43.36444" lon="-1.58941">
        <ele>12</ele>
        <time>2026-08-23T13:22:13.000Z</time>
      </trkpt>
      <trkpt lat="43.36427" lon="-1.58913">
        <ele>13</ele>
        <time>2026-08-23T13:22:18.000Z</time>
      </trkpt>
      <trkpt lat="43.36402" lon="-1.58885">
        <ele>17</ele>
        <time>2026-08-23T13:22:24.000Z</time>
      </trkpt>
      <trkpt lat="43.36308" lon="-1.58801">
        <ele>19</ele>
        <time>2026-08-23T13:22:44.000Z</time>
      </trkpt>
      <trkpt lat="43.3628" lon="-1.58766">
        <ele>18</ele>
        <time>2026-08-23T13:22:51.000Z</time>
      </trkpt>
      <trkpt lat="43.36257" lon="-1.58723">
        <ele>14</ele>
        <time>2026-08-23T13:22:57.000Z</time>
      </trkpt>
      <trkpt lat="43.36164" lon="-1.58429">
        <ele>12</ele>
        <time>2026-08-23T13:23:39.000Z</time>
      </trkpt>
      <trkpt lat="43.36139" lon="-1.58363">
        <ele>12</ele>
        <time>2026-08-23T13:23:49.000Z</time>
      </trkpt>
      <trkpt lat="43.36129" lon="-1.58341">
        <ele>12</ele>
        <time>2026-08-23T13:23:52.000Z</time>
      </trkpt>
      <trkpt lat="43.36109" lon="-1.58303">
        <ele>12</ele>
        <time>2026-08-23T13:23:58.000Z</time>
      </trkpt>
      <trkpt lat="43.36003" lon="-1.58148">
        <ele>11</ele>
        <time>2026-08-23T13:24:25.000Z</time>
      </trkpt>
      <trkpt lat="43.35894" lon="-1.57993">
        <ele>11</ele>
        <time>2026-08-23T13:24:53.000Z</time>
      </trkpt>
      <trkpt lat="43.35882" lon="-1.57972">
        <ele>11</ele>
        <time>2026-08-23T13:24:57.000Z</time>
      </trkpt>
      <trkpt lat="43.35852" lon="-1.57913">
        <ele>12</ele>
        <time>2026-08-23T13:25:06.000Z</time>
      </trkpt>
      <trkpt lat="43.35838" lon="-1.57869">
        <ele>11</ele>
        <time>2026-08-23T13:25:12.000Z</time>
      </trkpt>
      <trkpt lat="43.35807" lon="-1.5772">
        <ele>12</ele>
        <time>2026-08-23T13:25:32.000Z</time>
      </trkpt>
      <trkpt lat="43.35782" lon="-1.57586">
        <ele>13</ele>
        <time>2026-08-23T13:25:50.000Z</time>
      </trkpt>
      <trkpt lat="43.35779" lon="-1.57552">
        <ele>13</ele>
        <time>2026-08-23T13:25:55.000Z</time>
      </trkpt>
      <trkpt lat="43.35779" lon="-1.57526">
        <ele>13</ele>
        <time>2026-08-23T13:25:58.000Z</time>
      </trkpt>
      <trkpt lat="43.35774" lon="-1.5748">
        <ele>13</ele>
        <time>2026-08-23T13:26:04.000Z</time>
      </trkpt>
      <trkpt lat="43.3577" lon="-1.57476">
        <ele>13</ele>
        <time>2026-08-23T13:26:05.000Z</time>
      </trkpt>
      <trkpt lat="43.35768" lon="-1.57469">
        <ele>13</ele>
        <time>2026-08-23T13:26:06.000Z</time>
      </trkpt>
      <trkpt lat="43.35771" lon="-1.57459">
        <ele>13</ele>
        <time>2026-08-23T13:26:07.000Z</time>
      </trkpt>
      <trkpt lat="43.35767" lon="-1.57433">
        <ele>13</ele>
        <time>2026-08-23T13:26:11.000Z</time>
      </trkpt>
      <trkpt lat="43.35763" lon="-1.57418">
        <ele>13</ele>
        <time>2026-08-23T13:26:13.000Z</time>
      </trkpt>
      <trkpt lat="43.35745" lon="-1.57225">
        <ele>14</ele>
        <time>2026-08-23T13:26:38.000Z</time>
      </trkpt>
      <trkpt lat="43.3574" lon="-1.57189">
        <ele>15</ele>
        <time>2026-08-23T13:26:43.000Z</time>
      </trkpt>
      <trkpt lat="43.35733" lon="-1.5716">
        <ele>15</ele>
        <time>2026-08-23T13:26:47.000Z</time>
      </trkpt>
      <trkpt lat="43.35723" lon="-1.57132">
        <ele>15</ele>
        <time>2026-08-23T13:26:51.000Z</time>
      </trkpt>
      <trkpt lat="43.35625" lon="-1.56922">
        <ele>17</ele>
        <time>2026-08-23T13:27:23.000Z</time>
      </trkpt>
      <trkpt lat="43.35597" lon="-1.56872">
        <ele>17</ele>
        <time>2026-08-23T13:27:31.000Z</time>
      </trkpt>
      <trkpt lat="43.35588" lon="-1.56851">
        <ele>17</ele>
        <time>2026-08-23T13:27:34.000Z</time>
      </trkpt>
      <trkpt lat="43.35586" lon="-1.56839">
        <ele>17</ele>
        <time>2026-08-23T13:27:36.000Z</time>
      </trkpt>
      <trkpt lat="43.35585" lon="-1.56813">
        <ele>17</ele>
        <time>2026-08-23T13:27:39.000Z</time>
      </trkpt>
      <trkpt lat="43.35589" lon="-1.56787">
        <ele>17</ele>
        <time>2026-08-23T13:27:43.000Z</time>
      </trkpt>
      <trkpt lat="43.35608" lon="-1.56729">
        <ele>18</ele>
        <time>2026-08-23T13:27:51.000Z</time>
      </trkpt>
      <trkpt lat="43.35617" lon="-1.56692">
        <ele>19</ele>
        <time>2026-08-23T13:27:56.000Z</time>
      </trkpt>
      <trkpt lat="43.35625" lon="-1.56642">
        <ele>19</ele>
        <time>2026-08-23T13:28:03.000Z</time>
      </trkpt>
      <trkpt lat="43.35624" lon="-1.56615">
        <ele>19</ele>
        <time>2026-08-23T13:28:06.000Z</time>
      </trkpt>
      <trkpt lat="43.35619" lon="-1.56612">
        <ele>19</ele>
        <time>2026-08-23T13:28:07.000Z</time>
      </trkpt>
      <trkpt lat="43.35615" lon="-1.56601">
        <ele>19</ele>
        <time>2026-08-23T13:28:09.000Z</time>
      </trkpt>
      <trkpt lat="43.35617" lon="-1.56593">
        <ele>19</ele>
        <time>2026-08-23T13:28:10.000Z</time>
      </trkpt>
      <trkpt lat="43.35621" lon="-1.56588">
        <ele>19</ele>
        <time>2026-08-23T13:28:11.000Z</time>
      </trkpt>
      <trkpt lat="43.35624" lon="-1.56587">
        <ele>19</ele>
        <time>2026-08-23T13:28:11.000Z</time>
      </trkpt>
      <trkpt lat="43.35622" lon="-1.56558">
        <ele>19</ele>
        <time>2026-08-23T13:28:15.000Z</time>
      </trkpt>
      <trkpt lat="43.35622" lon="-1.56509">
        <ele>19</ele>
        <time>2026-08-23T13:28:21.000Z</time>
      </trkpt>
      <trkpt lat="43.35615" lon="-1.56214">
        <ele>19</ele>
        <time>2026-08-23T13:29:00.000Z</time>
      </trkpt>
      <trkpt lat="43.35617" lon="-1.5617">
        <ele>19</ele>
        <time>2026-08-23T13:29:05.000Z</time>
      </trkpt>
      <trkpt lat="43.35623" lon="-1.56133">
        <ele>18</ele>
        <time>2026-08-23T13:29:10.000Z</time>
      </trkpt>
      <trkpt lat="43.35625" lon="-1.56126">
        <ele>18</ele>
        <time>2026-08-23T13:29:11.000Z</time>
      </trkpt>
      <trkpt lat="43.35635" lon="-1.56106">
        <ele>18</ele>
        <time>2026-08-23T13:29:14.000Z</time>
      </trkpt>
      <trkpt lat="43.35652" lon="-1.56086">
        <ele>18</ele>
        <time>2026-08-23T13:29:18.000Z</time>
      </trkpt>
      <trkpt lat="43.35721" lon="-1.56041">
        <ele>19</ele>
        <time>2026-08-23T13:29:32.000Z</time>
      </trkpt>
      <trkpt lat="43.3573" lon="-1.56032">
        <ele>19</ele>
        <time>2026-08-23T13:29:34.000Z</time>
      </trkpt>
      <trkpt lat="43.35734" lon="-1.56023">
        <ele>19</ele>
        <time>2026-08-23T13:29:35.000Z</time>
      </trkpt>
      <trkpt lat="43.35739" lon="-1.56006">
        <ele>18</ele>
        <time>2026-08-23T13:29:38.000Z</time>
      </trkpt>
      <trkpt lat="43.35737" lon="-1.55994">
        <ele>17</ele>
        <time>2026-08-23T13:29:39.000Z</time>
      </trkpt>
      <trkpt lat="43.35741" lon="-1.55983">
        <ele>17</ele>
        <time>2026-08-23T13:29:41.000Z</time>
      </trkpt>
      <trkpt lat="43.35745" lon="-1.55978">
        <ele>17</ele>
        <time>2026-08-23T13:29:42.000Z</time>
      </trkpt>
      <trkpt lat="43.35751" lon="-1.55976">
        <ele>17</ele>
        <time>2026-08-23T13:29:43.000Z</time>
      </trkpt>
      <trkpt lat="43.35756" lon="-1.55977">
        <ele>17</ele>
        <time>2026-08-23T13:29:44.000Z</time>
      </trkpt>
      <trkpt lat="43.35774" lon="-1.55958">
        <ele>18</ele>
        <time>2026-08-23T13:29:48.000Z</time>
      </trkpt>
      <trkpt lat="43.35781" lon="-1.55938">
        <ele>18</ele>
        <time>2026-08-23T13:29:51.000Z</time>
      </trkpt>
      <trkpt lat="43.35785" lon="-1.55918">
        <ele>18</ele>
        <time>2026-08-23T13:29:53.000Z</time>
      </trkpt>
      <trkpt lat="43.35787" lon="-1.55898">
        <ele>20</ele>
        <time>2026-08-23T13:29:56.000Z</time>
      </trkpt>
      <trkpt lat="43.3578" lon="-1.55666">
        <ele>23</ele>
        <time>2026-08-23T13:30:26.000Z</time>
      </trkpt>
      <trkpt lat="43.35781" lon="-1.55641">
        <ele>23</ele>
        <time>2026-08-23T13:30:29.000Z</time>
      </trkpt>
      <trkpt lat="43.35784" lon="-1.55615">
        <ele>23</ele>
        <time>2026-08-23T13:30:33.000Z</time>
      </trkpt>
      <trkpt lat="43.35793" lon="-1.55578">
        <ele>24</ele>
        <time>2026-08-23T13:30:38.000Z</time>
      </trkpt>
      <trkpt lat="43.35797" lon="-1.55542">
        <ele>25</ele>
        <time>2026-08-23T13:30:42.000Z</time>
      </trkpt>
      <trkpt lat="43.35798" lon="-1.55504">
        <ele>25</ele>
        <time>2026-08-23T13:30:47.000Z</time>
      </trkpt>
      <trkpt lat="43.35769" lon="-1.55301">
        <ele>22</ele>
        <time>2026-08-23T13:31:14.000Z</time>
      </trkpt>
      <trkpt lat="43.35763" lon="-1.55276">
        <ele>22</ele>
        <time>2026-08-23T13:31:18.000Z</time>
      </trkpt>
      <trkpt lat="43.35757" lon="-1.55264">
        <ele>22</ele>
        <time>2026-08-23T13:31:19.000Z</time>
      </trkpt>
      <trkpt lat="43.3574" lon="-1.55234">
        <ele>22</ele>
        <time>2026-08-23T13:31:24.000Z</time>
      </trkpt>
      <trkpt lat="43.35705" lon="-1.55184">
        <ele>22</ele>
        <time>2026-08-23T13:31:33.000Z</time>
      </trkpt>
      <trkpt lat="43.35676" lon="-1.55133">
        <ele>21</ele>
        <time>2026-08-23T13:31:42.000Z</time>
      </trkpt>
      <trkpt lat="43.35639" lon="-1.55061">
        <ele>22</ele>
        <time>2026-08-23T13:31:53.000Z</time>
      </trkpt>
      <trkpt lat="43.35753" lon="-1.54939">
        <ele>27</ele>
        <time>2026-08-23T13:32:19.000Z</time>
      </trkpt>
      <trkpt lat="43.35784" lon="-1.54901">
        <ele>30</ele>
        <time>2026-08-23T13:32:26.000Z</time>
      </trkpt>
      <trkpt lat="43.35848" lon="-1.54788">
        <ele>35</ele>
        <time>2026-08-23T13:32:45.000Z</time>
      </trkpt>
      <trkpt lat="43.35856" lon="-1.54778">
        <ele>36</ele>
        <time>2026-08-23T13:32:47.000Z</time>
      </trkpt>
      <trkpt lat="43.35883" lon="-1.5476">
        <ele>39</ele>
        <time>2026-08-23T13:32:52.000Z</time>
      </trkpt>
      <trkpt lat="43.3601" lon="-1.54708">
        <ele>53</ele>
        <time>2026-08-23T13:33:16.000Z</time>
      </trkpt>
      <trkpt lat="43.36026" lon="-1.54699">
        <ele>55</ele>
        <time>2026-08-23T13:33:19.000Z</time>
      </trkpt>
      <trkpt lat="43.36068" lon="-1.54671">
        <ele>58</ele>
        <time>2026-08-23T13:33:27.000Z</time>
      </trkpt>
      <trkpt lat="43.3623" lon="-1.54607">
        <ele>67</ele>
        <time>2026-08-23T13:33:57.000Z</time>
      </trkpt>
      <trkpt lat="43.36274" lon="-1.54596">
        <ele>69</ele>
        <time>2026-08-23T13:34:05.000Z</time>
      </trkpt>
      <trkpt lat="43.3629" lon="-1.54587">
        <ele>70</ele>
        <time>2026-08-23T13:34:08.000Z</time>
      </trkpt>
      <trkpt lat="43.36304" lon="-1.54576">
        <ele>72</ele>
        <time>2026-08-23T13:34:11.000Z</time>
      </trkpt>
      <trkpt lat="43.3632" lon="-1.54556">
        <ele>76</ele>
        <time>2026-08-23T13:34:15.000Z</time>
      </trkpt>
      <trkpt lat="43.36338" lon="-1.54516">
        <ele>82</ele>
        <time>2026-08-23T13:34:21.000Z</time>
      </trkpt>
      <trkpt lat="43.36347" lon="-1.54511">
        <ele>83</ele>
        <time>2026-08-23T13:34:22.000Z</time>
      </trkpt>
      <trkpt lat="43.3637" lon="-1.54515">
        <ele>84</ele>
        <time>2026-08-23T13:34:27.000Z</time>
      </trkpt>
      <trkpt lat="43.36384" lon="-1.54515">
        <ele>85</ele>
        <time>2026-08-23T13:34:29.000Z</time>
      </trkpt>
      <trkpt lat="43.36529" lon="-1.54476">
        <ele>90</ele>
        <time>2026-08-23T13:34:55.000Z</time>
      </trkpt>
      <trkpt lat="43.36549" lon="-1.54474">
        <ele>89</ele>
        <time>2026-08-23T13:34:59.000Z</time>
      </trkpt>
      <trkpt lat="43.36598" lon="-1.54478">
        <ele>86</ele>
        <time>2026-08-23T13:35:08.000Z</time>
      </trkpt>
      <trkpt lat="43.36615" lon="-1.54483">
        <ele>85</ele>
        <time>2026-08-23T13:35:11.000Z</time>
      </trkpt>
      <trkpt lat="43.36664" lon="-1.54537">
        <ele>85</ele>
        <time>2026-08-23T13:35:22.000Z</time>
      </trkpt>
      <trkpt lat="43.36671" lon="-1.54539">
        <ele>85</ele>
        <time>2026-08-23T13:35:23.000Z</time>
      </trkpt>
      <trkpt lat="43.3668" lon="-1.54539">
        <ele>85</ele>
        <time>2026-08-23T13:35:25.000Z</time>
      </trkpt>
      <trkpt lat="43.36693" lon="-1.54533">
        <ele>84</ele>
        <time>2026-08-23T13:35:27.000Z</time>
      </trkpt>
      <trkpt lat="43.36709" lon="-1.54519">
        <ele>83</ele>
        <time>2026-08-23T13:35:31.000Z</time>
      </trkpt>
      <trkpt lat="43.36733" lon="-1.54492">
        <ele>79</ele>
        <time>2026-08-23T13:35:36.000Z</time>
      </trkpt>
      <trkpt lat="43.36744" lon="-1.54483">
        <ele>79</ele>
        <time>2026-08-23T13:35:38.000Z</time>
      </trkpt>
      <trkpt lat="43.36755" lon="-1.54481">
        <ele>78</ele>
        <time>2026-08-23T13:35:40.000Z</time>
      </trkpt>
      <trkpt lat="43.36767" lon="-1.54485">
        <ele>78</ele>
        <time>2026-08-23T13:35:43.000Z</time>
      </trkpt>
      <trkpt lat="43.36811" lon="-1.54505">
        <ele>77</ele>
        <time>2026-08-23T13:35:51.000Z</time>
      </trkpt>
      <trkpt lat="43.36823" lon="-1.54508">
        <ele>77</ele>
        <time>2026-08-23T13:35:53.000Z</time>
      </trkpt>
      <trkpt lat="43.36843" lon="-1.54508">
        <ele>76</ele>
        <time>2026-08-23T13:35:57.000Z</time>
      </trkpt>
      <trkpt lat="43.36865" lon="-1.54515">
        <ele>74</ele>
        <time>2026-08-23T13:36:01.000Z</time>
      </trkpt>
      <trkpt lat="43.36901" lon="-1.54549">
        <ele>72</ele>
        <time>2026-08-23T13:36:08.000Z</time>
      </trkpt>
      <trkpt lat="43.36916" lon="-1.54556">
        <ele>71</ele>
        <time>2026-08-23T13:36:11.000Z</time>
      </trkpt>
      <trkpt lat="43.36931" lon="-1.54559">
        <ele>69</ele>
        <time>2026-08-23T13:36:14.000Z</time>
      </trkpt>
      <trkpt lat="43.36941" lon="-1.54563">
        <ele>68</ele>
        <time>2026-08-23T13:36:16.000Z</time>
      </trkpt>
      <trkpt lat="43.36951" lon="-1.54582">
        <ele>68</ele>
        <time>2026-08-23T13:36:19.000Z</time>
      </trkpt>
      <trkpt lat="43.36965" lon="-1.54615">
        <ele>70</ele>
        <time>2026-08-23T13:36:24.000Z</time>
      </trkpt>
      <trkpt lat="43.36978" lon="-1.54623">
        <ele>70</ele>
        <time>2026-08-23T13:36:26.000Z</time>
      </trkpt>
      <trkpt lat="43.36991" lon="-1.54623">
        <ele>69</ele>
        <time>2026-08-23T13:36:29.000Z</time>
      </trkpt>
      <trkpt lat="43.37003" lon="-1.54617">
        <ele>68</ele>
        <time>2026-08-23T13:36:31.000Z</time>
      </trkpt>
      <trkpt lat="43.3703" lon="-1.54584">
        <ele>63</ele>
        <time>2026-08-23T13:36:37.000Z</time>
      </trkpt>
      <trkpt lat="43.37052" lon="-1.54569">
        <ele>62</ele>
        <time>2026-08-23T13:36:42.000Z</time>
      </trkpt>
      <trkpt lat="43.37077" lon="-1.54558">
        <ele>60</ele>
        <time>2026-08-23T13:36:46.000Z</time>
      </trkpt>
      <trkpt lat="43.37094" lon="-1.54556">
        <ele>60</ele>
        <time>2026-08-23T13:36:49.000Z</time>
      </trkpt>
      <trkpt lat="43.37333" lon="-1.54596">
        <ele>55</ele>
        <time>2026-08-23T13:37:32.000Z</time>
      </trkpt>
      <trkpt lat="43.37356" lon="-1.54598">
        <ele>55</ele>
        <time>2026-08-23T13:37:36.000Z</time>
      </trkpt>
      <trkpt lat="43.37376" lon="-1.54596">
        <ele>55</ele>
        <time>2026-08-23T13:37:40.000Z</time>
      </trkpt>
      <trkpt lat="43.37399" lon="-1.54586">
        <ele>55</ele>
        <time>2026-08-23T13:37:44.000Z</time>
      </trkpt>
      <trkpt lat="43.37489" lon="-1.5449">
        <ele>49</ele>
        <time>2026-08-23T13:38:04.000Z</time>
      </trkpt>
      <trkpt lat="43.37561" lon="-1.54423">
        <ele>51</ele>
        <time>2026-08-23T13:38:20.000Z</time>
      </trkpt>
      <trkpt lat="43.37745" lon="-1.54171">
        <ele>60</ele>
        <time>2026-08-23T13:39:06.000Z</time>
      </trkpt>
      <trkpt lat="43.3778" lon="-1.5412">
        <ele>66</ele>
        <time>2026-08-23T13:39:15.000Z</time>
      </trkpt>
      <trkpt lat="43.37825" lon="-1.54041">
        <ele>69</ele>
        <time>2026-08-23T13:39:28.000Z</time>
      </trkpt>
      <trkpt lat="43.37852" lon="-1.53991">
        <ele>71</ele>
        <time>2026-08-23T13:39:36.000Z</time>
      </trkpt>
      <trkpt lat="43.3787" lon="-1.53969">
        <ele>72</ele>
        <time>2026-08-23T13:39:40.000Z</time>
      </trkpt>
      <trkpt lat="43.37894" lon="-1.53955">
        <ele>72</ele>
        <time>2026-08-23T13:39:45.000Z</time>
      </trkpt>
      <trkpt lat="43.37915" lon="-1.53948">
        <ele>72</ele>
        <time>2026-08-23T13:39:49.000Z</time>
      </trkpt>
      <trkpt lat="43.37941" lon="-1.53946">
        <ele>75</ele>
        <time>2026-08-23T13:39:54.000Z</time>
      </trkpt>
      <trkpt lat="43.38027" lon="-1.5395">
        <ele>85</ele>
        <time>2026-08-23T13:40:09.000Z</time>
      </trkpt>
      <trkpt lat="43.38047" lon="-1.53947">
        <ele>87</ele>
        <time>2026-08-23T13:40:12.000Z</time>
      </trkpt>
      <trkpt lat="43.38104" lon="-1.53923">
        <ele>92</ele>
        <time>2026-08-23T13:40:23.000Z</time>
      </trkpt>
      <trkpt lat="43.38125" lon="-1.53922">
        <ele>92</ele>
        <time>2026-08-23T13:40:27.000Z</time>
      </trkpt>
      <trkpt lat="43.38139" lon="-1.5393">
        <ele>93</ele>
        <time>2026-08-23T13:40:30.000Z</time>
      </trkpt>
      <trkpt lat="43.38153" lon="-1.53945">
        <ele>94</ele>
        <time>2026-08-23T13:40:33.000Z</time>
      </trkpt>
      <trkpt lat="43.38162" lon="-1.53963">
        <ele>94</ele>
        <time>2026-08-23T13:40:35.000Z</time>
      </trkpt>
      <trkpt lat="43.38219" lon="-1.54148">
        <ele>90</ele>
        <time>2026-08-23T13:41:01.000Z</time>
      </trkpt>
      <trkpt lat="43.38231" lon="-1.54163">
        <ele>88</ele>
        <time>2026-08-23T13:41:04.000Z</time>
      </trkpt>
      <trkpt lat="43.38246" lon="-1.54173">
        <ele>87</ele>
        <time>2026-08-23T13:41:07.000Z</time>
      </trkpt>
      <trkpt lat="43.38262" lon="-1.54175">
        <ele>86</ele>
        <time>2026-08-23T13:41:10.000Z</time>
      </trkpt>
      <trkpt lat="43.3828" lon="-1.54168">
        <ele>86</ele>
        <time>2026-08-23T13:41:14.000Z</time>
      </trkpt>
      <trkpt lat="43.3835" lon="-1.54119">
        <ele>80</ele>
        <time>2026-08-23T13:41:27.000Z</time>
      </trkpt>
      <trkpt lat="43.38369" lon="-1.54112">
        <ele>78</ele>
        <time>2026-08-23T13:41:31.000Z</time>
      </trkpt>
      <trkpt lat="43.38388" lon="-1.54113">
        <ele>77</ele>
        <time>2026-08-23T13:41:34.000Z</time>
      </trkpt>
      <trkpt lat="43.38406" lon="-1.5412">
        <ele>76</ele>
        <time>2026-08-23T13:41:38.000Z</time>
      </trkpt>
      <trkpt lat="43.38416" lon="-1.54127">
        <ele>76</ele>
        <time>2026-08-23T13:41:40.000Z</time>
      </trkpt>
      <trkpt lat="43.38471" lon="-1.54197">
        <ele>76</ele>
        <time>2026-08-23T13:41:53.000Z</time>
      </trkpt>
      <trkpt lat="43.38491" lon="-1.54217">
        <ele>76</ele>
        <time>2026-08-23T13:41:57.000Z</time>
      </trkpt>
      <trkpt lat="43.38511" lon="-1.54232">
        <ele>76</ele>
        <time>2026-08-23T13:42:01.000Z</time>
      </trkpt>
      <trkpt lat="43.38528" lon="-1.54238">
        <ele>76</ele>
        <time>2026-08-23T13:42:05.000Z</time>
      </trkpt>
      <trkpt lat="43.38539" lon="-1.54235">
        <ele>75</ele>
        <time>2026-08-23T13:42:07.000Z</time>
      </trkpt>
      <trkpt lat="43.38549" lon="-1.54226">
        <ele>74</ele>
        <time>2026-08-23T13:42:09.000Z</time>
      </trkpt>
      <trkpt lat="43.3856" lon="-1.54212">
        <ele>72</ele>
        <time>2026-08-23T13:42:11.000Z</time>
      </trkpt>
      <trkpt lat="43.38566" lon="-1.54185">
        <ele>70</ele>
        <time>2026-08-23T13:42:15.000Z</time>
      </trkpt>
      <trkpt lat="43.38578" lon="-1.54102">
        <ele>62</ele>
        <time>2026-08-23T13:42:26.000Z</time>
      </trkpt>
      <trkpt lat="43.38587" lon="-1.54079">
        <ele>60</ele>
        <time>2026-08-23T13:42:29.000Z</time>
      </trkpt>
      <trkpt lat="43.38601" lon="-1.54062">
        <ele>60</ele>
        <time>2026-08-23T13:42:33.000Z</time>
      </trkpt>
      <trkpt lat="43.38664" lon="-1.54006">
        <ele>58</ele>
        <time>2026-08-23T13:42:46.000Z</time>
      </trkpt>
      <trkpt lat="43.38809" lon="-1.53911">
        <ele>41</ele>
        <time>2026-08-23T13:43:15.000Z</time>
      </trkpt>
      <trkpt lat="43.38828" lon="-1.53891">
        <ele>40</ele>
        <time>2026-08-23T13:43:19.000Z</time>
      </trkpt>
      <trkpt lat="43.38843" lon="-1.53871">
        <ele>40</ele>
        <time>2026-08-23T13:43:23.000Z</time>
      </trkpt>
      <trkpt lat="43.38854" lon="-1.53849">
        <ele>40</ele>
        <time>2026-08-23T13:43:26.000Z</time>
      </trkpt>
      <trkpt lat="43.38866" lon="-1.53817">
        <ele>42</ele>
        <time>2026-08-23T13:43:31.000Z</time>
      </trkpt>
      <trkpt lat="43.38901" lon="-1.53668">
        <ele>51</ele>
        <time>2026-08-23T13:43:51.000Z</time>
      </trkpt>
      <trkpt lat="43.38914" lon="-1.53634">
        <ele>51</ele>
        <time>2026-08-23T13:43:56.000Z</time>
      </trkpt>
      <trkpt lat="43.38934" lon="-1.53594">
        <ele>52</ele>
        <time>2026-08-23T13:44:02.000Z</time>
      </trkpt>
      <trkpt lat="43.38953" lon="-1.53564">
        <ele>53</ele>
        <time>2026-08-23T13:44:07.000Z</time>
      </trkpt>
      <trkpt lat="43.38968" lon="-1.53548">
        <ele>55</ele>
        <time>2026-08-23T13:44:11.000Z</time>
      </trkpt>
      <trkpt lat="43.38998" lon="-1.5354">
        <ele>59</ele>
        <time>2026-08-23T13:44:16.000Z</time>
      </trkpt>
      <trkpt lat="43.39036" lon="-1.53543">
        <ele>64</ele>
        <time>2026-08-23T13:44:23.000Z</time>
      </trkpt>
      <trkpt lat="43.39053" lon="-1.53538">
        <ele>66</ele>
        <time>2026-08-23T13:44:26.000Z</time>
      </trkpt>
      <trkpt lat="43.39065" lon="-1.53526">
        <ele>66</ele>
        <time>2026-08-23T13:44:29.000Z</time>
      </trkpt>
      <trkpt lat="43.39074" lon="-1.53508">
        <ele>66</ele>
        <time>2026-08-23T13:44:31.000Z</time>
      </trkpt>
      <trkpt lat="43.39091" lon="-1.53446">
        <ele>66</ele>
        <time>2026-08-23T13:44:40.000Z</time>
      </trkpt>
      <trkpt lat="43.39106" lon="-1.53428">
        <ele>67</ele>
        <time>2026-08-23T13:44:44.000Z</time>
      </trkpt>
      <trkpt lat="43.39123" lon="-1.53413">
        <ele>69</ele>
        <time>2026-08-23T13:44:47.000Z</time>
      </trkpt>
      <trkpt lat="43.392" lon="-1.53346">
        <ele>71</ele>
        <time>2026-08-23T13:45:03.000Z</time>
      </trkpt>
      <trkpt lat="43.39215" lon="-1.53338">
        <ele>71</ele>
        <time>2026-08-23T13:45:06.000Z</time>
      </trkpt>
      <trkpt lat="43.39231" lon="-1.53341">
        <ele>72</ele>
        <time>2026-08-23T13:45:09.000Z</time>
      </trkpt>
      <trkpt lat="43.39246" lon="-1.5335">
        <ele>74</ele>
        <time>2026-08-23T13:45:12.000Z</time>
      </trkpt>
      <trkpt lat="43.39261" lon="-1.5337">
        <ele>78</ele>
        <time>2026-08-23T13:45:16.000Z</time>
      </trkpt>
      <trkpt lat="43.39289" lon="-1.53413">
        <ele>84</ele>
        <time>2026-08-23T13:45:23.000Z</time>
      </trkpt>
      <trkpt lat="43.39303" lon="-1.53426">
        <ele>85</ele>
        <time>2026-08-23T13:45:26.000Z</time>
      </trkpt>
      <trkpt lat="43.39319" lon="-1.53431">
        <ele>86</ele>
        <time>2026-08-23T13:45:29.000Z</time>
      </trkpt>
      <trkpt lat="43.39333" lon="-1.53428">
        <ele>85</ele>
        <time>2026-08-23T13:45:32.000Z</time>
      </trkpt>
      <trkpt lat="43.39349" lon="-1.53414">
        <ele>83</ele>
        <time>2026-08-23T13:45:35.000Z</time>
      </trkpt>
      <trkpt lat="43.39399" lon="-1.53355">
        <ele>79</ele>
        <time>2026-08-23T13:45:47.000Z</time>
      </trkpt>
      <trkpt lat="43.39497" lon="-1.53289">
        <ele>78</ele>
        <time>2026-08-23T13:46:06.000Z</time>
      </trkpt>
      <trkpt lat="43.39523" lon="-1.53267">
        <ele>79</ele>
        <time>2026-08-23T13:46:12.000Z</time>
      </trkpt>
      <trkpt lat="43.39569" lon="-1.53215">
        <ele>82</ele>
        <time>2026-08-23T13:46:22.000Z</time>
      </trkpt>
      <trkpt lat="43.39688" lon="-1.53104">
        <ele>84</ele>
        <time>2026-08-23T13:46:48.000Z</time>
      </trkpt>
      <trkpt lat="43.39686" lon="-1.53071">
        <ele>86</ele>
        <time>2026-08-23T13:46:52.000Z</time>
      </trkpt>
      <trkpt lat="43.3968" lon="-1.53048">
        <ele>86</ele>
        <time>2026-08-23T13:46:55.000Z</time>
      </trkpt>
      <trkpt lat="43.3966" lon="-1.53">
        <ele>86</ele>
        <time>2026-08-23T13:47:02.000Z</time>
      </trkpt>
      <trkpt lat="43.39659" lon="-1.52978">
        <ele>86</ele>
        <time>2026-08-23T13:47:05.000Z</time>
      </trkpt>
      <trkpt lat="43.39665" lon="-1.5296">
        <ele>86</ele>
        <time>2026-08-23T13:47:08.000Z</time>
      </trkpt>
      <trkpt lat="43.39809" lon="-1.52761">
        <ele>85</ele>
        <time>2026-08-23T13:47:44.000Z</time>
      </trkpt>
      <trkpt lat="43.39825" lon="-1.52746">
        <ele>84</ele>
        <time>2026-08-23T13:47:48.000Z</time>
      </trkpt>
      <trkpt lat="43.39845" lon="-1.52738">
        <ele>83</ele>
        <time>2026-08-23T13:47:51.000Z</time>
      </trkpt>
      <trkpt lat="43.39954" lon="-1.52706">
        <ele>75</ele>
        <time>2026-08-23T13:48:11.000Z</time>
      </trkpt>
      <trkpt lat="43.40001" lon="-1.52696">
        <ele>70</ele>
        <time>2026-08-23T13:48:20.000Z</time>
      </trkpt>
      <trkpt lat="43.40026" lon="-1.52696">
        <ele>69</ele>
        <time>2026-08-23T13:48:24.000Z</time>
      </trkpt>
      <trkpt lat="43.40189" lon="-1.52719">
        <ele>70</ele>
        <time>2026-08-23T13:48:53.000Z</time>
      </trkpt>
      <trkpt lat="43.40212" lon="-1.52725">
        <ele>71</ele>
        <time>2026-08-23T13:48:57.000Z</time>
      </trkpt>
      <trkpt lat="43.40333" lon="-1.52775">
        <ele>69</ele>
        <time>2026-08-23T13:49:20.000Z</time>
      </trkpt>
      <trkpt lat="43.40353" lon="-1.52779">
        <ele>68</ele>
        <time>2026-08-23T13:49:23.000Z</time>
      </trkpt>
      <trkpt lat="43.40385" lon="-1.52776">
        <ele>67</ele>
        <time>2026-08-23T13:49:29.000Z</time>
      </trkpt>
      <trkpt lat="43.40393" lon="-1.52775">
        <ele>66</ele>
        <time>2026-08-23T13:49:30.000Z</time>
      </trkpt>
      <trkpt lat="43.40543" lon="-1.5272">
        <ele>61</ele>
        <time>2026-08-23T13:49:58.000Z</time>
      </trkpt>
      <trkpt lat="43.40669" lon="-1.52701">
        <ele>61</ele>
        <time>2026-08-23T13:50:21.000Z</time>
      </trkpt>
      <trkpt lat="43.40898" lon="-1.52648">
        <ele>61</ele>
        <time>2026-08-23T13:51:02.000Z</time>
      </trkpt>
      <trkpt lat="43.40923" lon="-1.52635">
        <ele>60</ele>
        <time>2026-08-23T13:51:07.000Z</time>
      </trkpt>
      <trkpt lat="43.41094" lon="-1.52514">
        <ele>63</ele>
        <time>2026-08-23T13:51:41.000Z</time>
      </trkpt>
      <trkpt lat="43.4126" lon="-1.52348">
        <ele>61</ele>
        <time>2026-08-23T13:52:17.000Z</time>
      </trkpt>
      <trkpt lat="43.41269" lon="-1.52344">
        <ele>61</ele>
        <time>2026-08-23T13:52:19.000Z</time>
      </trkpt>
      <trkpt lat="43.41282" lon="-1.52343">
        <ele>59</ele>
        <time>2026-08-23T13:52:21.000Z</time>
      </trkpt>
      <trkpt lat="43.41297" lon="-1.5235">
        <ele>58</ele>
        <time>2026-08-23T13:52:24.000Z</time>
      </trkpt>
      <trkpt lat="43.41307" lon="-1.52359">
        <ele>58</ele>
        <time>2026-08-23T13:52:26.000Z</time>
      </trkpt>
      <trkpt lat="43.41316" lon="-1.5237">
        <ele>57</ele>
        <time>2026-08-23T13:52:29.000Z</time>
      </trkpt>
      <trkpt lat="43.41322" lon="-1.52382">
        <ele>57</ele>
        <time>2026-08-23T13:52:30.000Z</time>
      </trkpt>
      <trkpt lat="43.41352" lon="-1.52476">
        <ele>55</ele>
        <time>2026-08-23T13:52:44.000Z</time>
      </trkpt>
      <trkpt lat="43.41361" lon="-1.52496">
        <ele>55</ele>
        <time>2026-08-23T13:52:47.000Z</time>
      </trkpt>
      <trkpt lat="43.41373" lon="-1.52509">
        <ele>55</ele>
        <time>2026-08-23T13:52:49.000Z</time>
      </trkpt>
      <trkpt lat="43.41401" lon="-1.52521">
        <ele>54</ele>
        <time>2026-08-23T13:52:55.000Z</time>
      </trkpt>
      <trkpt lat="43.4146" lon="-1.52536">
        <ele>50</ele>
        <time>2026-08-23T13:53:05.000Z</time>
      </trkpt>
      <trkpt lat="43.415" lon="-1.52551">
        <ele>47</ele>
        <time>2026-08-23T13:53:13.000Z</time>
      </trkpt>
      <trkpt lat="43.41514" lon="-1.52559">
        <ele>47</ele>
        <time>2026-08-23T13:53:15.000Z</time>
      </trkpt>
      <trkpt lat="43.41589" lon="-1.52629">
        <ele>51</ele>
        <time>2026-08-23T13:53:32.000Z</time>
      </trkpt>
      <trkpt lat="43.41615" lon="-1.52651">
        <ele>54</ele>
        <time>2026-08-23T13:53:37.000Z</time>
      </trkpt>
      <trkpt lat="43.41625" lon="-1.52656">
        <ele>55</ele>
        <time>2026-08-23T13:53:39.000Z</time>
      </trkpt>
      <trkpt lat="43.41644" lon="-1.52661">
        <ele>57</ele>
        <time>2026-08-23T13:53:42.000Z</time>
      </trkpt>
      <trkpt lat="43.41659" lon="-1.52662">
        <ele>59</ele>
        <time>2026-08-23T13:53:45.000Z</time>
      </trkpt>
      <trkpt lat="43.41792" lon="-1.52651">
        <ele>60</ele>
        <time>2026-08-23T13:54:09.000Z</time>
      </trkpt>
      <trkpt lat="43.41947" lon="-1.52614">
        <ele>48</ele>
        <time>2026-08-23T13:54:37.000Z</time>
      </trkpt>
      <trkpt lat="43.41962" lon="-1.52613">
        <ele>46</ele>
        <time>2026-08-23T13:54:39.000Z</time>
      </trkpt>
      <trkpt lat="43.41976" lon="-1.52613">
        <ele>45</ele>
        <time>2026-08-23T13:54:42.000Z</time>
      </trkpt>
      <trkpt lat="43.42005" lon="-1.52621">
        <ele>43</ele>
        <time>2026-08-23T13:54:47.000Z</time>
      </trkpt>
      <trkpt lat="43.42028" lon="-1.52638">
        <ele>44</ele>
        <time>2026-08-23T13:54:52.000Z</time>
      </trkpt>
      <trkpt lat="43.42043" lon="-1.52651">
        <ele>44</ele>
        <time>2026-08-23T13:54:55.000Z</time>
      </trkpt>
      <trkpt lat="43.42054" lon="-1.52666">
        <ele>44</ele>
        <time>2026-08-23T13:54:58.000Z</time>
      </trkpt>
      <trkpt lat="43.4215" lon="-1.52819">
        <ele>38</ele>
        <time>2026-08-23T13:55:24.000Z</time>
      </trkpt>
      <trkpt lat="43.42166" lon="-1.52843">
        <ele>38</ele>
        <time>2026-08-23T13:55:28.000Z</time>
      </trkpt>
      <trkpt lat="43.42188" lon="-1.5286">
        <ele>36</ele>
        <time>2026-08-23T13:55:32.000Z</time>
      </trkpt>
      <trkpt lat="43.42197" lon="-1.52864">
        <ele>35</ele>
        <time>2026-08-23T13:55:34.000Z</time>
      </trkpt>
      <trkpt lat="43.42219" lon="-1.52863">
        <ele>33</ele>
        <time>2026-08-23T13:55:38.000Z</time>
      </trkpt>
      <trkpt lat="43.42239" lon="-1.52848">
        <ele>32</ele>
        <time>2026-08-23T13:55:42.000Z</time>
      </trkpt>
      <trkpt lat="43.42257" lon="-1.52817">
        <ele>30</ele>
        <time>2026-08-23T13:55:47.000Z</time>
      </trkpt>
      <trkpt lat="43.42264" lon="-1.52775">
        <ele>28</ele>
        <time>2026-08-23T13:55:53.000Z</time>
      </trkpt>
      <trkpt lat="43.42259" lon="-1.52608">
        <ele>29</ele>
        <time>2026-08-23T13:56:14.000Z</time>
      </trkpt>
      <trkpt lat="43.42271" lon="-1.5256">
        <ele>28</ele>
        <time>2026-08-23T13:56:21.000Z</time>
      </trkpt>
      <trkpt lat="43.4228" lon="-1.52534">
        <ele>27</ele>
        <time>2026-08-23T13:56:25.000Z</time>
      </trkpt>
      <trkpt lat="43.42393" lon="-1.52417">
        <ele>22</ele>
        <time>2026-08-23T13:56:50.000Z</time>
      </trkpt>
      <trkpt lat="43.42408" lon="-1.5241">
        <ele>23</ele>
        <time>2026-08-23T13:56:53.000Z</time>
      </trkpt>
      <trkpt lat="43.42423" lon="-1.52407">
        <ele>23</ele>
        <time>2026-08-23T13:56:55.000Z</time>
      </trkpt>
      <trkpt lat="43.42451" lon="-1.52411">
        <ele>24</ele>
        <time>2026-08-23T13:57:00.000Z</time>
      </trkpt>
      <trkpt lat="43.42674" lon="-1.52428">
        <ele>35</ele>
        <time>2026-08-23T13:57:40.000Z</time>
      </trkpt>
      <trkpt lat="43.42779" lon="-1.52407">
        <ele>40</ele>
        <time>2026-08-23T13:57:59.000Z</time>
      </trkpt>
      <trkpt lat="43.42937" lon="-1.52395">
        <ele>52</ele>
        <time>2026-08-23T13:58:27.000Z</time>
      </trkpt>
      <trkpt lat="43.42954" lon="-1.52391">
        <ele>53</ele>
        <time>2026-08-23T13:58:30.000Z</time>
      </trkpt>
      <trkpt lat="43.42962" lon="-1.52387">
        <ele>53</ele>
        <time>2026-08-23T13:58:32.000Z</time>
      </trkpt>
      <trkpt lat="43.43028" lon="-1.52339">
        <ele>57</ele>
        <time>2026-08-23T13:58:45.000Z</time>
      </trkpt>
      <trkpt lat="43.43047" lon="-1.52326">
        <ele>58</ele>
        <time>2026-08-23T13:58:49.000Z</time>
      </trkpt>
      <trkpt lat="43.43087" lon="-1.52306">
        <ele>58</ele>
        <time>2026-08-23T13:58:56.000Z</time>
      </trkpt>
      <trkpt lat="43.43176" lon="-1.52272">
        <ele>59</ele>
        <time>2026-08-23T13:59:13.000Z</time>
      </trkpt>
      <trkpt lat="43.43196" lon="-1.52261">
        <ele>59</ele>
        <time>2026-08-23T13:59:17.000Z</time>
      </trkpt>
      <trkpt lat="43.43211" lon="-1.52249">
        <ele>59</ele>
        <time>2026-08-23T13:59:20.000Z</time>
      </trkpt>
      <trkpt lat="43.43226" lon="-1.52223">
        <ele>61</ele>
        <time>2026-08-23T13:59:24.000Z</time>
      </trkpt>
      <trkpt lat="43.43312" lon="-1.52042">
        <ele>64</ele>
        <time>2026-08-23T13:59:52.000Z</time>
      </trkpt>
      <trkpt lat="43.43328" lon="-1.52013">
        <ele>67</ele>
        <time>2026-08-23T13:59:57.000Z</time>
      </trkpt>
      <trkpt lat="43.43427" lon="-1.51885">
        <ele>70</ele>
        <time>2026-08-23T14:00:21.000Z</time>
      </trkpt>
      <trkpt lat="43.43439" lon="-1.51879">
        <ele>70</ele>
        <time>2026-08-23T14:00:23.000Z</time>
      </trkpt>
      <trkpt lat="43.4345" lon="-1.51879">
        <ele>70</ele>
        <time>2026-08-23T14:00:25.000Z</time>
      </trkpt>
      <trkpt lat="43.43467" lon="-1.51886">
        <ele>70</ele>
        <time>2026-08-23T14:00:28.000Z</time>
      </trkpt>
      <trkpt lat="43.43497" lon="-1.51912">
        <ele>70</ele>
        <time>2026-08-23T14:00:35.000Z</time>
      </trkpt>
      <trkpt lat="43.43501" lon="-1.51919">
        <ele>70</ele>
        <time>2026-08-23T14:00:36.000Z</time>
      </trkpt>
      <trkpt lat="43.43505" lon="-1.51909">
        <ele>70</ele>
        <time>2026-08-23T14:00:37.000Z</time>
      </trkpt>
      <trkpt lat="43.43513" lon="-1.51903">
        <ele>71</ele>
        <time>2026-08-23T14:00:39.000Z</time>
      </trkpt>
      <trkpt lat="43.4346" lon="-1.51674">
        <ele>75</ele>
        <time>2026-08-23T14:01:10.000Z</time>
      </trkpt>
      <trkpt lat="43.43413" lon="-1.5153">
        <ele>74</ele>
        <time>2026-08-23T14:01:30.000Z</time>
      </trkpt>
      <trkpt lat="43.43387" lon="-1.51468">
        <ele>74</ele>
        <time>2026-08-23T14:01:39.000Z</time>
      </trkpt>
      <trkpt lat="43.43373" lon="-1.5144">
        <ele>75</ele>
        <time>2026-08-23T14:01:44.000Z</time>
      </trkpt>
      <trkpt lat="43.43352" lon="-1.51407">
        <ele>74</ele>
        <time>2026-08-23T14:01:50.000Z</time>
      </trkpt>
      <trkpt lat="43.43332" lon="-1.51384">
        <ele>73</ele>
        <time>2026-08-23T14:01:54.000Z</time>
      </trkpt>
      <trkpt lat="43.43329" lon="-1.51388">
        <ele>74</ele>
        <time>2026-08-23T14:01:55.000Z</time>
      </trkpt>
      <trkpt lat="43.43324" lon="-1.51388">
        <ele>74</ele>
        <time>2026-08-23T14:01:56.000Z</time>
      </trkpt>
      <trkpt lat="43.43322" lon="-1.51387">
        <ele>74</ele>
        <time>2026-08-23T14:01:56.000Z</time>
      </trkpt>
      <trkpt lat="43.43319" lon="-1.51381">
        <ele>73</ele>
        <time>2026-08-23T14:01:57.000Z</time>
      </trkpt>
      <trkpt lat="43.4332" lon="-1.51374">
        <ele>72</ele>
        <time>2026-08-23T14:01:58.000Z</time>
      </trkpt>
      <trkpt lat="43.43298" lon="-1.51353">
        <ele>71</ele>
        <time>2026-08-23T14:02:03.000Z</time>
      </trkpt>
      <trkpt lat="43.43286" lon="-1.51347">
        <ele>71</ele>
        <time>2026-08-23T14:02:05.000Z</time>
      </trkpt>
      <trkpt lat="43.4327" lon="-1.51344">
        <ele>71</ele>
        <time>2026-08-23T14:02:08.000Z</time>
      </trkpt>
      <trkpt lat="43.43256" lon="-1.51345">
        <ele>71</ele>
        <time>2026-08-23T14:02:10.000Z</time>
      </trkpt>
      <trkpt lat="43.43212" lon="-1.51359">
        <ele>71</ele>
        <time>2026-08-23T14:02:18.000Z</time>
      </trkpt>
      <trkpt lat="43.43185" lon="-1.51365">
        <ele>71</ele>
        <time>2026-08-23T14:02:23.000Z</time>
      </trkpt>
      <trkpt lat="43.43145" lon="-1.51362">
        <ele>71</ele>
        <time>2026-08-23T14:02:30.000Z</time>
      </trkpt>
      <trkpt lat="43.43088" lon="-1.5134">
        <ele>72</ele>
        <time>2026-08-23T14:02:41.000Z</time>
      </trkpt>
      <trkpt lat="43.43068" lon="-1.51335">
        <ele>72</ele>
        <time>2026-08-23T14:02:45.000Z</time>
      </trkpt>
      <trkpt lat="43.42994" lon="-1.51328">
        <ele>72</ele>
        <time>2026-08-23T14:02:58.000Z</time>
      </trkpt>
      <trkpt lat="43.42976" lon="-1.51329">
        <ele>72</ele>
        <time>2026-08-23T14:03:01.000Z</time>
      </trkpt>
      <trkpt lat="43.4296" lon="-1.51336">
        <ele>73</ele>
        <time>2026-08-23T14:03:04.000Z</time>
      </trkpt>
      <trkpt lat="43.42943" lon="-1.51351">
        <ele>72</ele>
        <time>2026-08-23T14:03:08.000Z</time>
      </trkpt>
      <trkpt lat="43.4293" lon="-1.51367">
        <ele>71</ele>
        <time>2026-08-23T14:03:11.000Z</time>
      </trkpt>
      <trkpt lat="43.42901" lon="-1.51424">
        <ele>68</ele>
        <time>2026-08-23T14:03:20.000Z</time>
      </trkpt>
      <trkpt lat="43.42889" lon="-1.51436">
        <ele>67</ele>
        <time>2026-08-23T14:03:22.000Z</time>
      </trkpt>
      <trkpt lat="43.42869" lon="-1.51446">
        <ele>68</ele>
        <time>2026-08-23T14:03:26.000Z</time>
      </trkpt>
      <trkpt lat="43.4285" lon="-1.51447">
        <ele>68</ele>
        <time>2026-08-23T14:03:30.000Z</time>
      </trkpt>
      <trkpt lat="43.42825" lon="-1.51444">
        <ele>69</ele>
        <time>2026-08-23T14:03:34.000Z</time>
      </trkpt>
      <trkpt lat="43.42808" lon="-1.51439">
        <ele>69</ele>
        <time>2026-08-23T14:03:37.000Z</time>
      </trkpt>
      <trkpt lat="43.42776" lon="-1.51417">
        <ele>69</ele>
        <time>2026-08-23T14:03:43.000Z</time>
      </trkpt>
      <trkpt lat="43.42748" lon="-1.51391">
        <ele>68</ele>
        <time>2026-08-23T14:03:49.000Z</time>
      </trkpt>
      <trkpt lat="43.42739" lon="-1.51376">
        <ele>68</ele>
        <time>2026-08-23T14:03:52.000Z</time>
      </trkpt>
      <trkpt lat="43.42731" lon="-1.51359">
        <ele>68</ele>
        <time>2026-08-23T14:03:55.000Z</time>
      </trkpt>
      <trkpt lat="43.42724" lon="-1.51336">
        <ele>68</ele>
        <time>2026-08-23T14:03:58.000Z</time>
      </trkpt>
      <trkpt lat="43.42693" lon="-1.51182">
        <ele>61</ele>
        <time>2026-08-23T14:04:18.000Z</time>
      </trkpt>
      <trkpt lat="43.42685" lon="-1.51155">
        <ele>60</ele>
        <time>2026-08-23T14:04:22.000Z</time>
      </trkpt>
      <trkpt lat="43.42677" lon="-1.51144">
        <ele>59</ele>
        <time>2026-08-23T14:04:24.000Z</time>
      </trkpt>
      <trkpt lat="43.42668" lon="-1.51139">
        <ele>59</ele>
        <time>2026-08-23T14:04:26.000Z</time>
      </trkpt>
      <trkpt lat="43.42658" lon="-1.51137">
        <ele>59</ele>
        <time>2026-08-23T14:04:28.000Z</time>
      </trkpt>
      <trkpt lat="43.42647" lon="-1.51139">
        <ele>58</ele>
        <time>2026-08-23T14:04:30.000Z</time>
      </trkpt>
      <trkpt lat="43.42635" lon="-1.51149">
        <ele>58</ele>
        <time>2026-08-23T14:04:32.000Z</time>
      </trkpt>
      <trkpt lat="43.42574" lon="-1.51225">
        <ele>57</ele>
        <time>2026-08-23T14:04:47.000Z</time>
      </trkpt>
      <trkpt lat="43.42564" lon="-1.51233">
        <ele>57</ele>
        <time>2026-08-23T14:04:49.000Z</time>
      </trkpt>
      <trkpt lat="43.42552" lon="-1.51237">
        <ele>57</ele>
        <time>2026-08-23T14:04:51.000Z</time>
      </trkpt>
      <trkpt lat="43.42538" lon="-1.51234">
        <ele>56</ele>
        <time>2026-08-23T14:04:54.000Z</time>
      </trkpt>
      <trkpt lat="43.42526" lon="-1.51228">
        <ele>55</ele>
        <time>2026-08-23T14:04:56.000Z</time>
      </trkpt>
      <trkpt lat="43.42446" lon="-1.51147">
        <ele>54</ele>
        <time>2026-08-23T14:05:14.000Z</time>
      </trkpt>
      <trkpt lat="43.42355" lon="-1.5106">
        <ele>58</ele>
        <time>2026-08-23T14:05:33.000Z</time>
      </trkpt>
      <trkpt lat="43.42313" lon="-1.51038">
        <ele>59</ele>
        <time>2026-08-23T14:05:41.000Z</time>
      </trkpt>
      <trkpt lat="43.42233" lon="-1.51008">
        <ele>61</ele>
        <time>2026-08-23T14:05:56.000Z</time>
      </trkpt>
      <trkpt lat="43.42217" lon="-1.50998">
        <ele>61</ele>
        <time>2026-08-23T14:05:59.000Z</time>
      </trkpt>
      <trkpt lat="43.42165" lon="-1.50943">
        <ele>61</ele>
        <time>2026-08-23T14:06:11.000Z</time>
      </trkpt>
      <trkpt lat="43.42153" lon="-1.50923">
        <ele>61</ele>
        <time>2026-08-23T14:06:14.000Z</time>
      </trkpt>
      <trkpt lat="43.42094" lon="-1.50783">
        <ele>61</ele>
        <time>2026-08-23T14:06:35.000Z</time>
      </trkpt>
      <trkpt lat="43.42087" lon="-1.50774">
        <ele>61</ele>
        <time>2026-08-23T14:06:37.000Z</time>
      </trkpt>
      <trkpt lat="43.42077" lon="-1.50766">
        <ele>61</ele>
        <time>2026-08-23T14:06:39.000Z</time>
      </trkpt>
      <trkpt lat="43.42066" lon="-1.50761">
        <ele>60</ele>
        <time>2026-08-23T14:06:41.000Z</time>
      </trkpt>
      <trkpt lat="43.42055" lon="-1.50761">
        <ele>60</ele>
        <time>2026-08-23T14:06:43.000Z</time>
      </trkpt>
      <trkpt lat="43.4204" lon="-1.50766">
        <ele>61</ele>
        <time>2026-08-23T14:06:46.000Z</time>
      </trkpt>
      <trkpt lat="43.41965" lon="-1.50823">
        <ele>67</ele>
        <time>2026-08-23T14:07:01.000Z</time>
      </trkpt>
      <trkpt lat="43.41949" lon="-1.50826">
        <ele>67</ele>
        <time>2026-08-23T14:07:04.000Z</time>
      </trkpt>
      <trkpt lat="43.41939" lon="-1.50825">
        <ele>67</ele>
        <time>2026-08-23T14:07:06.000Z</time>
      </trkpt>
      <trkpt lat="43.41926" lon="-1.50818">
        <ele>67</ele>
        <time>2026-08-23T14:07:08.000Z</time>
      </trkpt>
      <trkpt lat="43.41843" lon="-1.50702">
        <ele>66</ele>
        <time>2026-08-23T14:07:29.000Z</time>
      </trkpt>
      <trkpt lat="43.41829" lon="-1.50687">
        <ele>67</ele>
        <time>2026-08-23T14:07:32.000Z</time>
      </trkpt>
      <trkpt lat="43.41807" lon="-1.50675">
        <ele>67</ele>
        <time>2026-08-23T14:07:36.000Z</time>
      </trkpt>
      <trkpt lat="43.4175" lon="-1.50649">
        <ele>68</ele>
        <time>2026-08-23T14:07:47.000Z</time>
      </trkpt>
      <trkpt lat="43.41722" lon="-1.50646">
        <ele>67</ele>
        <time>2026-08-23T14:07:52.000Z</time>
      </trkpt>
      <trkpt lat="43.41686" lon="-1.50655">
        <ele>67</ele>
        <time>2026-08-23T14:07:59.000Z</time>
      </trkpt>
      <trkpt lat="43.41676" lon="-1.50655">
        <ele>67</ele>
        <time>2026-08-23T14:08:00.000Z</time>
      </trkpt>
      <trkpt lat="43.41667" lon="-1.5065">
        <ele>66</ele>
        <time>2026-08-23T14:08:02.000Z</time>
      </trkpt>
      <trkpt lat="43.41641" lon="-1.50624">
        <ele>66</ele>
        <time>2026-08-23T14:08:08.000Z</time>
      </trkpt>
      <trkpt lat="43.41629" lon="-1.50618">
        <ele>65</ele>
        <time>2026-08-23T14:08:10.000Z</time>
      </trkpt>
      <trkpt lat="43.41617" lon="-1.50616">
        <ele>66</ele>
        <time>2026-08-23T14:08:12.000Z</time>
      </trkpt>
      <trkpt lat="43.41603" lon="-1.5062">
        <ele>66</ele>
        <time>2026-08-23T14:08:15.000Z</time>
      </trkpt>
      <trkpt lat="43.41562" lon="-1.50642">
        <ele>68</ele>
        <time>2026-08-23T14:08:23.000Z</time>
      </trkpt>
      <trkpt lat="43.41551" lon="-1.50645">
        <ele>68</ele>
        <time>2026-08-23T14:08:25.000Z</time>
      </trkpt>
      <trkpt lat="43.4154" lon="-1.50646">
        <ele>68</ele>
        <time>2026-08-23T14:08:27.000Z</time>
      </trkpt>
      <trkpt lat="43.41518" lon="-1.50641">
        <ele>67</ele>
        <time>2026-08-23T14:08:31.000Z</time>
      </trkpt>
      <trkpt lat="43.41466" lon="-1.50626">
        <ele>67</ele>
        <time>2026-08-23T14:08:40.000Z</time>
      </trkpt>
      <trkpt lat="43.41404" lon="-1.50621">
        <ele>70</ele>
        <time>2026-08-23T14:08:51.000Z</time>
      </trkpt>
      <trkpt lat="43.41387" lon="-1.50617">
        <ele>70</ele>
        <time>2026-08-23T14:08:54.000Z</time>
      </trkpt>
      <trkpt lat="43.41372" lon="-1.50611">
        <ele>70</ele>
        <time>2026-08-23T14:08:57.000Z</time>
      </trkpt>
      <trkpt lat="43.41356" lon="-1.50596">
        <ele>70</ele>
        <time>2026-08-23T14:09:00.000Z</time>
      </trkpt>
      <trkpt lat="43.41331" lon="-1.50568">
        <ele>71</ele>
        <time>2026-08-23T14:09:06.000Z</time>
      </trkpt>
      <trkpt lat="43.41311" lon="-1.5054">
        <ele>71</ele>
        <time>2026-08-23T14:09:11.000Z</time>
      </trkpt>
      <trkpt lat="43.41293" lon="-1.5051">
        <ele>72</ele>
        <time>2026-08-23T14:09:16.000Z</time>
      </trkpt>
      <trkpt lat="43.41251" lon="-1.50453">
        <ele>75</ele>
        <time>2026-08-23T14:09:27.000Z</time>
      </trkpt>
      <trkpt lat="43.4124" lon="-1.50442">
        <ele>75</ele>
        <time>2026-08-23T14:09:29.000Z</time>
      </trkpt>
      <trkpt lat="43.41226" lon="-1.50437">
        <ele>75</ele>
        <time>2026-08-23T14:09:32.000Z</time>
      </trkpt>
      <trkpt lat="43.41214" lon="-1.50438">
        <ele>74</ele>
        <time>2026-08-23T14:09:34.000Z</time>
      </trkpt>
      <trkpt lat="43.41202" lon="-1.50443">
        <ele>74</ele>
        <time>2026-08-23T14:09:36.000Z</time>
      </trkpt>
      <trkpt lat="43.41191" lon="-1.50454">
        <ele>73</ele>
        <time>2026-08-23T14:09:38.000Z</time>
      </trkpt>
      <trkpt lat="43.41181" lon="-1.50474">
        <ele>73</ele>
        <time>2026-08-23T14:09:42.000Z</time>
      </trkpt>
      <trkpt lat="43.4117" lon="-1.50498">
        <ele>72</ele>
        <time>2026-08-23T14:09:45.000Z</time>
      </trkpt>
      <trkpt lat="43.41156" lon="-1.5051">
        <ele>72</ele>
        <time>2026-08-23T14:09:48.000Z</time>
      </trkpt>
      <trkpt lat="43.41116" lon="-1.50523">
        <ele>70</ele>
        <time>2026-08-23T14:09:56.000Z</time>
      </trkpt>
      <trkpt lat="43.41094" lon="-1.50533">
        <ele>70</ele>
        <time>2026-08-23T14:10:00.000Z</time>
      </trkpt>
      <trkpt lat="43.41004" lon="-1.50586">
        <ele>71</ele>
        <time>2026-08-23T14:10:17.000Z</time>
      </trkpt>
      <trkpt lat="43.40989" lon="-1.50598">
        <ele>71</ele>
        <time>2026-08-23T14:10:20.000Z</time>
      </trkpt>
      <trkpt lat="43.40962" lon="-1.5064">
        <ele>73</ele>
        <time>2026-08-23T14:10:27.000Z</time>
      </trkpt>
      <trkpt lat="43.40948" lon="-1.50654">
        <ele>74</ele>
        <time>2026-08-23T14:10:30.000Z</time>
      </trkpt>
      <trkpt lat="43.40931" lon="-1.5066">
        <ele>76</ele>
        <time>2026-08-23T14:10:34.000Z</time>
      </trkpt>
      <trkpt lat="43.40919" lon="-1.5066">
        <ele>76</ele>
        <time>2026-08-23T14:10:36.000Z</time>
      </trkpt>
      <trkpt lat="43.40906" lon="-1.50656">
        <ele>77</ele>
        <time>2026-08-23T14:10:38.000Z</time>
      </trkpt>
      <trkpt lat="43.40893" lon="-1.50642">
        <ele>77</ele>
        <time>2026-08-23T14:10:41.000Z</time>
      </trkpt>
      <trkpt lat="43.40868" lon="-1.50598">
        <ele>77</ele>
        <time>2026-08-23T14:10:48.000Z</time>
      </trkpt>
      <trkpt lat="43.40851" lon="-1.5058">
        <ele>78</ele>
        <time>2026-08-23T14:10:52.000Z</time>
      </trkpt>
      <trkpt lat="43.40827" lon="-1.50565">
        <ele>79</ele>
        <time>2026-08-23T14:10:57.000Z</time>
      </trkpt>
      <trkpt lat="43.40809" lon="-1.50559">
        <ele>80</ele>
        <time>2026-08-23T14:11:00.000Z</time>
      </trkpt>
      <trkpt lat="43.40799" lon="-1.50554">
        <ele>80</ele>
        <time>2026-08-23T14:11:02.000Z</time>
      </trkpt>
      <trkpt lat="43.40788" lon="-1.50542">
        <ele>81</ele>
        <time>2026-08-23T14:11:04.000Z</time>
      </trkpt>
      <trkpt lat="43.40782" lon="-1.50531">
        <ele>81</ele>
        <time>2026-08-23T14:11:06.000Z</time>
      </trkpt>
      <trkpt lat="43.4078" lon="-1.50519">
        <ele>82</ele>
        <time>2026-08-23T14:11:08.000Z</time>
      </trkpt>
      <trkpt lat="43.40778" lon="-1.50485">
        <ele>81</ele>
        <time>2026-08-23T14:11:12.000Z</time>
      </trkpt>
      <trkpt lat="43.40775" lon="-1.50474">
        <ele>81</ele>
        <time>2026-08-23T14:11:14.000Z</time>
      </trkpt>
      <trkpt lat="43.40771" lon="-1.50464">
        <ele>80</ele>
        <time>2026-08-23T14:11:15.000Z</time>
      </trkpt>
      <trkpt lat="43.40758" lon="-1.50448">
        <ele>81</ele>
        <time>2026-08-23T14:11:18.000Z</time>
      </trkpt>
      <trkpt lat="43.40747" lon="-1.5044">
        <ele>81</ele>
        <time>2026-08-23T14:11:21.000Z</time>
      </trkpt>
      <trkpt lat="43.40686" lon="-1.50409">
        <ele>85</ele>
        <time>2026-08-23T14:11:32.000Z</time>
      </trkpt>
      <trkpt lat="43.40683" lon="-1.50386">
        <ele>84</ele>
        <time>2026-08-23T14:11:35.000Z</time>
      </trkpt>
      <trkpt lat="43.40642" lon="-1.5033">
        <ele>88</ele>
        <time>2026-08-23T14:11:45.000Z</time>
      </trkpt>
      <trkpt lat="43.40632" lon="-1.50309">
        <ele>90</ele>
        <time>2026-08-23T14:11:49.000Z</time>
      </trkpt>
      <trkpt lat="43.40627" lon="-1.5028">
        <ele>90</ele>
        <time>2026-08-23T14:11:53.000Z</time>
      </trkpt>
      <trkpt lat="43.40628" lon="-1.50219">
        <ele>91</ele>
        <time>2026-08-23T14:12:00.000Z</time>
      </trkpt>
      <trkpt lat="43.40622" lon="-1.50199">
        <ele>91</ele>
        <time>2026-08-23T14:12:03.000Z</time>
      </trkpt>
      <trkpt lat="43.40612" lon="-1.50188">
        <ele>91</ele>
        <time>2026-08-23T14:12:05.000Z</time>
      </trkpt>
      <trkpt lat="43.40578" lon="-1.50166">
        <ele>90</ele>
        <time>2026-08-23T14:12:12.000Z</time>
      </trkpt>
      <trkpt lat="43.40539" lon="-1.50132">
        <ele>87</ele>
        <time>2026-08-23T14:12:20.000Z</time>
      </trkpt>
      <trkpt lat="43.40521" lon="-1.50114">
        <ele>86</ele>
        <time>2026-08-23T14:12:24.000Z</time>
      </trkpt>
      <trkpt lat="43.4051" lon="-1.50093">
        <ele>85</ele>
        <time>2026-08-23T14:12:28.000Z</time>
      </trkpt>
      <trkpt lat="43.40488" lon="-1.50047">
        <ele>84</ele>
        <time>2026-08-23T14:12:35.000Z</time>
      </trkpt>
      <trkpt lat="43.40481" lon="-1.5004">
        <ele>83</ele>
        <time>2026-08-23T14:12:36.000Z</time>
      </trkpt>
      <trkpt lat="43.405" lon="-1.49904">
        <ele>85</ele>
        <time>2026-08-23T14:12:54.000Z</time>
      </trkpt>
      <trkpt lat="43.40513" lon="-1.49848">
        <ele>84</ele>
        <time>2026-08-23T14:13:02.000Z</time>
      </trkpt>
      <trkpt lat="43.40563" lon="-1.49661">
        <ele>85</ele>
        <time>2026-08-23T14:13:28.000Z</time>
      </trkpt>
      <trkpt lat="43.40584" lon="-1.49611">
        <ele>86</ele>
        <time>2026-08-23T14:13:35.000Z</time>
      </trkpt>
      <trkpt lat="43.40602" lon="-1.4958">
        <ele>86</ele>
        <time>2026-08-23T14:13:40.000Z</time>
      </trkpt>
      <trkpt lat="43.4065" lon="-1.49519">
        <ele>85</ele>
        <time>2026-08-23T14:13:52.000Z</time>
      </trkpt>
      <trkpt lat="43.40722" lon="-1.49437">
        <ele>84</ele>
        <time>2026-08-23T14:14:08.000Z</time>
      </trkpt>
      <trkpt lat="43.40826" lon="-1.49307">
        <ele>83</ele>
        <time>2026-08-23T14:14:33.000Z</time>
      </trkpt>
      <trkpt lat="43.40884" lon="-1.49232">
        <ele>84</ele>
        <time>2026-08-23T14:14:48.000Z</time>
      </trkpt>
      <trkpt lat="43.40908" lon="-1.49208">
        <ele>85</ele>
        <time>2026-08-23T14:14:53.000Z</time>
      </trkpt>
      <trkpt lat="43.40931" lon="-1.49199">
        <ele>85</ele>
        <time>2026-08-23T14:14:57.000Z</time>
      </trkpt>
      <trkpt lat="43.40945" lon="-1.49203">
        <ele>84</ele>
        <time>2026-08-23T14:15:00.000Z</time>
      </trkpt>
      <trkpt lat="43.40959" lon="-1.49214">
        <ele>84</ele>
        <time>2026-08-23T14:15:03.000Z</time>
      </trkpt>
      <trkpt lat="43.41035" lon="-1.49284">
        <ele>83</ele>
        <time>2026-08-23T14:15:19.000Z</time>
      </trkpt>
      <trkpt lat="43.41101" lon="-1.49351">
        <ele>83</ele>
        <time>2026-08-23T14:15:33.000Z</time>
      </trkpt>
      <trkpt lat="43.41173" lon="-1.49432">
        <ele>85</ele>
        <time>2026-08-23T14:15:50.000Z</time>
      </trkpt>
      <trkpt lat="43.41184" lon="-1.49439">
        <ele>86</ele>
        <time>2026-08-23T14:15:52.000Z</time>
      </trkpt>
      <trkpt lat="43.41198" lon="-1.49443">
        <ele>87</ele>
        <time>2026-08-23T14:15:55.000Z</time>
      </trkpt>
      <trkpt lat="43.41215" lon="-1.4944">
        <ele>89</ele>
        <time>2026-08-23T14:15:58.000Z</time>
      </trkpt>
      <trkpt lat="43.41229" lon="-1.49428">
        <ele>90</ele>
        <time>2026-08-23T14:16:01.000Z</time>
      </trkpt>
      <trkpt lat="43.41273" lon="-1.49318">
        <ele>82</ele>
        <time>2026-08-23T14:16:17.000Z</time>
      </trkpt>
      <trkpt lat="43.41354" lon="-1.49135">
        <ele>80</ele>
        <time>2026-08-23T14:16:45.000Z</time>
      </trkpt>
      <trkpt lat="43.41366" lon="-1.49103">
        <ele>80</ele>
        <time>2026-08-23T14:16:49.000Z</time>
      </trkpt>
      <trkpt lat="43.41383" lon="-1.49033">
        <ele>80</ele>
        <time>2026-08-23T14:16:59.000Z</time>
      </trkpt>
      <trkpt lat="43.41426" lon="-1.48822">
        <ele>72</ele>
        <time>2026-08-23T14:17:27.000Z</time>
      </trkpt>
      <trkpt lat="43.4145" lon="-1.48713">
        <ele>68</ele>
        <time>2026-08-23T14:17:42.000Z</time>
      </trkpt>
      <trkpt lat="43.41475" lon="-1.48627">
        <ele>64</ele>
        <time>2026-08-23T14:17:54.000Z</time>
      </trkpt>
      <trkpt lat="43.41498" lon="-1.4856">
        <ele>62</ele>
        <time>2026-08-23T14:18:03.000Z</time>
      </trkpt>
      <trkpt lat="43.41547" lon="-1.48443">
        <ele>60</ele>
        <time>2026-08-23T14:18:21.000Z</time>
      </trkpt>
      <trkpt lat="43.41623" lon="-1.48269">
        <ele>59</ele>
        <time>2026-08-23T14:18:47.000Z</time>
      </trkpt>
      <trkpt lat="43.41645" lon="-1.48231">
        <ele>59</ele>
        <time>2026-08-23T14:18:53.000Z</time>
      </trkpt>
      <trkpt lat="43.41677" lon="-1.48195">
        <ele>58</ele>
        <time>2026-08-23T14:19:01.000Z</time>
      </trkpt>
      <trkpt lat="43.41744" lon="-1.48147">
        <ele>55</ele>
        <time>2026-08-23T14:19:14.000Z</time>
      </trkpt>
      <trkpt lat="43.41776" lon="-1.4814">
        <ele>54</ele>
        <time>2026-08-23T14:19:20.000Z</time>
      </trkpt>
      <trkpt lat="43.41849" lon="-1.48147">
        <ele>51</ele>
        <time>2026-08-23T14:19:33.000Z</time>
      </trkpt>
      <trkpt lat="43.41856" lon="-1.48135">
        <ele>51</ele>
        <time>2026-08-23T14:19:35.000Z</time>
      </trkpt>
      <trkpt lat="43.41854" lon="-1.48112">
        <ele>51</ele>
        <time>2026-08-23T14:19:38.000Z</time>
      </trkpt>
      <trkpt lat="43.41841" lon="-1.48067">
        <ele>51</ele>
        <time>2026-08-23T14:19:44.000Z</time>
      </trkpt>
      <trkpt lat="43.41796" lon="-1.47969">
        <ele>47</ele>
        <time>2026-08-23T14:19:59.000Z</time>
      </trkpt>
      <trkpt lat="43.41821" lon="-1.48004">
        <ele>49</ele>
        <time>2026-08-23T14:20:05.000Z</time>
      </trkpt>
      <trkpt lat="43.41837" lon="-1.48032">
        <ele>49</ele>
        <time>2026-08-23T14:20:10.000Z</time>
      </trkpt>
      <trkpt lat="43.41846" lon="-1.48038">
        <ele>49</ele>
        <time>2026-08-23T14:20:12.000Z</time>
      </trkpt>
      <trkpt lat="43.41865" lon="-1.48066">
        <ele>50</ele>
        <time>2026-08-23T14:20:17.000Z</time>
      </trkpt>
      <trkpt lat="43.41899" lon="-1.48125">
        <ele>49</ele>
        <time>2026-08-23T14:20:27.000Z</time>
      </trkpt>
      <trkpt lat="43.41921" lon="-1.48149">
        <ele>49</ele>
        <time>2026-08-23T14:20:32.000Z</time>
      </trkpt>
      <trkpt lat="43.42031" lon="-1.48112">
        <ele>48</ele>
        <time>2026-08-23T14:20:52.000Z</time>
      </trkpt>
      <trkpt lat="43.4207" lon="-1.48103">
        <ele>47</ele>
        <time>2026-08-23T14:20:59.000Z</time>
      </trkpt>
      <trkpt lat="43.42068" lon="-1.48049">
        <ele>46</ele>
        <time>2026-08-23T14:21:06.000Z</time>
      </trkpt>
      <trkpt lat="43.4211" lon="-1.48014">
        <ele>45</ele>
        <time>2026-08-23T14:21:14.000Z</time>
      </trkpt>
      <trkpt lat="43.42104" lon="-1.47907">
        <ele>43</ele>
        <time>2026-08-23T14:21:28.000Z</time>
      </trkpt>
      <trkpt lat="43.42106" lon="-1.47811">
        <ele>42</ele>
        <time>2026-08-23T14:21:41.000Z</time>
      </trkpt>
      <trkpt lat="43.42106" lon="-1.47715">
        <ele>38</ele>
        <time>2026-08-23T14:21:53.000Z</time>
      </trkpt>
      <trkpt lat="43.42073" lon="-1.47683">
        <ele>34</ele>
        <time>2026-08-23T14:22:00.000Z</time>
      </trkpt>
      <trkpt lat="43.42064" lon="-1.47674">
        <ele>33</ele>
        <time>2026-08-23T14:22:02.000Z</time>
      </trkpt>
      <trkpt lat="43.42032" lon="-1.47649">
        <ele>28</ele>
        <time>2026-08-23T14:22:09.000Z</time>
      </trkpt>
      <trkpt lat="43.41982" lon="-1.47621">
        <ele>18</ele>
        <time>2026-08-23T14:22:18.000Z</time>
      </trkpt>
      <trkpt lat="43.41934" lon="-1.47589">
        <ele>10</ele>
        <time>2026-08-23T14:22:28.000Z</time>
      </trkpt>
      <trkpt lat="43.41922" lon="-1.47594">
        <ele>9</ele>
        <time>2026-08-23T14:22:30.000Z</time>
      </trkpt>
      <trkpt lat="43.41902" lon="-1.47571">
        <ele>7</ele>
        <time>2026-08-23T14:22:35.000Z</time>
      </trkpt>
      <trkpt lat="43.41891" lon="-1.47563">
        <ele>7</ele>
        <time>2026-08-23T14:22:37.000Z</time>
      </trkpt>
      <trkpt lat="43.41823" lon="-1.4753">
        <ele>7</ele>
        <time>2026-08-23T14:22:50.000Z</time>
      </trkpt>
      <trkpt lat="43.41765" lon="-1.47508">
        <ele>14</ele>
        <time>2026-08-23T14:23:01.000Z</time>
      </trkpt>
      <trkpt lat="43.41751" lon="-1.47506">
        <ele>16</ele>
        <time>2026-08-23T14:23:03.000Z</time>
      </trkpt>
      <trkpt lat="43.41741" lon="-1.47507">
        <ele>17</ele>
        <time>2026-08-23T14:23:05.000Z</time>
      </trkpt>
      <trkpt lat="43.41729" lon="-1.47514">
        <ele>18</ele>
        <time>2026-08-23T14:23:07.000Z</time>
      </trkpt>
      <trkpt lat="43.41699" lon="-1.47545">
        <ele>17</ele>
        <time>2026-08-23T14:23:14.000Z</time>
      </trkpt>
      <trkpt lat="43.41688" lon="-1.47555">
        <ele>17</ele>
        <time>2026-08-23T14:23:16.000Z</time>
      </trkpt>
      <trkpt lat="43.41681" lon="-1.47559">
        <ele>17</ele>
        <time>2026-08-23T14:23:18.000Z</time>
      </trkpt>
      <trkpt lat="43.41672" lon="-1.47559">
        <ele>18</ele>
        <time>2026-08-23T14:23:19.000Z</time>
      </trkpt>
      <trkpt lat="43.41664" lon="-1.47556">
        <ele>18</ele>
        <time>2026-08-23T14:23:21.000Z</time>
      </trkpt>
      <trkpt lat="43.41657" lon="-1.47551">
        <ele>18</ele>
        <time>2026-08-23T14:23:22.000Z</time>
      </trkpt>
      <trkpt lat="43.41649" lon="-1.4754">
        <ele>19</ele>
        <time>2026-08-23T14:23:24.000Z</time>
      </trkpt>
      <trkpt lat="43.41586" lon="-1.47401">
        <ele>33</ele>
        <time>2026-08-23T14:23:45.000Z</time>
      </trkpt>
      <trkpt lat="43.41564" lon="-1.47302">
        <ele>42</ele>
        <time>2026-08-23T14:23:59.000Z</time>
      </trkpt>
      <trkpt lat="43.41545" lon="-1.47224">
        <ele>47</ele>
        <time>2026-08-23T14:24:09.000Z</time>
      </trkpt>
      <trkpt lat="43.41541" lon="-1.47195">
        <ele>48</ele>
        <time>2026-08-23T14:24:13.000Z</time>
      </trkpt>
      <trkpt lat="43.41541" lon="-1.47177">
        <ele>49</ele>
        <time>2026-08-23T14:24:15.000Z</time>
      </trkpt>
      <trkpt lat="43.41559" lon="-1.47092">
        <ele>51</ele>
        <time>2026-08-23T14:24:27.000Z</time>
      </trkpt>
      <trkpt lat="43.41562" lon="-1.47059">
        <ele>51</ele>
        <time>2026-08-23T14:24:31.000Z</time>
      </trkpt>
      <trkpt lat="43.4156" lon="-1.47047">
        <ele>51</ele>
        <time>2026-08-23T14:24:33.000Z</time>
      </trkpt>
      <trkpt lat="43.41556" lon="-1.47036">
        <ele>51</ele>
        <time>2026-08-23T14:24:34.000Z</time>
      </trkpt>
      <trkpt lat="43.4155" lon="-1.47028">
        <ele>51</ele>
        <time>2026-08-23T14:24:36.000Z</time>
      </trkpt>
      <trkpt lat="43.41543" lon="-1.47022">
        <ele>51</ele>
        <time>2026-08-23T14:24:37.000Z</time>
      </trkpt>
      <trkpt lat="43.41529" lon="-1.47016">
        <ele>51</ele>
        <time>2026-08-23T14:24:40.000Z</time>
      </trkpt>
      <trkpt lat="43.41515" lon="-1.47016">
        <ele>51</ele>
        <time>2026-08-23T14:24:42.000Z</time>
      </trkpt>
      <trkpt lat="43.41418" lon="-1.46991">
        <ele>52</ele>
        <time>2026-08-23T14:25:00.000Z</time>
      </trkpt>
      <trkpt lat="43.41294" lon="-1.46953">
        <ele>53</ele>
        <time>2026-08-23T14:25:22.000Z</time>
      </trkpt>
      <trkpt lat="43.41199" lon="-1.46913">
        <ele>52</ele>
        <time>2026-08-23T14:25:40.000Z</time>
      </trkpt>
      <trkpt lat="43.41109" lon="-1.46863">
        <ele>53</ele>
        <time>2026-08-23T14:25:57.000Z</time>
      </trkpt>
      <trkpt lat="43.41081" lon="-1.46844">
        <ele>53</ele>
        <time>2026-08-23T14:26:03.000Z</time>
      </trkpt>
      <trkpt lat="43.41065" lon="-1.4683">
        <ele>53</ele>
        <time>2026-08-23T14:26:06.000Z</time>
      </trkpt>
      <trkpt lat="43.41037" lon="-1.46797">
        <ele>54</ele>
        <time>2026-08-23T14:26:13.000Z</time>
      </trkpt>
      <trkpt lat="43.41032" lon="-1.468">
        <ele>54</ele>
        <time>2026-08-23T14:26:14.000Z</time>
      </trkpt>
      <trkpt lat="43.41028" lon="-1.468">
        <ele>54</ele>
        <time>2026-08-23T14:26:15.000Z</time>
      </trkpt>
      <trkpt lat="43.41023" lon="-1.46798">
        <ele>54</ele>
        <time>2026-08-23T14:26:16.000Z</time>
      </trkpt>
      <trkpt lat="43.4102" lon="-1.46793">
        <ele>54</ele>
        <time>2026-08-23T14:26:16.000Z</time>
      </trkpt>
      <trkpt lat="43.41018" lon="-1.46785">
        <ele>54</ele>
        <time>2026-08-23T14:26:17.000Z</time>
      </trkpt>
      <trkpt lat="43.4102" lon="-1.46777">
        <ele>54</ele>
        <time>2026-08-23T14:26:19.000Z</time>
      </trkpt>
      <trkpt lat="43.41024" lon="-1.46772">
        <ele>55</ele>
        <time>2026-08-23T14:26:20.000Z</time>
      </trkpt>
      <trkpt lat="43.40966" lon="-1.46698">
        <ele>55</ele>
        <time>2026-08-23T14:26:34.000Z</time>
      </trkpt>
      <trkpt lat="43.40911" lon="-1.46622">
        <ele>50</ele>
        <time>2026-08-23T14:26:47.000Z</time>
      </trkpt>
      <trkpt lat="43.40887" lon="-1.46601">
        <ele>46</ele>
        <time>2026-08-23T14:26:53.000Z</time>
      </trkpt>
      <trkpt lat="43.40875" lon="-1.46598">
        <ele>45</ele>
        <time>2026-08-23T14:26:55.000Z</time>
      </trkpt>
      <trkpt lat="43.40767" lon="-1.46616">
        <ele>41</ele>
        <time>2026-08-23T14:27:14.000Z</time>
      </trkpt>
      <trkpt lat="43.40738" lon="-1.46615">
        <ele>39</ele>
        <time>2026-08-23T14:27:19.000Z</time>
      </trkpt>
      <trkpt lat="43.40636" lon="-1.46582">
        <ele>32</ele>
        <time>2026-08-23T14:27:38.000Z</time>
      </trkpt>
      <trkpt lat="43.40621" lon="-1.46574">
        <ele>32</ele>
        <time>2026-08-23T14:27:41.000Z</time>
      </trkpt>
      <trkpt lat="43.40581" lon="-1.46542">
        <ele>27</ele>
        <time>2026-08-23T14:27:49.000Z</time>
      </trkpt>
      <trkpt lat="43.40566" lon="-1.46525">
        <ele>25</ele>
        <time>2026-08-23T14:27:52.000Z</time>
      </trkpt>
      <trkpt lat="43.40554" lon="-1.46508">
        <ele>21</ele>
        <time>2026-08-23T14:27:55.000Z</time>
      </trkpt>
      <trkpt lat="43.40539" lon="-1.46479">
        <ele>18</ele>
        <time>2026-08-23T14:28:00.000Z</time>
      </trkpt>
      <trkpt lat="43.40461" lon="-1.46302">
        <ele>14</ele>
        <time>2026-08-23T14:28:27.000Z</time>
      </trkpt>
      <trkpt lat="43.40422" lon="-1.46213">
        <ele>17</ele>
        <time>2026-08-23T14:28:40.000Z</time>
      </trkpt>
      <trkpt lat="43.4032" lon="-1.45997">
        <ele>16</ele>
        <time>2026-08-23T14:29:14.000Z</time>
      </trkpt>
      <trkpt lat="43.4031" lon="-1.45979">
        <ele>15</ele>
        <time>2026-08-23T14:29:16.000Z</time>
      </trkpt>
      <trkpt lat="43.40268" lon="-1.45937">
        <ele>14</ele>
        <time>2026-08-23T14:29:26.000Z</time>
      </trkpt>
      <trkpt lat="43.40239" lon="-1.45904">
        <ele>14</ele>
        <time>2026-08-23T14:29:32.000Z</time>
      </trkpt>
      <trkpt lat="43.4022" lon="-1.45878">
        <ele>14</ele>
        <time>2026-08-23T14:29:37.000Z</time>
      </trkpt>
      <trkpt lat="43.4019" lon="-1.45825">
        <ele>15</ele>
        <time>2026-08-23T14:29:46.000Z</time>
      </trkpt>
      <trkpt lat="43.4015" lon="-1.45782">
        <ele>16</ele>
        <time>2026-08-23T14:29:55.000Z</time>
      </trkpt>
      <trkpt lat="43.40082" lon="-1.4572">
        <ele>16</ele>
        <time>2026-08-23T14:30:09.000Z</time>
      </trkpt>
      <trkpt lat="43.40037" lon="-1.45699">
        <ele>15</ele>
        <time>2026-08-23T14:30:18.000Z</time>
      </trkpt>
      <trkpt lat="43.40013" lon="-1.45679">
        <ele>15</ele>
        <time>2026-08-23T14:30:23.000Z</time>
      </trkpt>
      <trkpt lat="43.40003" lon="-1.45663">
        <ele>15</ele>
        <time>2026-08-23T14:30:26.000Z</time>
      </trkpt>
      <trkpt lat="43.39955" lon="-1.45609">
        <ele>13</ele>
        <time>2026-08-23T14:30:37.000Z</time>
      </trkpt>
      <trkpt lat="43.39893" lon="-1.45534">
        <ele>12</ele>
        <time>2026-08-23T14:30:51.000Z</time>
      </trkpt>
      <trkpt lat="43.39883" lon="-1.45525">
        <ele>13</ele>
        <time>2026-08-23T14:30:53.000Z</time>
      </trkpt>
      <trkpt lat="43.39816" lon="-1.45479">
        <ele>14</ele>
        <time>2026-08-23T14:31:07.000Z</time>
      </trkpt>
      <trkpt lat="43.39734" lon="-1.45431">
        <ele>15</ele>
        <time>2026-08-23T14:31:23.000Z</time>
      </trkpt>
      <trkpt lat="43.39726" lon="-1.45427">
        <ele>15</ele>
        <time>2026-08-23T14:31:24.000Z</time>
      </trkpt>
      <trkpt lat="43.39714" lon="-1.45427">
        <ele>15</ele>
        <time>2026-08-23T14:31:26.000Z</time>
      </trkpt>
      <trkpt lat="43.39706" lon="-1.4543">
        <ele>15</ele>
        <time>2026-08-23T14:31:28.000Z</time>
      </trkpt>
      <trkpt lat="43.39704" lon="-1.45435">
        <ele>15</ele>
        <time>2026-08-23T14:31:28.000Z</time>
      </trkpt>
      <trkpt lat="43.39698" lon="-1.45438">
        <ele>15</ele>
        <time>2026-08-23T14:31:30.000Z</time>
      </trkpt>
      <trkpt lat="43.39694" lon="-1.45447">
        <ele>16</ele>
        <time>2026-08-23T14:31:31.000Z</time>
      </trkpt>
      <trkpt lat="43.39678" lon="-1.45502">
        <ele>18</ele>
        <time>2026-08-23T14:31:39.000Z</time>
      </trkpt>
      <trkpt lat="43.39677" lon="-1.45518">
        <ele>18</ele>
        <time>2026-08-23T14:31:41.000Z</time>
      </trkpt>
      <trkpt lat="43.39682" lon="-1.45544">
        <ele>18</ele>
        <time>2026-08-23T14:31:44.000Z</time>
      </trkpt>
      <trkpt lat="43.39681" lon="-1.4556">
        <ele>18</ele>
        <time>2026-08-23T14:31:46.000Z</time>
      </trkpt>
      <trkpt lat="43.39674" lon="-1.45575">
        <ele>19</ele>
        <time>2026-08-23T14:31:49.000Z</time>
      </trkpt>
      <trkpt lat="43.39664" lon="-1.45586">
        <ele>19</ele>
        <time>2026-08-23T14:31:51.000Z</time>
      </trkpt>
      <trkpt lat="43.39654" lon="-1.45588">
        <ele>19</ele>
        <time>2026-08-23T14:31:53.000Z</time>
      </trkpt>
      <trkpt lat="43.39601" lon="-1.45576">
        <ele>20</ele>
        <time>2026-08-23T14:32:02.000Z</time>
      </trkpt>
      <trkpt lat="43.39579" lon="-1.45579">
        <ele>21</ele>
        <time>2026-08-23T14:32:06.000Z</time>
      </trkpt>
      <trkpt lat="43.3952" lon="-1.45603">
        <ele>22</ele>
        <time>2026-08-23T14:32:17.000Z</time>
      </trkpt>
      <trkpt lat="43.39508" lon="-1.4561">
        <ele>22</ele>
        <time>2026-08-23T14:32:19.000Z</time>
      </trkpt>
      <trkpt lat="43.39497" lon="-1.45624">
        <ele>23</ele>
        <time>2026-08-23T14:32:22.000Z</time>
      </trkpt>
      <trkpt lat="43.3947" lon="-1.45682">
        <ele>23</ele>
        <time>2026-08-23T14:32:31.000Z</time>
      </trkpt>
      <trkpt lat="43.39449" lon="-1.45727">
        <ele>24</ele>
        <time>2026-08-23T14:32:38.000Z</time>
      </trkpt>
      <trkpt lat="43.39424" lon="-1.45803">
        <ele>28</ele>
        <time>2026-08-23T14:32:49.000Z</time>
      </trkpt>
      <trkpt lat="43.39412" lon="-1.45851">
        <ele>32</ele>
        <time>2026-08-23T14:32:55.000Z</time>
      </trkpt>
      <trkpt lat="43.39409" lon="-1.45882">
        <ele>36</ele>
        <time>2026-08-23T14:32:59.000Z</time>
      </trkpt>
      <trkpt lat="43.39409" lon="-1.45899">
        <ele>38</ele>
        <time>2026-08-23T14:33:01.000Z</time>
      </trkpt>
      <trkpt lat="43.39412" lon="-1.45914">
        <ele>39</ele>
        <time>2026-08-23T14:33:03.000Z</time>
      </trkpt>
      <trkpt lat="43.39424" lon="-1.45936">
        <ele>42</ele>
        <time>2026-08-23T14:33:07.000Z</time>
      </trkpt>
      <trkpt lat="43.39437" lon="-1.45946">
        <ele>42</ele>
        <time>2026-08-23T14:33:10.000Z</time>
      </trkpt>
      <trkpt lat="43.39443" lon="-1.45943">
        <ele>41</ele>
        <time>2026-08-23T14:33:11.000Z</time>
      </trkpt>
      <trkpt lat="43.39447" lon="-1.45937">
        <ele>40</ele>
        <time>2026-08-23T14:33:12.000Z</time>
      </trkpt>
      <trkpt lat="43.39447" lon="-1.45922">
        <ele>37</ele>
        <time>2026-08-23T14:33:14.000Z</time>
      </trkpt>
      <trkpt lat="43.39423" lon="-1.45886">
        <ele>35</ele>
        <time>2026-08-23T14:33:20.000Z</time>
      </trkpt>
      <trkpt lat="43.39399" lon="-1.45848">
        <ele>33</ele>
        <time>2026-08-23T14:33:27.000Z</time>
      </trkpt>
      <trkpt lat="43.39336" lon="-1.45748">
        <ele>31</ele>
        <time>2026-08-23T14:33:44.000Z</time>
      </trkpt>
      <trkpt lat="43.39239" lon="-1.45609">
        <ele>31</ele>
        <time>2026-08-23T14:34:09.000Z</time>
      </trkpt>
      <trkpt lat="43.39206" lon="-1.45573">
        <ele>31</ele>
        <time>2026-08-23T14:34:16.000Z</time>
      </trkpt>
      <trkpt lat="43.39208" lon="-1.45648">
        <ele>35</ele>
        <time>2026-08-23T14:34:26.000Z</time>
      </trkpt>
      <trkpt lat="43.39204" lon="-1.45664">
        <ele>37</ele>
        <time>2026-08-23T14:34:28.000Z</time>
      </trkpt>
      <trkpt lat="43.39203" lon="-1.45677">
        <ele>39</ele>
        <time>2026-08-23T14:34:30.000Z</time>
      </trkpt>
      <trkpt lat="43.39212" lon="-1.45709">
        <ele>43</ele>
        <time>2026-08-23T14:34:34.000Z</time>
      </trkpt>
      <trkpt lat="43.39213" lon="-1.45726">
        <ele>45</ele>
        <time>2026-08-23T14:34:36.000Z</time>
      </trkpt>
      <trkpt lat="43.39213" lon="-1.45731">
        <ele>46</ele>
        <time>2026-08-23T14:34:37.000Z</time>
      </trkpt>
      <trkpt lat="43.39218" lon="-1.45741">
        <ele>47</ele>
        <time>2026-08-23T14:34:39.000Z</time>
      </trkpt>
      <trkpt lat="43.39223" lon="-1.45747">
        <ele>47</ele>
        <time>2026-08-23T14:34:40.000Z</time>
      </trkpt>
      <trkpt lat="43.39246" lon="-1.4576">
        <ele>45</ele>
        <time>2026-08-23T14:34:44.000Z</time>
      </trkpt>
      <trkpt lat="43.39253" lon="-1.4577">
        <ele>45</ele>
        <time>2026-08-23T14:34:46.000Z</time>
      </trkpt>
      <trkpt lat="43.39255" lon="-1.45781">
        <ele>46</ele>
        <time>2026-08-23T14:34:47.000Z</time>
      </trkpt>
      <trkpt lat="43.39254" lon="-1.45788">
        <ele>47</ele>
        <time>2026-08-23T14:34:48.000Z</time>
      </trkpt>
      <trkpt lat="43.39237" lon="-1.45792">
        <ele>50</ele>
        <time>2026-08-23T14:34:51.000Z</time>
      </trkpt>
      <trkpt lat="43.39215" lon="-1.45806">
        <ele>54</ele>
        <time>2026-08-23T14:34:56.000Z</time>
      </trkpt>
      <trkpt lat="43.39173" lon="-1.45854">
        <ele>60</ele>
        <time>2026-08-23T14:35:05.000Z</time>
      </trkpt>
      <trkpt lat="43.39148" lon="-1.45873">
        <ele>60</ele>
        <time>2026-08-23T14:35:11.000Z</time>
      </trkpt>
      <trkpt lat="43.39138" lon="-1.45884">
        <ele>60</ele>
        <time>2026-08-23T14:35:13.000Z</time>
      </trkpt>
      <trkpt lat="43.39136" lon="-1.45896">
        <ele>61</ele>
        <time>2026-08-23T14:35:14.000Z</time>
      </trkpt>
      <trkpt lat="43.39114" lon="-1.45905">
        <ele>62</ele>
        <time>2026-08-23T14:35:19.000Z</time>
      </trkpt>
      <trkpt lat="43.39076" lon="-1.45936">
        <ele>63</ele>
        <time>2026-08-23T14:35:26.000Z</time>
      </trkpt>
      <trkpt lat="43.39028" lon="-1.45981">
        <ele>66</ele>
        <time>2026-08-23T14:35:37.000Z</time>
      </trkpt>
      <trkpt lat="43.39011" lon="-1.46">
        <ele>68</ele>
        <time>2026-08-23T14:35:41.000Z</time>
      </trkpt>
      <trkpt lat="43.38969" lon="-1.4607">
        <ele>72</ele>
        <time>2026-08-23T14:35:52.000Z</time>
      </trkpt>
      <trkpt lat="43.38948" lon="-1.46092">
        <ele>73</ele>
        <time>2026-08-23T14:35:57.000Z</time>
      </trkpt>
      <trkpt lat="43.38928" lon="-1.46105">
        <ele>75</ele>
        <time>2026-08-23T14:36:01.000Z</time>
      </trkpt>
      <trkpt lat="43.38911" lon="-1.46109">
        <ele>77</ele>
        <time>2026-08-23T14:36:04.000Z</time>
      </trkpt>
      <trkpt lat="43.38841" lon="-1.46095">
        <ele>86</ele>
        <time>2026-08-23T14:36:17.000Z</time>
      </trkpt>
      <trkpt lat="43.38819" lon="-1.46083">
        <ele>89</ele>
        <time>2026-08-23T14:36:21.000Z</time>
      </trkpt>
      <trkpt lat="43.38811" lon="-1.46076">
        <ele>90</ele>
        <time>2026-08-23T14:36:23.000Z</time>
      </trkpt>
      <trkpt lat="43.388" lon="-1.46061">
        <ele>91</ele>
        <time>2026-08-23T14:36:25.000Z</time>
      </trkpt>
      <trkpt lat="43.38753" lon="-1.45978">
        <ele>95</ele>
        <time>2026-08-23T14:36:39.000Z</time>
      </trkpt>
      <trkpt lat="43.38745" lon="-1.45961">
        <ele>96</ele>
        <time>2026-08-23T14:36:42.000Z</time>
      </trkpt>
      <trkpt lat="43.38724" lon="-1.4588">
        <ele>96</ele>
        <time>2026-08-23T14:36:53.000Z</time>
      </trkpt>
      <trkpt lat="43.38691" lon="-1.45817">
        <ele>93</ele>
        <time>2026-08-23T14:37:03.000Z</time>
      </trkpt>
      <trkpt lat="43.38677" lon="-1.45784">
        <ele>92</ele>
        <time>2026-08-23T14:37:08.000Z</time>
      </trkpt>
      <trkpt lat="43.38649" lon="-1.45702">
        <ele>89</ele>
        <time>2026-08-23T14:37:19.000Z</time>
      </trkpt>
      <trkpt lat="43.38638" lon="-1.45675">
        <ele>88</ele>
        <time>2026-08-23T14:37:23.000Z</time>
      </trkpt>
      <trkpt lat="43.38622" lon="-1.45654">
        <ele>85</ele>
        <time>2026-08-23T14:37:27.000Z</time>
      </trkpt>
      <trkpt lat="43.38609" lon="-1.45644">
        <ele>83</ele>
        <time>2026-08-23T14:37:30.000Z</time>
      </trkpt>
      <trkpt lat="43.38592" lon="-1.45636">
        <ele>81</ele>
        <time>2026-08-23T14:37:33.000Z</time>
      </trkpt>
      <trkpt lat="43.38526" lon="-1.45614">
        <ele>80</ele>
        <time>2026-08-23T14:37:45.000Z</time>
      </trkpt>
      <trkpt lat="43.38294" lon="-1.45564">
        <ele>84</ele>
        <time>2026-08-23T14:38:27.000Z</time>
      </trkpt>
      <trkpt lat="43.38264" lon="-1.45555">
        <ele>83</ele>
        <time>2026-08-23T14:38:32.000Z</time>
      </trkpt>
      <trkpt lat="43.3825" lon="-1.4555">
        <ele>83</ele>
        <time>2026-08-23T14:38:35.000Z</time>
      </trkpt>
      <trkpt lat="43.38157" lon="-1.45502">
        <ele>85</ele>
        <time>2026-08-23T14:38:53.000Z</time>
      </trkpt>
      <trkpt lat="43.38089" lon="-1.45473">
        <ele>89</ele>
        <time>2026-08-23T14:39:05.000Z</time>
      </trkpt>
      <trkpt lat="43.38076" lon="-1.45474">
        <ele>90</ele>
        <time>2026-08-23T14:39:08.000Z</time>
      </trkpt>
      <trkpt lat="43.38056" lon="-1.45487">
        <ele>92</ele>
        <time>2026-08-23T14:39:12.000Z</time>
      </trkpt>
      <trkpt lat="43.38036" lon="-1.45508">
        <ele>93</ele>
        <time>2026-08-23T14:39:16.000Z</time>
      </trkpt>
      <trkpt lat="43.38028" lon="-1.45525">
        <ele>94</ele>
        <time>2026-08-23T14:39:19.000Z</time>
      </trkpt>
      <trkpt lat="43.38018" lon="-1.45568">
        <ele>94</ele>
        <time>2026-08-23T14:39:25.000Z</time>
      </trkpt>
      <trkpt lat="43.38001" lon="-1.45675">
        <ele>93</ele>
        <time>2026-08-23T14:39:39.000Z</time>
      </trkpt>
      <trkpt lat="43.37995" lon="-1.45698">
        <ele>93</ele>
        <time>2026-08-23T14:39:42.000Z</time>
      </trkpt>
      <trkpt lat="43.37989" lon="-1.45716">
        <ele>92</ele>
        <time>2026-08-23T14:39:44.000Z</time>
      </trkpt>
      <trkpt lat="43.37951" lon="-1.45792">
        <ele>92</ele>
        <time>2026-08-23T14:39:56.000Z</time>
      </trkpt>
      <trkpt lat="43.37854" lon="-1.45984">
        <ele>93</ele>
        <time>2026-08-23T14:40:27.000Z</time>
      </trkpt>
      <trkpt lat="43.37835" lon="-1.46014">
        <ele>94</ele>
        <time>2026-08-23T14:40:32.000Z</time>
      </trkpt>
      <trkpt lat="43.37814" lon="-1.46042">
        <ele>93</ele>
        <time>2026-08-23T14:40:37.000Z</time>
      </trkpt>
      <trkpt lat="43.37727" lon="-1.46137">
        <ele>90</ele>
        <time>2026-08-23T14:40:57.000Z</time>
      </trkpt>
      <trkpt lat="43.37693" lon="-1.46183">
        <ele>88</ele>
        <time>2026-08-23T14:41:05.000Z</time>
      </trkpt>
      <trkpt lat="43.37675" lon="-1.46201">
        <ele>88</ele>
        <time>2026-08-23T14:41:09.000Z</time>
      </trkpt>
      <trkpt lat="43.37653" lon="-1.46213">
        <ele>88</ele>
        <time>2026-08-23T14:41:13.000Z</time>
      </trkpt>
      <trkpt lat="43.37633" lon="-1.4622">
        <ele>88</ele>
        <time>2026-08-23T14:41:17.000Z</time>
      </trkpt>
      <trkpt lat="43.37293" lon="-1.46283">
        <ele>98</ele>
        <time>2026-08-23T14:42:18.000Z</time>
      </trkpt>
      <trkpt lat="43.37246" lon="-1.46294">
        <ele>98</ele>
        <time>2026-08-23T14:42:27.000Z</time>
      </trkpt>
      <trkpt lat="43.37193" lon="-1.46312">
        <ele>97</ele>
        <time>2026-08-23T14:42:36.000Z</time>
      </trkpt>
      <trkpt lat="43.3705" lon="-1.46371">
        <ele>100</ele>
        <time>2026-08-23T14:43:03.000Z</time>
      </trkpt>
      <trkpt lat="43.37014" lon="-1.46384">
        <ele>102</ele>
        <time>2026-08-23T14:43:09.000Z</time>
      </trkpt>
      <trkpt lat="43.36963" lon="-1.46399">
        <ele>104</ele>
        <time>2026-08-23T14:43:19.000Z</time>
      </trkpt>
      <trkpt lat="43.36859" lon="-1.46424">
        <ele>110</ele>
        <time>2026-08-23T14:43:38.000Z</time>
      </trkpt>
      <trkpt lat="43.36815" lon="-1.46425">
        <ele>112</ele>
        <time>2026-08-23T14:43:45.000Z</time>
      </trkpt>
      <trkpt lat="43.36801" lon="-1.4643">
        <ele>112</ele>
        <time>2026-08-23T14:43:48.000Z</time>
      </trkpt>
      <trkpt lat="43.36786" lon="-1.46442">
        <ele>112</ele>
        <time>2026-08-23T14:43:51.000Z</time>
      </trkpt>
      <trkpt lat="43.36773" lon="-1.46461">
        <ele>112</ele>
        <time>2026-08-23T14:43:54.000Z</time>
      </trkpt>
      <trkpt lat="43.3676" lon="-1.46486">
        <ele>112</ele>
        <time>2026-08-23T14:43:58.000Z</time>
      </trkpt>
      <trkpt lat="43.36735" lon="-1.46518">
        <ele>112</ele>
        <time>2026-08-23T14:44:04.000Z</time>
      </trkpt>
      <trkpt lat="43.36687" lon="-1.46568">
        <ele>109</ele>
        <time>2026-08-23T14:44:15.000Z</time>
      </trkpt>
      <trkpt lat="43.36655" lon="-1.46596">
        <ele>106</ele>
        <time>2026-08-23T14:44:22.000Z</time>
      </trkpt>
      <trkpt lat="43.36575" lon="-1.46647">
        <ele>105</ele>
        <time>2026-08-23T14:44:38.000Z</time>
      </trkpt>
      <trkpt lat="43.36563" lon="-1.46657">
        <ele>105</ele>
        <time>2026-08-23T14:44:40.000Z</time>
      </trkpt>
      <trkpt lat="43.36544" lon="-1.46681">
        <ele>106</ele>
        <time>2026-08-23T14:44:45.000Z</time>
      </trkpt>
      <trkpt lat="43.36483" lon="-1.46771">
        <ele>115</ele>
        <time>2026-08-23T14:45:01.000Z</time>
      </trkpt>
      <trkpt lat="43.36458" lon="-1.46801">
        <ele>119</ele>
        <time>2026-08-23T14:45:06.000Z</time>
      </trkpt>
      <trkpt lat="43.36431" lon="-1.46827">
        <ele>124</ele>
        <time>2026-08-23T14:45:12.000Z</time>
      </trkpt>
      <trkpt lat="43.36409" lon="-1.4684">
        <ele>126</ele>
        <time>2026-08-23T14:45:17.000Z</time>
      </trkpt>
      <trkpt lat="43.36383" lon="-1.46848">
        <ele>127</ele>
        <time>2026-08-23T14:45:21.000Z</time>
      </trkpt>
      <trkpt lat="43.36347" lon="-1.46852">
        <ele>128</ele>
        <time>2026-08-23T14:45:28.000Z</time>
      </trkpt>
      <trkpt lat="43.36332" lon="-1.46856">
        <ele>129</ele>
        <time>2026-08-23T14:45:31.000Z</time>
      </trkpt>
      <trkpt lat="43.36314" lon="-1.46868">
        <ele>128</ele>
        <time>2026-08-23T14:45:34.000Z</time>
      </trkpt>
      <trkpt lat="43.36298" lon="-1.46893">
        <ele>127</ele>
        <time>2026-08-23T14:45:38.000Z</time>
      </trkpt>
      <trkpt lat="43.36275" lon="-1.46956">
        <ele>123</ele>
        <time>2026-08-23T14:45:47.000Z</time>
      </trkpt>
      <trkpt lat="43.36241" lon="-1.47025">
        <ele>122</ele>
        <time>2026-08-23T14:45:58.000Z</time>
      </trkpt>
      <trkpt lat="43.36233" lon="-1.47053">
        <ele>122</ele>
        <time>2026-08-23T14:46:02.000Z</time>
      </trkpt>
      <trkpt lat="43.36227" lon="-1.47084">
        <ele>122</ele>
        <time>2026-08-23T14:46:06.000Z</time>
      </trkpt>
      <trkpt lat="43.36223" lon="-1.47119">
        <ele>122</ele>
        <time>2026-08-23T14:46:11.000Z</time>
      </trkpt>
      <trkpt lat="43.36222" lon="-1.47142">
        <ele>123</ele>
        <time>2026-08-23T14:46:14.000Z</time>
      </trkpt>
      <trkpt lat="43.36239" lon="-1.47248">
        <ele>127</ele>
        <time>2026-08-23T14:46:28.000Z</time>
      </trkpt>
      <trkpt lat="43.36237" lon="-1.47273">
        <ele>127</ele>
        <time>2026-08-23T14:46:31.000Z</time>
      </trkpt>
      <trkpt lat="43.36229" lon="-1.47309">
        <ele>126</ele>
        <time>2026-08-23T14:46:36.000Z</time>
      </trkpt>
      <trkpt lat="43.36215" lon="-1.47333">
        <ele>127</ele>
        <time>2026-08-23T14:46:40.000Z</time>
      </trkpt>
      <trkpt lat="43.36189" lon="-1.47369">
        <ele>128</ele>
        <time>2026-08-23T14:46:47.000Z</time>
      </trkpt>
      <trkpt lat="43.36171" lon="-1.47396">
        <ele>131</ele>
        <time>2026-08-23T14:46:51.000Z</time>
      </trkpt>
      <trkpt lat="43.36162" lon="-1.47422">
        <ele>133</ele>
        <time>2026-08-23T14:46:55.000Z</time>
      </trkpt>
      <trkpt lat="43.36146" lon="-1.4749">
        <ele>135</ele>
        <time>2026-08-23T14:47:04.000Z</time>
      </trkpt>
      <trkpt lat="43.36136" lon="-1.47512">
        <ele>135</ele>
        <time>2026-08-23T14:47:08.000Z</time>
      </trkpt>
      <trkpt lat="43.36121" lon="-1.47528">
        <ele>136</ele>
        <time>2026-08-23T14:47:11.000Z</time>
      </trkpt>
      <trkpt lat="43.36101" lon="-1.47537">
        <ele>137</ele>
        <time>2026-08-23T14:47:15.000Z</time>
      </trkpt>
      <trkpt lat="43.36103" lon="-1.47556">
        <ele>136</ele>
        <time>2026-08-23T14:47:17.000Z</time>
      </trkpt>
      <trkpt lat="43.36102" lon="-1.47571">
        <ele>135</ele>
        <time>2026-08-23T14:47:19.000Z</time>
      </trkpt>
      <trkpt lat="43.36033" lon="-1.47748">
        <ele>126</ele>
        <time>2026-08-23T14:47:45.000Z</time>
      </trkpt>
      <trkpt lat="43.36023" lon="-1.47777">
        <ele>129</ele>
        <time>2026-08-23T14:47:49.000Z</time>
      </trkpt>
      <trkpt lat="43.36021" lon="-1.47798">
        <ele>131</ele>
        <time>2026-08-23T14:47:52.000Z</time>
      </trkpt>
      <trkpt lat="43.36024" lon="-1.47824">
        <ele>132</ele>
        <time>2026-08-23T14:47:55.000Z</time>
      </trkpt>
      <trkpt lat="43.36048" lon="-1.47908">
        <ele>138</ele>
        <time>2026-08-23T14:48:07.000Z</time>
      </trkpt>
      <trkpt lat="43.36054" lon="-1.47934">
        <ele>138</ele>
        <time>2026-08-23T14:48:11.000Z</time>
      </trkpt>
      <trkpt lat="43.36056" lon="-1.47967">
        <ele>138</ele>
        <time>2026-08-23T14:48:15.000Z</time>
      </trkpt>
      <trkpt lat="43.36055" lon="-1.48045">
        <ele>136</ele>
        <time>2026-08-23T14:48:25.000Z</time>
      </trkpt>
      <trkpt lat="43.36058" lon="-1.48161">
        <ele>135</ele>
        <time>2026-08-23T14:48:40.000Z</time>
      </trkpt>
      <trkpt lat="43.36054" lon="-1.48189">
        <ele>137</ele>
        <time>2026-08-23T14:48:44.000Z</time>
      </trkpt>
      <trkpt lat="43.36046" lon="-1.48208">
        <ele>139</ele>
        <time>2026-08-23T14:48:47.000Z</time>
      </trkpt>
      <trkpt lat="43.36022" lon="-1.48235">
        <ele>143</ele>
        <time>2026-08-23T14:48:52.000Z</time>
      </trkpt>
      <trkpt lat="43.36009" lon="-1.48245">
        <ele>145</ele>
        <time>2026-08-23T14:48:55.000Z</time>
      </trkpt>
      <trkpt lat="43.35993" lon="-1.48261">
        <ele>146</ele>
        <time>2026-08-23T14:48:58.000Z</time>
      </trkpt>
      <trkpt lat="43.35957" lon="-1.48319">
        <ele>149</ele>
        <time>2026-08-23T14:49:08.000Z</time>
      </trkpt>
      <trkpt lat="43.35942" lon="-1.48348">
        <ele>150</ele>
        <time>2026-08-23T14:49:13.000Z</time>
      </trkpt>
      <trkpt lat="43.35931" lon="-1.48376">
        <ele>152</ele>
        <time>2026-08-23T14:49:17.000Z</time>
      </trkpt>
      <trkpt lat="43.35921" lon="-1.48405">
        <ele>154</ele>
        <time>2026-08-23T14:49:21.000Z</time>
      </trkpt>
      <trkpt lat="43.35912" lon="-1.4846">
        <ele>158</ele>
        <time>2026-08-23T14:49:28.000Z</time>
      </trkpt>
      <trkpt lat="43.3591" lon="-1.48507">
        <ele>160</ele>
        <time>2026-08-23T14:49:34.000Z</time>
      </trkpt>
      <trkpt lat="43.35914" lon="-1.48545">
        <ele>161</ele>
        <time>2026-08-23T14:49:39.000Z</time>
      </trkpt>
      <trkpt lat="43.35935" lon="-1.48631">
        <ele>155</ele>
        <time>2026-08-23T14:49:51.000Z</time>
      </trkpt>
      <trkpt lat="43.35937" lon="-1.48661">
        <ele>151</ele>
        <time>2026-08-23T14:49:55.000Z</time>
      </trkpt>
      <trkpt lat="43.35935" lon="-1.48687">
        <ele>148</ele>
        <time>2026-08-23T14:49:58.000Z</time>
      </trkpt>
      <trkpt lat="43.35929" lon="-1.48725">
        <ele>145</ele>
        <time>2026-08-23T14:50:03.000Z</time>
      </trkpt>
      <trkpt lat="43.35921" lon="-1.48749">
        <ele>144</ele>
        <time>2026-08-23T14:50:07.000Z</time>
      </trkpt>
      <trkpt lat="43.359" lon="-1.48786">
        <ele>138</ele>
        <time>2026-08-23T14:50:13.000Z</time>
      </trkpt>
      <trkpt lat="43.35871" lon="-1.48827">
        <ele>133</ele>
        <time>2026-08-23T14:50:20.000Z</time>
      </trkpt>
      <trkpt lat="43.35824" lon="-1.48879">
        <ele>131</ele>
        <time>2026-08-23T14:50:31.000Z</time>
      </trkpt>
      <trkpt lat="43.35775" lon="-1.4894">
        <ele>134</ele>
        <time>2026-08-23T14:50:43.000Z</time>
      </trkpt>
      <trkpt lat="43.35742" lon="-1.48993">
        <ele>139</ele>
        <time>2026-08-23T14:50:52.000Z</time>
      </trkpt>
      <trkpt lat="43.35725" lon="-1.49017">
        <ele>137</ele>
        <time>2026-08-23T14:50:56.000Z</time>
      </trkpt>
      <trkpt lat="43.35683" lon="-1.49055">
        <ele>131</ele>
        <time>2026-08-23T14:51:05.000Z</time>
      </trkpt>
      <trkpt lat="43.35557" lon="-1.49151">
        <ele>122</ele>
        <time>2026-08-23T14:51:31.000Z</time>
      </trkpt>
      <trkpt lat="43.35541" lon="-1.49175">
        <ele>122</ele>
        <time>2026-08-23T14:51:35.000Z</time>
      </trkpt>
      <trkpt lat="43.35536" lon="-1.49198">
        <ele>122</ele>
        <time>2026-08-23T14:51:38.000Z</time>
      </trkpt>
      <trkpt lat="43.35538" lon="-1.49228">
        <ele>122</ele>
        <time>2026-08-23T14:51:42.000Z</time>
      </trkpt>
      <trkpt lat="43.35545" lon="-1.49253">
        <ele>122</ele>
        <time>2026-08-23T14:51:45.000Z</time>
      </trkpt>
      <trkpt lat="43.35576" lon="-1.49328">
        <ele>126</ele>
        <time>2026-08-23T14:51:57.000Z</time>
      </trkpt>
      <trkpt lat="43.35583" lon="-1.4935">
        <ele>127</ele>
        <time>2026-08-23T14:52:00.000Z</time>
      </trkpt>
      <trkpt lat="43.35586" lon="-1.49377">
        <ele>126</ele>
        <time>2026-08-23T14:52:03.000Z</time>
      </trkpt>
      <trkpt lat="43.35586" lon="-1.49415">
        <ele>125</ele>
        <time>2026-08-23T14:52:08.000Z</time>
      </trkpt>
      <trkpt lat="43.3558" lon="-1.49452">
        <ele>124</ele>
        <time>2026-08-23T14:52:13.000Z</time>
      </trkpt>
      <trkpt lat="43.35569" lon="-1.49489">
        <ele>122</ele>
        <time>2026-08-23T14:52:18.000Z</time>
      </trkpt>
      <trkpt lat="43.35551" lon="-1.49538">
        <ele>122</ele>
        <time>2026-08-23T14:52:25.000Z</time>
      </trkpt>
      <trkpt lat="43.35511" lon="-1.4963">
        <ele>128</ele>
        <time>2026-08-23T14:52:39.000Z</time>
      </trkpt>
      <trkpt lat="43.35484" lon="-1.49707">
        <ele>131</ele>
        <time>2026-08-23T14:52:50.000Z</time>
      </trkpt>
      <trkpt lat="43.35481" lon="-1.49741">
        <ele>131</ele>
        <time>2026-08-23T14:52:55.000Z</time>
      </trkpt>
      <trkpt lat="43.35481" lon="-1.49802">
        <ele>129</ele>
        <time>2026-08-23T14:53:03.000Z</time>
      </trkpt>
      <trkpt lat="43.35477" lon="-1.49842">
        <ele>128</ele>
        <time>2026-08-23T14:53:08.000Z</time>
      </trkpt>
      <trkpt lat="43.35437" lon="-1.50056">
        <ele>107</ele>
        <time>2026-08-23T14:53:36.000Z</time>
      </trkpt>
      <trkpt lat="43.35428" lon="-1.50091">
        <ele>105</ele>
        <time>2026-08-23T14:53:41.000Z</time>
      </trkpt>
      <trkpt lat="43.35427" lon="-1.50127">
        <ele>106</ele>
        <time>2026-08-23T14:53:46.000Z</time>
      </trkpt>
      <trkpt lat="43.35441" lon="-1.50246">
        <ele>105</ele>
        <time>2026-08-23T14:54:01.000Z</time>
      </trkpt>
      <trkpt lat="43.35447" lon="-1.50285">
        <ele>105</ele>
        <time>2026-08-23T14:54:07.000Z</time>
      </trkpt>
      <trkpt lat="43.35483" lon="-1.50418">
        <ele>108</ele>
        <time>2026-08-23T14:54:25.000Z</time>
      </trkpt>
      <trkpt lat="43.35492" lon="-1.5049">
        <ele>110</ele>
        <time>2026-08-23T14:54:34.000Z</time>
      </trkpt>
      <trkpt lat="43.35488" lon="-1.50558">
        <ele>111</ele>
        <time>2026-08-23T14:54:43.000Z</time>
      </trkpt>
      <trkpt lat="43.35475" lon="-1.50713">
        <ele>110</ele>
        <time>2026-08-23T14:55:03.000Z</time>
      </trkpt>
      <trkpt lat="43.35471" lon="-1.50778">
        <ele>111</ele>
        <time>2026-08-23T14:55:12.000Z</time>
      </trkpt>
      <trkpt lat="43.35475" lon="-1.5081">
        <ele>112</ele>
        <time>2026-08-23T14:55:16.000Z</time>
      </trkpt>
      <trkpt lat="43.35482" lon="-1.5084">
        <ele>114</ele>
        <time>2026-08-23T14:55:20.000Z</time>
      </trkpt>
      <trkpt lat="43.35492" lon="-1.50867">
        <ele>115</ele>
        <time>2026-08-23T14:55:24.000Z</time>
      </trkpt>
      <trkpt lat="43.35504" lon="-1.50891">
        <ele>116</ele>
        <time>2026-08-23T14:55:28.000Z</time>
      </trkpt>
      <trkpt lat="43.3552" lon="-1.50909">
        <ele>115</ele>
        <time>2026-08-23T14:55:32.000Z</time>
      </trkpt>
      <trkpt lat="43.35537" lon="-1.50921">
        <ele>114</ele>
        <time>2026-08-23T14:55:35.000Z</time>
      </trkpt>
      <trkpt lat="43.35594" lon="-1.50947">
        <ele>109</ele>
        <time>2026-08-23T14:55:46.000Z</time>
      </trkpt>
      <trkpt lat="43.35614" lon="-1.50959">
        <ele>107</ele>
        <time>2026-08-23T14:55:49.000Z</time>
      </trkpt>
      <trkpt lat="43.35634" lon="-1.50977">
        <ele>106</ele>
        <time>2026-08-23T14:55:54.000Z</time>
      </trkpt>
      <trkpt lat="43.35662" lon="-1.5101">
        <ele>106</ele>
        <time>2026-08-23T14:56:00.000Z</time>
      </trkpt>
      <trkpt lat="43.35674" lon="-1.5103">
        <ele>106</ele>
        <time>2026-08-23T14:56:04.000Z</time>
      </trkpt>
      <trkpt lat="43.35766" lon="-1.51227">
        <ele>112</ele>
        <time>2026-08-23T14:56:34.000Z</time>
      </trkpt>
      <trkpt lat="43.35789" lon="-1.51276">
        <ele>112</ele>
        <time>2026-08-23T14:56:41.000Z</time>
      </trkpt>
      <trkpt lat="43.35796" lon="-1.5131">
        <ele>110</ele>
        <time>2026-08-23T14:56:46.000Z</time>
      </trkpt>
      <trkpt lat="43.35799" lon="-1.51366">
        <ele>105</ele>
        <time>2026-08-23T14:56:53.000Z</time>
      </trkpt>
      <trkpt lat="43.35778" lon="-1.51413">
        <ele>100</ele>
        <time>2026-08-23T14:57:00.000Z</time>
      </trkpt>
      <trkpt lat="43.3575" lon="-1.51446">
        <ele>99</ele>
        <time>2026-08-23T14:57:07.000Z</time>
      </trkpt>
      <trkpt lat="43.35725" lon="-1.51466">
        <ele>97</ele>
        <time>2026-08-23T14:57:12.000Z</time>
      </trkpt>
      <trkpt lat="43.35706" lon="-1.51468">
        <ele>97</ele>
        <time>2026-08-23T14:57:16.000Z</time>
      </trkpt>
      <trkpt lat="43.35551" lon="-1.51457">
        <ele>94</ele>
        <time>2026-08-23T14:57:43.000Z</time>
      </trkpt>
      <trkpt lat="43.35528" lon="-1.51464">
        <ele>95</ele>
        <time>2026-08-23T14:57:47.000Z</time>
      </trkpt>
      <trkpt lat="43.3551" lon="-1.51482">
        <ele>97</ele>
        <time>2026-08-23T14:57:51.000Z</time>
      </trkpt>
      <trkpt lat="43.35496" lon="-1.51503">
        <ele>101</ele>
        <time>2026-08-23T14:57:55.000Z</time>
      </trkpt>
      <trkpt lat="43.35485" lon="-1.51529">
        <ele>104</ele>
        <time>2026-08-23T14:57:59.000Z</time>
      </trkpt>
      <trkpt lat="43.35479" lon="-1.51555">
        <ele>108</ele>
        <time>2026-08-23T14:58:02.000Z</time>
      </trkpt>
      <trkpt lat="43.35476" lon="-1.51613">
        <ele>110</ele>
        <time>2026-08-23T14:58:10.000Z</time>
      </trkpt>
      <trkpt lat="43.35473" lon="-1.51634">
        <ele>110</ele>
        <time>2026-08-23T14:58:13.000Z</time>
      </trkpt>
      <trkpt lat="43.3546" lon="-1.51657">
        <ele>111</ele>
        <time>2026-08-23T14:58:16.000Z</time>
      </trkpt>
      <trkpt lat="43.35444" lon="-1.51678">
        <ele>112</ele>
        <time>2026-08-23T14:58:20.000Z</time>
      </trkpt>
      <trkpt lat="43.35425" lon="-1.51696">
        <ele>112</ele>
        <time>2026-08-23T14:58:25.000Z</time>
      </trkpt>
      <trkpt lat="43.35406" lon="-1.51709">
        <ele>111</ele>
        <time>2026-08-23T14:58:28.000Z</time>
      </trkpt>
      <trkpt lat="43.35386" lon="-1.51717">
        <ele>108</ele>
        <time>2026-08-23T14:58:32.000Z</time>
      </trkpt>
      <trkpt lat="43.35362" lon="-1.51719">
        <ele>106</ele>
        <time>2026-08-23T14:58:36.000Z</time>
      </trkpt>
      <trkpt lat="43.35339" lon="-1.51712">
        <ele>105</ele>
        <time>2026-08-23T14:58:40.000Z</time>
      </trkpt>
      <trkpt lat="43.35297" lon="-1.51689">
        <ele>104</ele>
        <time>2026-08-23T14:58:49.000Z</time>
      </trkpt>
      <trkpt lat="43.35274" lon="-1.5169">
        <ele>102</ele>
        <time>2026-08-23T14:58:53.000Z</time>
      </trkpt>
      <trkpt lat="43.35256" lon="-1.517">
        <ele>100</ele>
        <time>2026-08-23T14:58:56.000Z</time>
      </trkpt>
      <trkpt lat="43.35213" lon="-1.51752">
        <ele>97</ele>
        <time>2026-08-23T14:59:06.000Z</time>
      </trkpt>
      <trkpt lat="43.35184" lon="-1.51776">
        <ele>95</ele>
        <time>2026-08-23T14:59:12.000Z</time>
      </trkpt>
      <trkpt lat="43.35157" lon="-1.51789">
        <ele>93</ele>
        <time>2026-08-23T14:59:17.000Z</time>
      </trkpt>
      <trkpt lat="43.35126" lon="-1.51793">
        <ele>91</ele>
        <time>2026-08-23T14:59:23.000Z</time>
      </trkpt>
      <trkpt lat="43.35116" lon="-1.51791">
        <ele>90</ele>
        <time>2026-08-23T14:59:25.000Z</time>
      </trkpt>
      <trkpt lat="43.35097" lon="-1.51786">
        <ele>89</ele>
        <time>2026-08-23T14:59:28.000Z</time>
      </trkpt>
      <trkpt lat="43.35068" lon="-1.51768">
        <ele>88</ele>
        <time>2026-08-23T14:59:34.000Z</time>
      </trkpt>
      <trkpt lat="43.35014" lon="-1.51728">
        <ele>85</ele>
        <time>2026-08-23T14:59:45.000Z</time>
      </trkpt>
      <trkpt lat="43.34996" lon="-1.5173">
        <ele>86</ele>
        <time>2026-08-23T14:59:48.000Z</time>
      </trkpt>
      <trkpt lat="43.34974" lon="-1.51737">
        <ele>87</ele>
        <time>2026-08-23T14:59:52.000Z</time>
      </trkpt>
      <trkpt lat="43.34946" lon="-1.51734">
        <ele>87</ele>
        <time>2026-08-23T14:59:57.000Z</time>
      </trkpt>
      <trkpt lat="43.34928" lon="-1.5172">
        <ele>86</ele>
        <time>2026-08-23T15:00:01.000Z</time>
      </trkpt>
      <trkpt lat="43.34903" lon="-1.51688">
        <ele>82</ele>
        <time>2026-08-23T15:00:07.000Z</time>
      </trkpt>
      <trkpt lat="43.34893" lon="-1.51683">
        <ele>80</ele>
        <time>2026-08-23T15:00:09.000Z</time>
      </trkpt>
      <trkpt lat="43.34884" lon="-1.51687">
        <ele>79</ele>
        <time>2026-08-23T15:00:10.000Z</time>
      </trkpt>
      <trkpt lat="43.34875" lon="-1.51695">
        <ele>78</ele>
        <time>2026-08-23T15:00:12.000Z</time>
      </trkpt>
      <trkpt lat="43.34866" lon="-1.51707">
        <ele>77</ele>
        <time>2026-08-23T15:00:14.000Z</time>
      </trkpt>
      <trkpt lat="43.34859" lon="-1.51726">
        <ele>77</ele>
        <time>2026-08-23T15:00:17.000Z</time>
      </trkpt>
      <trkpt lat="43.34842" lon="-1.5181">
        <ele>75</ele>
        <time>2026-08-23T15:00:28.000Z</time>
      </trkpt>
      <trkpt lat="43.34806" lon="-1.51929">
        <ele>65</ele>
        <time>2026-08-23T15:00:45.000Z</time>
      </trkpt>
      <trkpt lat="43.34806" lon="-1.51947">
        <ele>63</ele>
        <time>2026-08-23T15:00:47.000Z</time>
      </trkpt>
      <trkpt lat="43.34806" lon="-1.51951">
        <ele>63</ele>
        <time>2026-08-23T15:00:48.000Z</time>
      </trkpt>
      <trkpt lat="43.34814" lon="-1.51966">
        <ele>63</ele>
        <time>2026-08-23T15:00:50.000Z</time>
      </trkpt>
      <trkpt lat="43.34826" lon="-1.51975">
        <ele>63</ele>
        <time>2026-08-23T15:00:53.000Z</time>
      </trkpt>
      <trkpt lat="43.3484" lon="-1.51973">
        <ele>65</ele>
        <time>2026-08-23T15:00:55.000Z</time>
      </trkpt>
      <trkpt lat="43.34861" lon="-1.51957">
        <ele>69</ele>
        <time>2026-08-23T15:01:00.000Z</time>
      </trkpt>
      <trkpt lat="43.34874" lon="-1.51958">
        <ele>70</ele>
        <time>2026-08-23T15:01:02.000Z</time>
      </trkpt>
      <trkpt lat="43.34904" lon="-1.51988">
        <ele>68</ele>
        <time>2026-08-23T15:01:09.000Z</time>
      </trkpt>
      <trkpt lat="43.34932" lon="-1.52047">
        <ele>59</ele>
        <time>2026-08-23T15:01:18.000Z</time>
      </trkpt>
      <trkpt lat="43.34991" lon="-1.52117">
        <ele>51</ele>
        <time>2026-08-23T15:01:32.000Z</time>
      </trkpt>
      <trkpt lat="43.35002" lon="-1.52136">
        <ele>50</ele>
        <time>2026-08-23T15:01:35.000Z</time>
      </trkpt>
      <trkpt lat="43.3501" lon="-1.52158">
        <ele>49</ele>
        <time>2026-08-23T15:01:38.000Z</time>
      </trkpt>
      <trkpt lat="43.35028" lon="-1.52184">
        <ele>50</ele>
        <time>2026-08-23T15:01:42.000Z</time>
      </trkpt>
      <trkpt lat="43.35031" lon="-1.52193">
        <ele>51</ele>
        <time>2026-08-23T15:01:44.000Z</time>
      </trkpt>
      <trkpt lat="43.35031" lon="-1.5221">
        <ele>51</ele>
        <time>2026-08-23T15:01:46.000Z</time>
      </trkpt>
      <trkpt lat="43.35028" lon="-1.52223">
        <ele>51</ele>
        <time>2026-08-23T15:01:48.000Z</time>
      </trkpt>
      <trkpt lat="43.3502" lon="-1.52232">
        <ele>52</ele>
        <time>2026-08-23T15:01:50.000Z</time>
      </trkpt>
      <trkpt lat="43.35012" lon="-1.52236">
        <ele>52</ele>
        <time>2026-08-23T15:01:51.000Z</time>
      </trkpt>
      <trkpt lat="43.35003" lon="-1.52237">
        <ele>52</ele>
        <time>2026-08-23T15:01:53.000Z</time>
      </trkpt>
      <trkpt lat="43.34959" lon="-1.52229">
        <ele>51</ele>
        <time>2026-08-23T15:02:01.000Z</time>
      </trkpt>
      <trkpt lat="43.34938" lon="-1.5223">
        <ele>52</ele>
        <time>2026-08-23T15:02:04.000Z</time>
      </trkpt>
      <trkpt lat="43.34917" lon="-1.52228">
        <ele>51</ele>
        <time>2026-08-23T15:02:08.000Z</time>
      </trkpt>
      <trkpt lat="43.34901" lon="-1.52223">
        <ele>51</ele>
        <time>2026-08-23T15:02:11.000Z</time>
      </trkpt>
      <trkpt lat="43.34842" lon="-1.52188">
        <ele>50</ele>
        <time>2026-08-23T15:02:22.000Z</time>
      </trkpt>
      <trkpt lat="43.3481" lon="-1.5218">
        <ele>48</ele>
        <time>2026-08-23T15:02:28.000Z</time>
      </trkpt>
      <trkpt lat="43.34779" lon="-1.52181">
        <ele>48</ele>
        <time>2026-08-23T15:02:34.000Z</time>
      </trkpt>
      <trkpt lat="43.34768" lon="-1.52185">
        <ele>47</ele>
        <time>2026-08-23T15:02:36.000Z</time>
      </trkpt>
      <trkpt lat="43.3476" lon="-1.52192">
        <ele>47</ele>
        <time>2026-08-23T15:02:37.000Z</time>
      </trkpt>
      <trkpt lat="43.34748" lon="-1.52211">
        <ele>48</ele>
        <time>2026-08-23T15:02:41.000Z</time>
      </trkpt>
      <trkpt lat="43.34719" lon="-1.52292">
        <ele>51</ele>
        <time>2026-08-23T15:02:52.000Z</time>
      </trkpt>
      <trkpt lat="43.3467" lon="-1.52387">
        <ele>52</ele>
        <time>2026-08-23T15:03:07.000Z</time>
      </trkpt>
      <trkpt lat="43.3466" lon="-1.52415">
        <ele>52</ele>
        <time>2026-08-23T15:03:11.000Z</time>
      </trkpt>
      <trkpt lat="43.34654" lon="-1.52443">
        <ele>52</ele>
        <time>2026-08-23T15:03:15.000Z</time>
      </trkpt>
      <trkpt lat="43.34647" lon="-1.52486">
        <ele>52</ele>
        <time>2026-08-23T15:03:21.000Z</time>
      </trkpt>
      <trkpt lat="43.34639" lon="-1.52549">
        <ele>52</ele>
        <time>2026-08-23T15:03:29.000Z</time>
      </trkpt>
      <trkpt lat="43.34636" lon="-1.5257">
        <ele>52</ele>
        <time>2026-08-23T15:03:32.000Z</time>
      </trkpt>
      <trkpt lat="43.34624" lon="-1.52593">
        <ele>52</ele>
        <time>2026-08-23T15:03:36.000Z</time>
      </trkpt>
      <trkpt lat="43.34619" lon="-1.52599">
        <ele>52</ele>
        <time>2026-08-23T15:03:37.000Z</time>
      </trkpt>
      <trkpt lat="43.34609" lon="-1.52606">
        <ele>51</ele>
        <time>2026-08-23T15:03:39.000Z</time>
      </trkpt>
      <trkpt lat="43.34577" lon="-1.52612">
        <ele>49</ele>
        <time>2026-08-23T15:03:45.000Z</time>
      </trkpt>
      <trkpt lat="43.34568" lon="-1.52618">
        <ele>48</ele>
        <time>2026-08-23T15:03:46.000Z</time>
      </trkpt>
      <trkpt lat="43.34561" lon="-1.52627">
        <ele>48</ele>
        <time>2026-08-23T15:03:48.000Z</time>
      </trkpt>
      <trkpt lat="43.34535" lon="-1.52675">
        <ele>45</ele>
        <time>2026-08-23T15:03:56.000Z</time>
      </trkpt>
      <trkpt lat="43.3451" lon="-1.52744">
        <ele>44</ele>
        <time>2026-08-23T15:04:06.000Z</time>
      </trkpt>
      <trkpt lat="43.34456" lon="-1.52784">
        <ele>39</ele>
        <time>2026-08-23T15:04:17.000Z</time>
      </trkpt>
      <trkpt lat="43.34438" lon="-1.52827">
        <ele>38</ele>
        <time>2026-08-23T15:04:23.000Z</time>
      </trkpt>
      <trkpt lat="43.34426" lon="-1.52856">
        <ele>36</ele>
        <time>2026-08-23T15:04:27.000Z</time>
      </trkpt>
      <trkpt lat="43.34412" lon="-1.52904">
        <ele>35</ele>
        <time>2026-08-23T15:04:34.000Z</time>
      </trkpt>
      <trkpt lat="43.34431" lon="-1.52938">
        <ele>36</ele>
        <time>2026-08-23T15:04:40.000Z</time>
      </trkpt>
      <trkpt lat="43.34439" lon="-1.5296">
        <ele>36</ele>
        <time>2026-08-23T15:04:43.000Z</time>
      </trkpt>
      <trkpt lat="43.34451" lon="-1.53016">
        <ele>38</ele>
        <time>2026-08-23T15:04:50.000Z</time>
      </trkpt>
      <trkpt lat="43.34461" lon="-1.53096">
        <ele>41</ele>
        <time>2026-08-23T15:05:01.000Z</time>
      </trkpt>
      <trkpt lat="43.34488" lon="-1.53413">
        <ele>43</ele>
        <time>2026-08-23T15:05:42.000Z</time>
      </trkpt>
      <trkpt lat="43.34523" lon="-1.53674">
        <ele>39</ele>
        <time>2026-08-23T15:06:17.000Z</time>
      </trkpt>
      <trkpt lat="43.34531" lon="-1.53721">
        <ele>38</ele>
        <time>2026-08-23T15:06:23.000Z</time>
      </trkpt>
      <trkpt lat="43.34557" lon="-1.53827">
        <ele>38</ele>
        <time>2026-08-23T15:06:37.000Z</time>
      </trkpt>
      <trkpt lat="43.34564" lon="-1.53862">
        <ele>37</ele>
        <time>2026-08-23T15:06:42.000Z</time>
      </trkpt>
      <trkpt lat="43.34567" lon="-1.53905">
        <ele>35</ele>
        <time>2026-08-23T15:06:48.000Z</time>
      </trkpt>
      <trkpt lat="43.34568" lon="-1.53959">
        <ele>34</ele>
        <time>2026-08-23T15:06:55.000Z</time>
      </trkpt>
      <trkpt lat="43.34572" lon="-1.53997">
        <ele>34</ele>
        <time>2026-08-23T15:07:00.000Z</time>
      </trkpt>
      <trkpt lat="43.34579" lon="-1.54025">
        <ele>34</ele>
        <time>2026-08-23T15:07:03.000Z</time>
      </trkpt>
      <trkpt lat="43.3459" lon="-1.54058">
        <ele>34</ele>
        <time>2026-08-23T15:07:08.000Z</time>
      </trkpt>
      <trkpt lat="43.34639" lon="-1.54155">
        <ele>37</ele>
        <time>2026-08-23T15:07:23.000Z</time>
      </trkpt>
      <trkpt lat="43.3465" lon="-1.54178">
        <ele>38</ele>
        <time>2026-08-23T15:07:27.000Z</time>
      </trkpt>
      <trkpt lat="43.34661" lon="-1.5421">
        <ele>37</ele>
        <time>2026-08-23T15:07:31.000Z</time>
      </trkpt>
      <trkpt lat="43.34667" lon="-1.54235">
        <ele>36</ele>
        <time>2026-08-23T15:07:35.000Z</time>
      </trkpt>
      <trkpt lat="43.34673" lon="-1.54279">
        <ele>35</ele>
        <time>2026-08-23T15:07:41.000Z</time>
      </trkpt>
      <trkpt lat="43.34674" lon="-1.54364">
        <ele>32</ele>
        <time>2026-08-23T15:07:52.000Z</time>
      </trkpt>
      <trkpt lat="43.34678" lon="-1.54431">
        <ele>30</ele>
        <time>2026-08-23T15:08:00.000Z</time>
      </trkpt>
      <trkpt lat="43.3468" lon="-1.5445">
        <ele>29</ele>
        <time>2026-08-23T15:08:03.000Z</time>
      </trkpt>
      <trkpt lat="43.34688" lon="-1.54483">
        <ele>28</ele>
        <time>2026-08-23T15:08:07.000Z</time>
      </trkpt>
      <trkpt lat="43.347" lon="-1.54509">
        <ele>28</ele>
        <time>2026-08-23T15:08:11.000Z</time>
      </trkpt>
      <trkpt lat="43.34869" lon="-1.54775">
        <ele>25</ele>
        <time>2026-08-23T15:08:57.000Z</time>
      </trkpt>
      <trkpt lat="43.34888" lon="-1.548">
        <ele>25</ele>
        <time>2026-08-23T15:09:02.000Z</time>
      </trkpt>
      <trkpt lat="43.34909" lon="-1.54821">
        <ele>24</ele>
        <time>2026-08-23T15:09:06.000Z</time>
      </trkpt>
      <trkpt lat="43.34941" lon="-1.54841">
        <ele>23</ele>
        <time>2026-08-23T15:09:13.000Z</time>
      </trkpt>
      <trkpt lat="43.35076" lon="-1.54912">
        <ele>20</ele>
        <time>2026-08-23T15:09:38.000Z</time>
      </trkpt>
      <trkpt lat="43.35106" lon="-1.54935">
        <ele>19</ele>
        <time>2026-08-23T15:09:44.000Z</time>
      </trkpt>
      <trkpt lat="43.35113" lon="-1.54934">
        <ele>19</ele>
        <time>2026-08-23T15:09:46.000Z</time>
      </trkpt>
      <trkpt lat="43.3512" lon="-1.54937">
        <ele>19</ele>
        <time>2026-08-23T15:09:47.000Z</time>
      </trkpt>
      <trkpt lat="43.35125" lon="-1.54942">
        <ele>19</ele>
        <time>2026-08-23T15:09:48.000Z</time>
      </trkpt>
      <trkpt lat="43.35132" lon="-1.54956">
        <ele>18</ele>
        <time>2026-08-23T15:09:50.000Z</time>
      </trkpt>
      <trkpt lat="43.35133" lon="-1.54964">
        <ele>18</ele>
        <time>2026-08-23T15:09:51.000Z</time>
      </trkpt>
      <trkpt lat="43.35132" lon="-1.54974">
        <ele>18</ele>
        <time>2026-08-23T15:09:53.000Z</time>
      </trkpt>
      <trkpt lat="43.35128" lon="-1.54983">
        <ele>18</ele>
        <time>2026-08-23T15:09:54.000Z</time>
      </trkpt>
      <trkpt lat="43.35123" lon="-1.5499">
        <ele>18</ele>
        <time>2026-08-23T15:09:55.000Z</time>
      </trkpt>
      <trkpt lat="43.35211" lon="-1.55188">
        <ele>16</ele>
        <time>2026-08-23T15:10:25.000Z</time>
      </trkpt>
      <trkpt lat="43.35241" lon="-1.55255">
        <ele>17</ele>
        <time>2026-08-23T15:10:35.000Z</time>
      </trkpt>
      <trkpt lat="43.35261" lon="-1.55301">
        <ele>17</ele>
        <time>2026-08-23T15:10:42.000Z</time>
      </trkpt>
      <trkpt lat="43.35274" lon="-1.55324">
        <ele>18</ele>
        <time>2026-08-23T15:10:46.000Z</time>
      </trkpt>
      <trkpt lat="43.35293" lon="-1.55347">
        <ele>17</ele>
        <time>2026-08-23T15:10:51.000Z</time>
      </trkpt>
      <trkpt lat="43.35313" lon="-1.55363">
        <ele>17</ele>
        <time>2026-08-23T15:10:55.000Z</time>
      </trkpt>
      <trkpt lat="43.35338" lon="-1.55377">
        <ele>16</ele>
        <time>2026-08-23T15:11:00.000Z</time>
      </trkpt>
      <trkpt lat="43.35369" lon="-1.55382">
        <ele>16</ele>
        <time>2026-08-23T15:11:05.000Z</time>
      </trkpt>
      <trkpt lat="43.35398" lon="-1.5538">
        <ele>16</ele>
        <time>2026-08-23T15:11:10.000Z</time>
      </trkpt>
      <trkpt lat="43.35456" lon="-1.55371">
        <ele>16</ele>
        <time>2026-08-23T15:11:21.000Z</time>
      </trkpt>
      <trkpt lat="43.35483" lon="-1.5537">
        <ele>16</ele>
        <time>2026-08-23T15:11:26.000Z</time>
      </trkpt>
      <trkpt lat="43.35496" lon="-1.55373">
        <ele>16</ele>
        <time>2026-08-23T15:11:28.000Z</time>
      </trkpt>
      <trkpt lat="43.35509" lon="-1.55378">
        <ele>16</ele>
        <time>2026-08-23T15:11:30.000Z</time>
      </trkpt>
      <trkpt lat="43.35523" lon="-1.55388">
        <ele>16</ele>
        <time>2026-08-23T15:11:33.000Z</time>
      </trkpt>
      <trkpt lat="43.35548" lon="-1.55396">
        <ele>16</ele>
        <time>2026-08-23T15:11:38.000Z</time>
      </trkpt>
      <trkpt lat="43.35554" lon="-1.55395">
        <ele>16</ele>
        <time>2026-08-23T15:11:39.000Z</time>
      </trkpt>
      <trkpt lat="43.35561" lon="-1.554">
        <ele>16</ele>
        <time>2026-08-23T15:11:40.000Z</time>
      </trkpt>
      <trkpt lat="43.35565" lon="-1.55409">
        <ele>16</ele>
        <time>2026-08-23T15:11:41.000Z</time>
      </trkpt>
      <trkpt lat="43.35564" lon="-1.55422">
        <ele>16</ele>
        <time>2026-08-23T15:11:43.000Z</time>
      </trkpt>
      <trkpt lat="43.35574" lon="-1.55455">
        <ele>15</ele>
        <time>2026-08-23T15:11:48.000Z</time>
      </trkpt>
      <trkpt lat="43.35574" lon="-1.55465">
        <ele>14</ele>
        <time>2026-08-23T15:11:49.000Z</time>
      </trkpt>
      <trkpt lat="43.35579" lon="-1.55487">
        <ele>14</ele>
        <time>2026-08-23T15:11:52.000Z</time>
      </trkpt>
      <trkpt lat="43.35581" lon="-1.55514">
        <ele>13</ele>
        <time>2026-08-23T15:11:56.000Z</time>
      </trkpt>
      <trkpt lat="43.35585" lon="-1.55731">
        <ele>16</ele>
        <time>2026-08-23T15:12:24.000Z</time>
      </trkpt>
      <trkpt lat="43.35588" lon="-1.55791">
        <ele>16</ele>
        <time>2026-08-23T15:12:31.000Z</time>
      </trkpt>
      <trkpt lat="43.35592" lon="-1.55814">
        <ele>15</ele>
        <time>2026-08-23T15:12:35.000Z</time>
      </trkpt>
      <trkpt lat="43.35606" lon="-1.55857">
        <ele>15</ele>
        <time>2026-08-23T15:12:41.000Z</time>
      </trkpt>
      <trkpt lat="43.35632" lon="-1.55899">
        <ele>15</ele>
        <time>2026-08-23T15:12:48.000Z</time>
      </trkpt>
      <trkpt lat="43.35646" lon="-1.55913">
        <ele>16</ele>
        <time>2026-08-23T15:12:51.000Z</time>
      </trkpt>
      <trkpt lat="43.35682" lon="-1.55941">
        <ele>16</ele>
        <time>2026-08-23T15:12:58.000Z</time>
      </trkpt>
      <trkpt lat="43.35718" lon="-1.5597">
        <ele>16</ele>
        <time>2026-08-23T15:13:06.000Z</time>
      </trkpt>
      <trkpt lat="43.35741" lon="-1.55983">
        <ele>17</ele>
        <time>2026-08-23T15:13:10.000Z</time>
      </trkpt>
      <trkpt lat="43.35745" lon="-1.55978">
        <ele>17</ele>
        <time>2026-08-23T15:13:11.000Z</time>
      </trkpt>
      <trkpt lat="43.35751" lon="-1.55976">
        <ele>17</ele>
        <time>2026-08-23T15:13:12.000Z</time>
      </trkpt>
      <trkpt lat="43.35756" lon="-1.55977">
        <ele>17</ele>
        <time>2026-08-23T15:13:13.000Z</time>
      </trkpt>
      <trkpt lat="43.35762" lon="-1.55982">
        <ele>18</ele>
        <time>2026-08-23T15:13:14.000Z</time>
      </trkpt>
      <trkpt lat="43.35766" lon="-1.55989">
        <ele>18</ele>
        <time>2026-08-23T15:13:15.000Z</time>
      </trkpt>
      <trkpt lat="43.35767" lon="-1.55997">
        <ele>18</ele>
        <time>2026-08-23T15:13:16.000Z</time>
      </trkpt>
      <trkpt lat="43.35764" lon="-1.56008">
        <ele>19</ele>
        <time>2026-08-23T15:13:18.000Z</time>
      </trkpt>
      <trkpt lat="43.3576" lon="-1.56015">
        <ele>19</ele>
        <time>2026-08-23T15:13:19.000Z</time>
      </trkpt>
      <trkpt lat="43.35753" lon="-1.56017">
        <ele>19</ele>
        <time>2026-08-23T15:13:20.000Z</time>
      </trkpt>
      <trkpt lat="43.35747" lon="-1.56016">
        <ele>19</ele>
        <time>2026-08-23T15:13:21.000Z</time>
      </trkpt>
      <trkpt lat="43.3573" lon="-1.56032">
        <ele>19</ele>
        <time>2026-08-23T15:13:25.000Z</time>
      </trkpt>
      <trkpt lat="43.35721" lon="-1.56041">
        <ele>19</ele>
        <time>2026-08-23T15:13:27.000Z</time>
      </trkpt>
      <trkpt lat="43.35652" lon="-1.56086">
        <ele>18</ele>
        <time>2026-08-23T15:13:41.000Z</time>
      </trkpt>
      <trkpt lat="43.35635" lon="-1.56106">
        <ele>18</ele>
        <time>2026-08-23T15:13:45.000Z</time>
      </trkpt>
      <trkpt lat="43.35625" lon="-1.56126">
        <ele>18</ele>
        <time>2026-08-23T15:13:48.000Z</time>
      </trkpt>
      <trkpt lat="43.35623" lon="-1.56133">
        <ele>18</ele>
        <time>2026-08-23T15:13:49.000Z</time>
      </trkpt>
      <trkpt lat="43.35617" lon="-1.5617">
        <ele>19</ele>
        <time>2026-08-23T15:13:54.000Z</time>
      </trkpt>
      <trkpt lat="43.35615" lon="-1.56214">
        <ele>19</ele>
        <time>2026-08-23T15:13:59.000Z</time>
      </trkpt>
      <trkpt lat="43.35616" lon="-1.56255">
        <ele>18</ele>
        <time>2026-08-23T15:14:05.000Z</time>
      </trkpt>
      <trkpt lat="43.35609" lon="-1.56265">
        <ele>18</ele>
        <time>2026-08-23T15:14:06.000Z</time>
      </trkpt>
      <trkpt lat="43.35616" lon="-1.56255">
        <ele>18</ele>
        <time>2026-08-23T15:14:08.000Z</time>
      </trkpt>
      <trkpt lat="43.35622" lon="-1.56509">
        <ele>19</ele>
        <time>2026-08-23T15:14:41.000Z</time>
      </trkpt>
      <trkpt lat="43.35622" lon="-1.56558">
        <ele>19</ele>
        <time>2026-08-23T15:14:48.000Z</time>
      </trkpt>
      <trkpt lat="43.35624" lon="-1.56587">
        <ele>19</ele>
        <time>2026-08-23T15:14:51.000Z</time>
      </trkpt>
      <trkpt lat="43.35627" lon="-1.56588">
        <ele>19</ele>
        <time>2026-08-23T15:14:52.000Z</time>
      </trkpt>
      <trkpt lat="43.35633" lon="-1.56592">
        <ele>19</ele>
        <time>2026-08-23T15:14:53.000Z</time>
      </trkpt>
      <trkpt lat="43.35635" lon="-1.56599">
        <ele>19</ele>
        <time>2026-08-23T15:14:54.000Z</time>
      </trkpt>
      <trkpt lat="43.35632" lon="-1.56611">
        <ele>19</ele>
        <time>2026-08-23T15:14:56.000Z</time>
      </trkpt>
      <trkpt lat="43.35624" lon="-1.56615">
        <ele>19</ele>
        <time>2026-08-23T15:14:57.000Z</time>
      </trkpt>
      <trkpt lat="43.35625" lon="-1.56642">
        <ele>19</ele>
        <time>2026-08-23T15:15:01.000Z</time>
      </trkpt>
      <trkpt lat="43.35617" lon="-1.56692">
        <ele>19</ele>
        <time>2026-08-23T15:15:07.000Z</time>
      </trkpt>
      <trkpt lat="43.35608" lon="-1.56729">
        <ele>18</ele>
        <time>2026-08-23T15:15:12.000Z</time>
      </trkpt>
      <trkpt lat="43.35589" lon="-1.56787">
        <ele>17</ele>
        <time>2026-08-23T15:15:21.000Z</time>
      </trkpt>
      <trkpt lat="43.35585" lon="-1.56813">
        <ele>17</ele>
        <time>2026-08-23T15:15:24.000Z</time>
      </trkpt>
      <trkpt lat="43.35586" lon="-1.56839">
        <ele>17</ele>
        <time>2026-08-23T15:15:27.000Z</time>
      </trkpt>
      <trkpt lat="43.35588" lon="-1.56851">
        <ele>17</ele>
        <time>2026-08-23T15:15:29.000Z</time>
      </trkpt>
      <trkpt lat="43.35597" lon="-1.56872">
        <ele>17</ele>
        <time>2026-08-23T15:15:32.000Z</time>
      </trkpt>
      <trkpt lat="43.35625" lon="-1.56922">
        <ele>17</ele>
        <time>2026-08-23T15:15:40.000Z</time>
      </trkpt>
      <trkpt lat="43.35723" lon="-1.57132">
        <ele>15</ele>
        <time>2026-08-23T15:16:13.000Z</time>
      </trkpt>
      <trkpt lat="43.35733" lon="-1.5716">
        <ele>15</ele>
        <time>2026-08-23T15:16:17.000Z</time>
      </trkpt>
      <trkpt lat="43.3574" lon="-1.57189">
        <ele>15</ele>
        <time>2026-08-23T15:16:21.000Z</time>
      </trkpt>
      <trkpt lat="43.35745" lon="-1.57225">
        <ele>14</ele>
        <time>2026-08-23T15:16:25.000Z</time>
      </trkpt>
      <trkpt lat="43.35763" lon="-1.57418">
        <ele>13</ele>
        <time>2026-08-23T15:16:50.000Z</time>
      </trkpt>
      <trkpt lat="43.35767" lon="-1.57433">
        <ele>13</ele>
        <time>2026-08-23T15:16:53.000Z</time>
      </trkpt>
      <trkpt lat="43.35781" lon="-1.57455">
        <ele>13</ele>
        <time>2026-08-23T15:16:56.000Z</time>
      </trkpt>
      <trkpt lat="43.35786" lon="-1.57459">
        <ele>13</ele>
        <time>2026-08-23T15:16:57.000Z</time>
      </trkpt>
      <trkpt lat="43.35788" lon="-1.57464">
        <ele>13</ele>
        <time>2026-08-23T15:16:58.000Z</time>
      </trkpt>
      <trkpt lat="43.35789" lon="-1.5747">
        <ele>13</ele>
        <time>2026-08-23T15:16:59.000Z</time>
      </trkpt>
      <trkpt lat="43.35784" lon="-1.57479">
        <ele>13</ele>
        <time>2026-08-23T15:17:00.000Z</time>
      </trkpt>
      <trkpt lat="43.35781" lon="-1.57496">
        <ele>13</ele>
        <time>2026-08-23T15:17:03.000Z</time>
      </trkpt>
      <trkpt lat="43.35779" lon="-1.57526">
        <ele>13</ele>
        <time>2026-08-23T15:17:06.000Z</time>
      </trkpt>
      <trkpt lat="43.35779" lon="-1.57552">
        <ele>13</ele>
        <time>2026-08-23T15:17:10.000Z</time>
      </trkpt>
      <trkpt lat="43.35782" lon="-1.57586">
        <ele>13</ele>
        <time>2026-08-23T15:17:14.000Z</time>
      </trkpt>
      <trkpt lat="43.35807" lon="-1.5772">
        <ele>12</ele>
        <time>2026-08-23T15:17:32.000Z</time>
      </trkpt>
      <trkpt lat="43.35838" lon="-1.57869">
        <ele>11</ele>
        <time>2026-08-23T15:17:52.000Z</time>
      </trkpt>
      <trkpt lat="43.35852" lon="-1.57913">
        <ele>12</ele>
        <time>2026-08-23T15:17:58.000Z</time>
      </trkpt>
      <trkpt lat="43.35882" lon="-1.57972">
        <ele>11</ele>
        <time>2026-08-23T15:18:08.000Z</time>
      </trkpt>
      <trkpt lat="43.35894" lon="-1.57993">
        <ele>11</ele>
        <time>2026-08-23T15:18:11.000Z</time>
      </trkpt>
      <trkpt lat="43.36003" lon="-1.58148">
        <ele>11</ele>
        <time>2026-08-23T15:18:39.000Z</time>
      </trkpt>
      <trkpt lat="43.36109" lon="-1.58303">
        <ele>12</ele>
        <time>2026-08-23T15:19:07.000Z</time>
      </trkpt>
      <trkpt lat="43.36129" lon="-1.58341">
        <ele>12</ele>
        <time>2026-08-23T15:19:13.000Z</time>
      </trkpt>
      <trkpt lat="43.36139" lon="-1.58363">
        <ele>12</ele>
        <time>2026-08-23T15:19:16.000Z</time>
      </trkpt>
      <trkpt lat="43.36164" lon="-1.58429">
        <ele>12</ele>
        <time>2026-08-23T15:19:26.000Z</time>
      </trkpt>
      <trkpt lat="43.36238" lon="-1.58664">
        <ele>11</ele>
        <time>2026-08-23T15:19:59.000Z</time>
      </trkpt>
      <trkpt lat="43.36257" lon="-1.58723">
        <ele>14</ele>
        <time>2026-08-23T15:20:07.000Z</time>
      </trkpt>
      <trkpt lat="43.3628" lon="-1.58766">
        <ele>18</ele>
        <time>2026-08-23T15:20:14.000Z</time>
      </trkpt>
      <trkpt lat="43.36308" lon="-1.58801">
        <ele>19</ele>
        <time>2026-08-23T15:20:21.000Z</time>
      </trkpt>
      <trkpt lat="43.36402" lon="-1.58885">
        <ele>17</ele>
        <time>2026-08-23T15:20:41.000Z</time>
      </trkpt>
      <trkpt lat="43.36427" lon="-1.58913">
        <ele>13</ele>
        <time>2026-08-23T15:20:46.000Z</time>
      </trkpt>
      <trkpt lat="43.36444" lon="-1.58941">
        <ele>12</ele>
        <time>2026-08-23T15:20:51.000Z</time>
      </trkpt>
      <trkpt lat="43.3646" lon="-1.58976">
        <ele>11</ele>
        <time>2026-08-23T15:20:57.000Z</time>
      </trkpt>
      <trkpt lat="43.36482" lon="-1.59044">
        <ele>9</ele>
        <time>2026-08-23T15:21:06.000Z</time>
      </trkpt>
      <trkpt lat="43.36581" lon="-1.59376">
        <ele>9</ele>
        <time>2026-08-23T15:21:53.000Z</time>
      </trkpt>
      <trkpt lat="43.36589" lon="-1.5943">
        <ele>9</ele>
        <time>2026-08-23T15:22:00.000Z</time>
      </trkpt>
      <trkpt lat="43.36592" lon="-1.59482">
        <ele>9</ele>
        <time>2026-08-23T15:22:06.000Z</time>
      </trkpt>
      <trkpt lat="43.36588" lon="-1.59546">
        <ele>11</ele>
        <time>2026-08-23T15:22:15.000Z</time>
      </trkpt>
      <trkpt lat="43.36567" lon="-1.59809">
        <ele>18</ele>
        <time>2026-08-23T15:22:49.000Z</time>
      </trkpt>
      <trkpt lat="43.36562" lon="-1.59843">
        <ele>18</ele>
        <time>2026-08-23T15:22:53.000Z</time>
      </trkpt>
      <trkpt lat="43.36549" lon="-1.59873">
        <ele>17</ele>
        <time>2026-08-23T15:22:58.000Z</time>
      </trkpt>
      <trkpt lat="43.36533" lon="-1.59897">
        <ele>16</ele>
        <time>2026-08-23T15:23:02.000Z</time>
      </trkpt>
      <trkpt lat="43.36476" lon="-1.5994">
        <ele>14</ele>
        <time>2026-08-23T15:23:14.000Z</time>
      </trkpt>
      <trkpt lat="43.36447" lon="-1.59965">
        <ele>14</ele>
        <time>2026-08-23T15:23:20.000Z</time>
      </trkpt>
      <trkpt lat="43.36418" lon="-1.59996">
        <ele>13</ele>
        <time>2026-08-23T15:23:26.000Z</time>
      </trkpt>
      <trkpt lat="43.36387" lon="-1.60042">
        <ele>15</ele>
        <time>2026-08-23T15:23:35.000Z</time>
      </trkpt>
      <trkpt lat="43.36371" lon="-1.60073">
        <ele>15</ele>
        <time>2026-08-23T15:23:39.000Z</time>
      </trkpt>
      <trkpt lat="43.36336" lon="-1.60166">
        <ele>16</ele>
        <time>2026-08-23T15:23:53.000Z</time>
      </trkpt>
      <trkpt lat="43.36316" lon="-1.60201">
        <ele>20</ele>
        <time>2026-08-23T15:23:59.000Z</time>
      </trkpt>
      <trkpt lat="43.36299" lon="-1.60225">
        <ele>21</ele>
        <time>2026-08-23T15:24:03.000Z</time>
      </trkpt>
      <trkpt lat="43.36264" lon="-1.60257">
        <ele>19</ele>
        <time>2026-08-23T15:24:11.000Z</time>
      </trkpt>
      <trkpt lat="43.36211" lon="-1.60302">
        <ele>16</ele>
        <time>2026-08-23T15:24:22.000Z</time>
      </trkpt>
      <trkpt lat="43.36173" lon="-1.60338">
        <ele>13</ele>
        <time>2026-08-23T15:24:30.000Z</time>
      </trkpt>
      <trkpt lat="43.36153" lon="-1.60362">
        <ele>14</ele>
        <time>2026-08-23T15:24:35.000Z</time>
      </trkpt>
      <trkpt lat="43.36138" lon="-1.60384">
        <ele>15</ele>
        <time>2026-08-23T15:24:38.000Z</time>
      </trkpt>
      <trkpt lat="43.36126" lon="-1.60409">
        <ele>15</ele>
        <time>2026-08-23T15:24:42.000Z</time>
      </trkpt>
      <trkpt lat="43.36116" lon="-1.60439">
        <ele>16</ele>
        <time>2026-08-23T15:24:47.000Z</time>
      </trkpt>
      <trkpt lat="43.36109" lon="-1.60462">
        <ele>16</ele>
        <time>2026-08-23T15:24:50.000Z</time>
      </trkpt>
      <trkpt lat="43.36103" lon="-1.60494">
        <ele>17</ele>
        <time>2026-08-23T15:24:54.000Z</time>
      </trkpt>
      <trkpt lat="43.36102" lon="-1.60518">
        <ele>17</ele>
        <time>2026-08-23T15:24:57.000Z</time>
      </trkpt>
      <trkpt lat="43.36102" lon="-1.60551">
        <ele>17</ele>
        <time>2026-08-23T15:25:01.000Z</time>
      </trkpt>
      <trkpt lat="43.36104" lon="-1.60585">
        <ele>18</ele>
        <time>2026-08-23T15:25:06.000Z</time>
      </trkpt>
      <trkpt lat="43.36118" lon="-1.60724">
        <ele>18</ele>
        <time>2026-08-23T15:25:24.000Z</time>
      </trkpt>
      <trkpt lat="43.36119" lon="-1.6075">
        <ele>18</ele>
        <time>2026-08-23T15:25:27.000Z</time>
      </trkpt>
      <trkpt lat="43.36113" lon="-1.60838">
        <ele>16</ele>
        <time>2026-08-23T15:25:39.000Z</time>
      </trkpt>
      <trkpt lat="43.36105" lon="-1.61018">
        <ele>17</ele>
        <time>2026-08-23T15:26:02.000Z</time>
      </trkpt>
      <trkpt lat="43.36101" lon="-1.61078">
        <ele>15</ele>
        <time>2026-08-23T15:26:10.000Z</time>
      </trkpt>
      <trkpt lat="43.36091" lon="-1.61139">
        <ele>13</ele>
        <time>2026-08-23T15:26:18.000Z</time>
      </trkpt>
      <trkpt lat="43.36075" lon="-1.61188">
        <ele>12</ele>
        <time>2026-08-23T15:26:25.000Z</time>
      </trkpt>
      <trkpt lat="43.36058" lon="-1.61226">
        <ele>11</ele>
        <time>2026-08-23T15:26:31.000Z</time>
      </trkpt>
      <trkpt lat="43.36033" lon="-1.61268">
        <ele>11</ele>
        <time>2026-08-23T15:26:38.000Z</time>
      </trkpt>
      <trkpt lat="43.35934" lon="-1.61396">
        <ele>16</ele>
        <time>2026-08-23T15:27:02.000Z</time>
      </trkpt>
      <trkpt lat="43.35913" lon="-1.61419">
        <ele>16</ele>
        <time>2026-08-23T15:27:07.000Z</time>
      </trkpt>
      <trkpt lat="43.35815" lon="-1.61503">
        <ele>12</ele>
        <time>2026-08-23T15:27:27.000Z</time>
      </trkpt>
      <trkpt lat="43.35787" lon="-1.61535">
        <ele>14</ele>
        <time>2026-08-23T15:27:34.000Z</time>
      </trkpt>
      <trkpt lat="43.35515" lon="-1.61963">
        <ele>18</ele>
        <time>2026-08-23T15:28:47.000Z</time>
      </trkpt>
      <trkpt lat="43.35486" lon="-1.62001">
        <ele>18</ele>
        <time>2026-08-23T15:28:54.000Z</time>
      </trkpt>
      <trkpt lat="43.35432" lon="-1.62045">
        <ele>21</ele>
        <time>2026-08-23T15:29:06.000Z</time>
      </trkpt>
      <trkpt lat="43.35407" lon="-1.6206">
        <ele>21</ele>
        <time>2026-08-23T15:29:10.000Z</time>
      </trkpt>
      <trkpt lat="43.3524" lon="-1.62126">
        <ele>14</ele>
        <time>2026-08-23T15:29:41.000Z</time>
      </trkpt>
      <trkpt lat="43.35214" lon="-1.62143">
        <ele>12</ele>
        <time>2026-08-23T15:29:47.000Z</time>
      </trkpt>
      <trkpt lat="43.35201" lon="-1.62157">
        <ele>12</ele>
        <time>2026-08-23T15:29:49.000Z</time>
      </trkpt>
      <trkpt lat="43.35181" lon="-1.62185">
        <ele>11</ele>
        <time>2026-08-23T15:29:55.000Z</time>
      </trkpt>
      <trkpt lat="43.35127" lon="-1.62289">
        <ele>11</ele>
        <time>2026-08-23T15:30:11.000Z</time>
      </trkpt>
      <trkpt lat="43.35118" lon="-1.62308">
        <ele>11</ele>
        <time>2026-08-23T15:30:14.000Z</time>
      </trkpt>
      <trkpt lat="43.35109" lon="-1.62334">
        <ele>10</ele>
        <time>2026-08-23T15:30:18.000Z</time>
      </trkpt>
      <trkpt lat="43.35103" lon="-1.62402">
        <ele>11</ele>
        <time>2026-08-23T15:30:27.000Z</time>
      </trkpt>
      <trkpt lat="43.35103" lon="-1.62461">
        <ele>10</ele>
        <time>2026-08-23T15:30:34.000Z</time>
      </trkpt>
      <trkpt lat="43.35108" lon="-1.62493">
        <ele>11</ele>
        <time>2026-08-23T15:30:38.000Z</time>
      </trkpt>
      <trkpt lat="43.35118" lon="-1.62528">
        <ele>12</ele>
        <time>2026-08-23T15:30:43.000Z</time>
      </trkpt>
      <trkpt lat="43.35099" lon="-1.6253">
        <ele>8</ele>
        <time>2026-08-23T15:30:47.000Z</time>
      </trkpt>
      <trkpt lat="43.35062" lon="-1.62537">
        <ele>6</ele>
        <time>2026-08-23T15:30:53.000Z</time>
      </trkpt>
      <trkpt lat="43.35033" lon="-1.62537">
        <ele>6</ele>
        <time>2026-08-23T15:30:59.000Z</time>
      </trkpt>
      <trkpt lat="43.35009" lon="-1.62533">
        <ele>6</ele>
        <time>2026-08-23T15:31:03.000Z</time>
      </trkpt>
      <trkpt lat="43.34989" lon="-1.6253">
        <ele>6</ele>
        <time>2026-08-23T15:31:06.000Z</time>
      </trkpt>
      <trkpt lat="43.34949" lon="-1.62522">
        <ele>7</ele>
        <time>2026-08-23T15:31:14.000Z</time>
      </trkpt>
      <trkpt lat="43.34909" lon="-1.62517">
        <ele>7</ele>
        <time>2026-08-23T15:31:21.000Z</time>
      </trkpt>
      <trkpt lat="43.34921" lon="-1.62554">
        <ele>6</ele>
        <time>2026-08-23T15:31:26.000Z</time>
      </trkpt>
      <trkpt lat="43.34928" lon="-1.62581">
        <ele>6</ele>
        <time>2026-08-23T15:31:30.000Z</time>
      </trkpt>
      <trkpt lat="43.34929" lon="-1.62603">
        <ele>5</ele>
        <time>2026-08-23T15:31:33.000Z</time>
      </trkpt>
      <trkpt lat="43.34928" lon="-1.62631">
        <ele>4</ele>
        <time>2026-08-23T15:31:36.000Z</time>
      </trkpt>
      <trkpt lat="43.34922" lon="-1.62669">
        <ele>3</ele>
        <time>2026-08-23T15:31:41.000Z</time>
      </trkpt>
      <trkpt lat="43.34908" lon="-1.62721">
        <ele>4</ele>
        <time>2026-08-23T15:31:48.000Z</time>
      </trkpt>
      <trkpt lat="43.34902" lon="-1.62754">
        <ele>5</ele>
        <time>2026-08-23T15:31:53.000Z</time>
      </trkpt>
      <trkpt lat="43.34899" lon="-1.62812">
        <ele>8</ele>
        <time>2026-08-23T15:32:00.000Z</time>
      </trkpt>
      <trkpt lat="43.349" lon="-1.62831">
        <ele>9</ele>
        <time>2026-08-23T15:32:03.000Z</time>
      </trkpt>
      <trkpt lat="43.34907" lon="-1.62857">
        <ele>9</ele>
        <time>2026-08-23T15:32:06.000Z</time>
      </trkpt>
      <trkpt lat="43.3491" lon="-1.62881">
        <ele>10</ele>
        <time>2026-08-23T15:32:09.000Z</time>
      </trkpt>
      <trkpt lat="43.34911" lon="-1.62931">
        <ele>12</ele>
        <time>2026-08-23T15:32:16.000Z</time>
      </trkpt>
      <trkpt lat="43.34907" lon="-1.62983">
        <ele>15</ele>
        <time>2026-08-23T15:32:23.000Z</time>
      </trkpt>
      <trkpt lat="43.3491" lon="-1.63015">
        <ele>17</ele>
        <time>2026-08-23T15:32:27.000Z</time>
      </trkpt>
      <trkpt lat="43.34913" lon="-1.63035">
        <ele>19</ele>
        <time>2026-08-23T15:32:30.000Z</time>
      </trkpt>
      <trkpt lat="43.34922" lon="-1.63063">
        <ele>20</ele>
        <time>2026-08-23T15:32:34.000Z</time>
      </trkpt>
      <trkpt lat="43.34932" lon="-1.63079">
        <ele>20</ele>
        <time>2026-08-23T15:32:36.000Z</time>
      </trkpt>
      <trkpt lat="43.35001" lon="-1.63132">
        <ele>17</ele>
        <time>2026-08-23T15:32:50.000Z</time>
      </trkpt>
      <trkpt lat="43.35084" lon="-1.63192">
        <ele>17</ele>
        <time>2026-08-23T15:33:07.000Z</time>
      </trkpt>
      <trkpt lat="43.35122" lon="-1.63222">
        <ele>18</ele>
        <time>2026-08-23T15:33:15.000Z</time>
      </trkpt>
      <trkpt lat="43.35224" lon="-1.63308">
        <ele>19</ele>
        <time>2026-08-23T15:33:36.000Z</time>
      </trkpt>
      <trkpt lat="43.35255" lon="-1.63338">
        <ele>19</ele>
        <time>2026-08-23T15:33:43.000Z</time>
      </trkpt>
      <trkpt lat="43.35267" lon="-1.63355">
        <ele>21</ele>
        <time>2026-08-23T15:33:46.000Z</time>
      </trkpt>
      <trkpt lat="43.35279" lon="-1.63369">
        <ele>22</ele>
        <time>2026-08-23T15:33:49.000Z</time>
      </trkpt>
      <trkpt lat="43.35307" lon="-1.63386">
        <ele>21</ele>
        <time>2026-08-23T15:33:54.000Z</time>
      </trkpt>
      <trkpt lat="43.35336" lon="-1.63406">
        <ele>20</ele>
        <time>2026-08-23T15:34:00.000Z</time>
      </trkpt>
      <trkpt lat="43.35371" lon="-1.63452">
        <ele>21</ele>
        <time>2026-08-23T15:34:09.000Z</time>
      </trkpt>
      <trkpt lat="43.35431" lon="-1.63491">
        <ele>15</ele>
        <time>2026-08-23T15:34:20.000Z</time>
      </trkpt>
      <trkpt lat="43.35441" lon="-1.63503">
        <ele>14</ele>
        <time>2026-08-23T15:34:23.000Z</time>
      </trkpt>
      <trkpt lat="43.3545" lon="-1.63522">
        <ele>14</ele>
        <time>2026-08-23T15:34:26.000Z</time>
      </trkpt>
      <trkpt lat="43.35453" lon="-1.63534">
        <ele>14</ele>
        <time>2026-08-23T15:34:27.000Z</time>
      </trkpt>
      <trkpt lat="43.35455" lon="-1.63562">
        <ele>14</ele>
        <time>2026-08-23T15:34:31.000Z</time>
      </trkpt>
      <trkpt lat="43.35453" lon="-1.63594">
        <ele>15</ele>
        <time>2026-08-23T15:34:35.000Z</time>
      </trkpt>
      <trkpt lat="43.35442" lon="-1.63676">
        <ele>13</ele>
        <time>2026-08-23T15:34:46.000Z</time>
      </trkpt>
      <trkpt lat="43.35442" lon="-1.63742">
        <ele>9</ele>
        <time>2026-08-23T15:34:54.000Z</time>
      </trkpt>
      <trkpt lat="43.35444" lon="-1.63795">
        <ele>7</ele>
        <time>2026-08-23T15:35:01.000Z</time>
      </trkpt>
      <trkpt lat="43.35448" lon="-1.6381">
        <ele>6</ele>
        <time>2026-08-23T15:35:03.000Z</time>
      </trkpt>
      <trkpt lat="43.35453" lon="-1.63825">
        <ele>6</ele>
        <time>2026-08-23T15:35:05.000Z</time>
      </trkpt>
      <trkpt lat="43.35458" lon="-1.63833">
        <ele>6</ele>
        <time>2026-08-23T15:35:07.000Z</time>
      </trkpt>
      <trkpt lat="43.35473" lon="-1.63849">
        <ele>6</ele>
        <time>2026-08-23T15:35:10.000Z</time>
      </trkpt>
      <trkpt lat="43.35505" lon="-1.63876">
        <ele>7</ele>
        <time>2026-08-23T15:35:17.000Z</time>
      </trkpt>
      <trkpt lat="43.35525" lon="-1.63888">
        <ele>8</ele>
        <time>2026-08-23T15:35:21.000Z</time>
      </trkpt>
      <trkpt lat="43.35598" lon="-1.63912">
        <ele>10</ele>
        <time>2026-08-23T15:35:34.000Z</time>
      </trkpt>
      <trkpt lat="43.35582" lon="-1.64022">
        <ele>15</ele>
        <time>2026-08-23T15:35:49.000Z</time>
      </trkpt>
      <trkpt lat="43.35573" lon="-1.64045">
        <ele>16</ele>
        <time>2026-08-23T15:35:52.000Z</time>
      </trkpt>
      <trkpt lat="43.35551" lon="-1.6406">
        <ele>16</ele>
        <time>2026-08-23T15:35:56.000Z</time>
      </trkpt>
      <trkpt lat="43.35446" lon="-1.64129">
        <ele>13</ele>
        <time>2026-08-23T15:36:17.000Z</time>
      </trkpt>
      <trkpt lat="43.35418" lon="-1.64167">
        <ele>12</ele>
        <time>2026-08-23T15:36:24.000Z</time>
      </trkpt>
      <trkpt lat="43.35335" lon="-1.64248">
        <ele>15</ele>
        <time>2026-08-23T15:36:42.000Z</time>
      </trkpt>
      <trkpt lat="43.35251" lon="-1.64281">
        <ele>12</ele>
        <time>2026-08-23T15:36:58.000Z</time>
      </trkpt>
      <trkpt lat="43.35126" lon="-1.64319">
        <ele>9</ele>
        <time>2026-08-23T15:37:21.000Z</time>
      </trkpt>
      <trkpt lat="43.35116" lon="-1.64323">
        <ele>8</ele>
        <time>2026-08-23T15:37:22.000Z</time>
      </trkpt>
      <trkpt lat="43.35103" lon="-1.6433">
        <ele>8</ele>
        <time>2026-08-23T15:37:25.000Z</time>
      </trkpt>
      <trkpt lat="43.35076" lon="-1.64352">
        <ele>9</ele>
        <time>2026-08-23T15:37:30.000Z</time>
      </trkpt>
      <trkpt lat="43.35053" lon="-1.64361">
        <ele>10</ele>
        <time>2026-08-23T15:37:35.000Z</time>
      </trkpt>
      <trkpt lat="43.34996" lon="-1.64375">
        <ele>13</ele>
        <time>2026-08-23T15:37:45.000Z</time>
      </trkpt>
      <trkpt lat="43.34985" lon="-1.6438">
        <ele>13</ele>
        <time>2026-08-23T15:37:47.000Z</time>
      </trkpt>
      <trkpt lat="43.34959" lon="-1.64387">
        <ele>13</ele>
        <time>2026-08-23T15:37:52.000Z</time>
      </trkpt>
      <trkpt lat="43.34931" lon="-1.64372">
        <ele>14</ele>
        <time>2026-08-23T15:37:57.000Z</time>
      </trkpt>
      <trkpt lat="43.34879" lon="-1.64316">
        <ele>18</ele>
        <time>2026-08-23T15:38:09.000Z</time>
      </trkpt>
      <trkpt lat="43.34796" lon="-1.64317">
        <ele>18</ele>
        <time>2026-08-23T15:38:24.000Z</time>
      </trkpt>
      <trkpt lat="43.34736" lon="-1.64261">
        <ele>23</ele>
        <time>2026-08-23T15:38:37.000Z</time>
      </trkpt>
      <trkpt lat="43.34691" lon="-1.6423">
        <ele>23</ele>
        <time>2026-08-23T15:38:45.000Z</time>
      </trkpt>
      <trkpt lat="43.34683" lon="-1.64226">
        <ele>23</ele>
        <time>2026-08-23T15:38:47.000Z</time>
      </trkpt>
      <trkpt lat="43.34667" lon="-1.64226">
        <ele>22</ele>
        <time>2026-08-23T15:38:50.000Z</time>
      </trkpt>
      <trkpt lat="43.34651" lon="-1.64236">
        <ele>24</ele>
        <time>2026-08-23T15:38:53.000Z</time>
      </trkpt>
      <trkpt lat="43.3464" lon="-1.64264">
        <ele>24</ele>
        <time>2026-08-23T15:38:57.000Z</time>
      </trkpt>
      <trkpt lat="43.34622" lon="-1.64317">
        <ele>22</ele>
        <time>2026-08-23T15:39:05.000Z</time>
      </trkpt>
      <trkpt lat="43.34553" lon="-1.64347">
        <ele>23</ele>
        <time>2026-08-23T15:39:18.000Z</time>
      </trkpt>
      <trkpt lat="43.34484" lon="-1.64316">
        <ele>25</ele>
        <time>2026-08-23T15:39:30.000Z</time>
      </trkpt>
      <trkpt lat="43.34351" lon="-1.64301">
        <ele>26</ele>
        <time>2026-08-23T15:39:54.000Z</time>
      </trkpt>
      <trkpt lat="43.34024" lon="-1.64261">
        <ele>35</ele>
        <time>2026-08-23T15:40:53.000Z</time>
      </trkpt>
      <trkpt lat="43.34023" lon="-1.64283">
        <ele>35</ele>
        <time>2026-08-23T15:40:55.000Z</time>
      </trkpt>
      <trkpt lat="43.34019" lon="-1.64309">
        <ele>35</ele>
        <time>2026-08-23T15:40:59.000Z</time>
      </trkpt>
      <trkpt lat="43.33986" lon="-1.64473">
        <ele>37</ele>
        <time>2026-08-23T15:41:21.000Z</time>
      </trkpt>
      <trkpt lat="43.33774" lon="-1.65464">
        <ele>65</ele>
        <time>2026-08-23T15:43:35.000Z</time>
      </trkpt>
      <trkpt lat="43.3373" lon="-1.65677">
        <ele>64</ele>
        <time>2026-08-23T15:44:03.000Z</time>
      </trkpt>
      <trkpt lat="43.33716" lon="-1.65754">
        <ele>66</ele>
        <time>2026-08-23T15:44:14.000Z</time>
      </trkpt>
      <trkpt lat="43.33695" lon="-1.6592">
        <ele>68</ele>
        <time>2026-08-23T15:44:35.000Z</time>
      </trkpt>
      <trkpt lat="43.33677" lon="-1.66023">
        <ele>69</ele>
        <time>2026-08-23T15:44:49.000Z</time>
      </trkpt>
      <trkpt lat="43.3365" lon="-1.66164">
        <ele>65</ele>
        <time>2026-08-23T15:45:08.000Z</time>
      </trkpt>
      <trkpt lat="43.33645" lon="-1.66182">
        <ele>65</ele>
        <time>2026-08-23T15:45:10.000Z</time>
      </trkpt>
      <trkpt lat="43.33622" lon="-1.6624">
        <ele>67</ele>
        <time>2026-08-23T15:45:19.000Z</time>
      </trkpt>
      <trkpt lat="43.33615" lon="-1.66263">
        <ele>67</ele>
        <time>2026-08-23T15:45:22.000Z</time>
      </trkpt>
      <trkpt lat="43.33607" lon="-1.66344">
        <ele>65</ele>
        <time>2026-08-23T15:45:33.000Z</time>
      </trkpt>
      <trkpt lat="43.33608" lon="-1.66377">
        <ele>64</ele>
        <time>2026-08-23T15:45:37.000Z</time>
      </trkpt>
      <trkpt lat="43.33615" lon="-1.66412">
        <ele>62</ele>
        <time>2026-08-23T15:45:42.000Z</time>
      </trkpt>
      <trkpt lat="43.33625" lon="-1.66444">
        <ele>59</ele>
        <time>2026-08-23T15:45:46.000Z</time>
      </trkpt>
      <trkpt lat="43.33661" lon="-1.6654">
        <ele>53</ele>
        <time>2026-08-23T15:46:00.000Z</time>
      </trkpt>
      <trkpt lat="43.33666" lon="-1.66563">
        <ele>52</ele>
        <time>2026-08-23T15:46:03.000Z</time>
      </trkpt>
      <trkpt lat="43.33671" lon="-1.66597">
        <ele>50</ele>
        <time>2026-08-23T15:46:08.000Z</time>
      </trkpt>
      <trkpt lat="43.33672" lon="-1.66618">
        <ele>50</ele>
        <time>2026-08-23T15:46:11.000Z</time>
      </trkpt>
      <trkpt lat="43.33666" lon="-1.66662">
        <ele>48</ele>
        <time>2026-08-23T15:46:16.000Z</time>
      </trkpt>
      <trkpt lat="43.33655" lon="-1.66718">
        <ele>47</ele>
        <time>2026-08-23T15:46:24.000Z</time>
      </trkpt>
      <trkpt lat="43.3364" lon="-1.66759">
        <ele>45</ele>
        <time>2026-08-23T15:46:30.000Z</time>
      </trkpt>
      <trkpt lat="43.33633" lon="-1.66772">
        <ele>45</ele>
        <time>2026-08-23T15:46:32.000Z</time>
      </trkpt>
      <trkpt lat="43.33629" lon="-1.66778">
        <ele>45</ele>
        <time>2026-08-23T15:46:33.000Z</time>
      </trkpt>
      <trkpt lat="43.33622" lon="-1.66788">
        <ele>45</ele>
        <time>2026-08-23T15:46:35.000Z</time>
      </trkpt>
      <trkpt lat="43.33613" lon="-1.66794">
        <ele>45</ele>
        <time>2026-08-23T15:46:36.000Z</time>
      </trkpt>
      <trkpt lat="43.3361" lon="-1.66799">
        <ele>45</ele>
        <time>2026-08-23T15:46:37.000Z</time>
      </trkpt>
      <trkpt lat="43.33606" lon="-1.66802">
        <ele>45</ele>
        <time>2026-08-23T15:46:38.000Z</time>
      </trkpt>
      <trkpt lat="43.3361" lon="-1.66812">
        <ele>45</ele>
        <time>2026-08-23T15:46:40.000Z</time>
      </trkpt>
      <trkpt lat="43.3362" lon="-1.66822">
        <ele>44</ele>
        <time>2026-08-23T15:46:42.000Z</time>
      </trkpt>
      <trkpt lat="43.33683" lon="-1.66831">
        <ele>43</ele>
        <time>2026-08-23T15:46:53.000Z</time>
      </trkpt>
      <trkpt lat="43.337" lon="-1.66832">
        <ele>42</ele>
        <time>2026-08-23T15:46:56.000Z</time>
      </trkpt>
      <trkpt lat="43.33747" lon="-1.66824">
        <ele>42</ele>
        <time>2026-08-23T15:47:05.000Z</time>
      </trkpt>
      <trkpt lat="43.33782" lon="-1.66811">
        <ele>41</ele>
        <time>2026-08-23T15:47:11.000Z</time>
      </trkpt>
      <trkpt lat="43.33831" lon="-1.66786">
        <ele>39</ele>
        <time>2026-08-23T15:47:20.000Z</time>
      </trkpt>
      <trkpt lat="43.33878" lon="-1.66755">
        <ele>37</ele>
        <time>2026-08-23T15:47:30.000Z</time>
      </trkpt>
      <trkpt lat="43.3392" lon="-1.66705">
        <ele>37</ele>
        <time>2026-08-23T15:47:39.000Z</time>
      </trkpt>
      <trkpt lat="43.33975" lon="-1.66648">
        <ele>34</ele>
        <time>2026-08-23T15:47:52.000Z</time>
      </trkpt>
      <trkpt lat="43.33996" lon="-1.66637">
        <ele>33</ele>
        <time>2026-08-23T15:47:56.000Z</time>
      </trkpt>
      <trkpt lat="43.34014" lon="-1.66632">
        <ele>33</ele>
        <time>2026-08-23T15:47:59.000Z</time>
      </trkpt>
      <trkpt lat="43.34031" lon="-1.6663">
        <ele>34</ele>
        <time>2026-08-23T15:48:02.000Z</time>
      </trkpt>
      <trkpt lat="43.34045" lon="-1.66632">
        <ele>35</ele>
        <time>2026-08-23T15:48:05.000Z</time>
      </trkpt>
      <trkpt lat="43.34055" lon="-1.66636">
        <ele>35</ele>
        <time>2026-08-23T15:48:06.000Z</time>
      </trkpt>
      <trkpt lat="43.34059" lon="-1.66639">
        <ele>36</ele>
        <time>2026-08-23T15:48:07.000Z</time>
      </trkpt>
      <trkpt lat="43.3409" lon="-1.66655">
        <ele>38</ele>
        <time>2026-08-23T15:48:13.000Z</time>
      </trkpt>
      <trkpt lat="43.34167" lon="-1.66684">
        <ele>44</ele>
        <time>2026-08-23T15:48:27.000Z</time>
      </trkpt>
      <trkpt lat="43.34291" lon="-1.66741">
        <ele>53</ele>
        <time>2026-08-23T15:48:51.000Z</time>
      </trkpt>
      <trkpt lat="43.3432" lon="-1.66746">
        <ele>54</ele>
        <time>2026-08-23T15:48:56.000Z</time>
      </trkpt>
      <trkpt lat="43.34348" lon="-1.66741">
        <ele>57</ele>
        <time>2026-08-23T15:49:01.000Z</time>
      </trkpt>
      <trkpt lat="43.34368" lon="-1.66726">
        <ele>61</ele>
        <time>2026-08-23T15:49:05.000Z</time>
      </trkpt>
      <trkpt lat="43.34419" lon="-1.66665">
        <ele>71</ele>
        <time>2026-08-23T15:49:17.000Z</time>
      </trkpt>
      <trkpt lat="43.34436" lon="-1.66659">
        <ele>72</ele>
        <time>2026-08-23T15:49:20.000Z</time>
      </trkpt>
      <trkpt lat="43.34498" lon="-1.66656">
        <ele>72</ele>
        <time>2026-08-23T15:49:31.000Z</time>
      </trkpt>
      <trkpt lat="43.34535" lon="-1.66657">
        <ele>74</ele>
        <time>2026-08-23T15:49:38.000Z</time>
      </trkpt>
      <trkpt lat="43.34553" lon="-1.66663">
        <ele>75</ele>
        <time>2026-08-23T15:49:41.000Z</time>
      </trkpt>
      <trkpt lat="43.34569" lon="-1.66676">
        <ele>76</ele>
        <time>2026-08-23T15:49:44.000Z</time>
      </trkpt>
      <trkpt lat="43.34661" lon="-1.66775">
        <ele>74</ele>
        <time>2026-08-23T15:50:05.000Z</time>
      </trkpt>
      <trkpt lat="43.34676" lon="-1.66789">
        <ele>73</ele>
        <time>2026-08-23T15:50:08.000Z</time>
      </trkpt>
      <trkpt lat="43.34741" lon="-1.66805">
        <ele>72</ele>
        <time>2026-08-23T15:50:20.000Z</time>
      </trkpt>
      <trkpt lat="43.34795" lon="-1.6681">
        <ele>73</ele>
        <time>2026-08-23T15:50:30.000Z</time>
      </trkpt>
      <trkpt lat="43.3482" lon="-1.66817">
        <ele>74</ele>
        <time>2026-08-23T15:50:34.000Z</time>
      </trkpt>
      <trkpt lat="43.34917" lon="-1.66871">
        <ele>83</ele>
        <time>2026-08-23T15:50:53.000Z</time>
      </trkpt>
      <trkpt lat="43.34942" lon="-1.66882">
        <ele>87</ele>
        <time>2026-08-23T15:50:57.000Z</time>
      </trkpt>
      <trkpt lat="43.34958" lon="-1.6688">
        <ele>89</ele>
        <time>2026-08-23T15:51:00.000Z</time>
      </trkpt>
      <trkpt lat="43.3497" lon="-1.6687">
        <ele>90</ele>
        <time>2026-08-23T15:51:03.000Z</time>
      </trkpt>
      <trkpt lat="43.34977" lon="-1.66826">
        <ele>86</ele>
        <time>2026-08-23T15:51:09.000Z</time>
      </trkpt>
      <trkpt lat="43.34985" lon="-1.66811">
        <ele>85</ele>
        <time>2026-08-23T15:51:11.000Z</time>
      </trkpt>
      <trkpt lat="43.34998" lon="-1.66803">
        <ele>86</ele>
        <time>2026-08-23T15:51:14.000Z</time>
      </trkpt>
      <trkpt lat="43.35013" lon="-1.668">
        <ele>86</ele>
        <time>2026-08-23T15:51:16.000Z</time>
      </trkpt>
      <trkpt lat="43.35023" lon="-1.66806">
        <ele>87</ele>
        <time>2026-08-23T15:51:18.000Z</time>
      </trkpt>
      <trkpt lat="43.35073" lon="-1.66853">
        <ele>92</ele>
        <time>2026-08-23T15:51:29.000Z</time>
      </trkpt>
      <trkpt lat="43.35089" lon="-1.66859">
        <ele>92</ele>
        <time>2026-08-23T15:51:32.000Z</time>
      </trkpt>
      <trkpt lat="43.35108" lon="-1.66858">
        <ele>93</ele>
        <time>2026-08-23T15:51:35.000Z</time>
      </trkpt>
      <trkpt lat="43.35124" lon="-1.66846">
        <ele>93</ele>
        <time>2026-08-23T15:51:39.000Z</time>
      </trkpt>
      <trkpt lat="43.3518" lon="-1.66752">
        <ele>92</ele>
        <time>2026-08-23T15:51:54.000Z</time>
      </trkpt>
      <trkpt lat="43.35199" lon="-1.66734">
        <ele>91</ele>
        <time>2026-08-23T15:51:58.000Z</time>
      </trkpt>
      <trkpt lat="43.35212" lon="-1.66731">
        <ele>91</ele>
        <time>2026-08-23T15:52:01.000Z</time>
      </trkpt>
      <trkpt lat="43.35246" lon="-1.66735">
        <ele>93</ele>
        <time>2026-08-23T15:52:07.000Z</time>
      </trkpt>
      <trkpt lat="43.35265" lon="-1.66731">
        <ele>92</ele>
        <time>2026-08-23T15:52:10.000Z</time>
      </trkpt>
      <trkpt lat="43.35289" lon="-1.66718">
        <ele>91</ele>
        <time>2026-08-23T15:52:15.000Z</time>
      </trkpt>
      <trkpt lat="43.35301" lon="-1.66706">
        <ele>91</ele>
        <time>2026-08-23T15:52:17.000Z</time>
      </trkpt>
      <trkpt lat="43.35386" lon="-1.66666">
        <ele>97</ele>
        <time>2026-08-23T15:52:33.000Z</time>
      </trkpt>
      <trkpt lat="43.35428" lon="-1.6664">
        <ele>96</ele>
        <time>2026-08-23T15:52:42.000Z</time>
      </trkpt>
      <trkpt lat="43.35456" lon="-1.66613">
        <ele>94</ele>
        <time>2026-08-23T15:52:48.000Z</time>
      </trkpt>
      <trkpt lat="43.35478" lon="-1.66603">
        <ele>94</ele>
        <time>2026-08-23T15:52:52.000Z</time>
      </trkpt>
      <trkpt lat="43.3556" lon="-1.66589">
        <ele>90</ele>
        <time>2026-08-23T15:53:07.000Z</time>
      </trkpt>
      <trkpt lat="43.35628" lon="-1.66587">
        <ele>86</ele>
        <time>2026-08-23T15:53:19.000Z</time>
      </trkpt>
      <trkpt lat="43.3565" lon="-1.66574">
        <ele>84</ele>
        <time>2026-08-23T15:53:23.000Z</time>
      </trkpt>
      <trkpt lat="43.35682" lon="-1.66548">
        <ele>80</ele>
        <time>2026-08-23T15:53:29.000Z</time>
      </trkpt>
      <trkpt lat="43.35721" lon="-1.66497">
        <ele>77</ele>
        <time>2026-08-23T15:53:39.000Z</time>
      </trkpt>
      <trkpt lat="43.35739" lon="-1.66481">
        <ele>76</ele>
        <time>2026-08-23T15:53:43.000Z</time>
      </trkpt>
      <trkpt lat="43.35756" lon="-1.66471">
        <ele>76</ele>
        <time>2026-08-23T15:53:46.000Z</time>
      </trkpt>
      <trkpt lat="43.35819" lon="-1.66447">
        <ele>75</ele>
        <time>2026-08-23T15:53:58.000Z</time>
      </trkpt>
      <trkpt lat="43.35843" lon="-1.66442">
        <ele>76</ele>
        <time>2026-08-23T15:54:02.000Z</time>
      </trkpt>
      <trkpt lat="43.35868" lon="-1.66434">
        <ele>77</ele>
        <time>2026-08-23T15:54:07.000Z</time>
      </trkpt>
      <trkpt lat="43.35879" lon="-1.66427">
        <ele>78</ele>
        <time>2026-08-23T15:54:09.000Z</time>
      </trkpt>
      <trkpt lat="43.35887" lon="-1.66408">
        <ele>77</ele>
        <time>2026-08-23T15:54:12.000Z</time>
      </trkpt>
      <trkpt lat="43.35891" lon="-1.6638">
        <ele>76</ele>
        <time>2026-08-23T15:54:15.000Z</time>
      </trkpt>
      <trkpt lat="43.35896" lon="-1.66356">
        <ele>75</ele>
        <time>2026-08-23T15:54:19.000Z</time>
      </trkpt>
      <trkpt lat="43.35904" lon="-1.66343">
        <ele>75</ele>
        <time>2026-08-23T15:54:21.000Z</time>
      </trkpt>
      <trkpt lat="43.35921" lon="-1.66334">
        <ele>76</ele>
        <time>2026-08-23T15:54:24.000Z</time>
      </trkpt>
      <trkpt lat="43.35958" lon="-1.66324">
        <ele>76</ele>
        <time>2026-08-23T15:54:31.000Z</time>
      </trkpt>
      <trkpt lat="43.36052" lon="-1.66192">
        <ele>82</ele>
        <time>2026-08-23T15:54:55.000Z</time>
      </trkpt>
      <trkpt lat="43.36088" lon="-1.66137">
        <ele>83</ele>
        <time>2026-08-23T15:55:04.000Z</time>
      </trkpt>
      <trkpt lat="43.36116" lon="-1.66099">
        <ele>84</ele>
        <time>2026-08-23T15:55:11.000Z</time>
      </trkpt>
      <trkpt lat="43.36176" lon="-1.66069">
        <ele>86</ele>
        <time>2026-08-23T15:55:23.000Z</time>
      </trkpt>
      <trkpt lat="43.36203" lon="-1.66064">
        <ele>84</ele>
        <time>2026-08-23T15:55:27.000Z</time>
      </trkpt>
      <trkpt lat="43.36233" lon="-1.66076">
        <ele>81</ele>
        <time>2026-08-23T15:55:33.000Z</time>
      </trkpt>
      <trkpt lat="43.36256" lon="-1.66092">
        <ele>78</ele>
        <time>2026-08-23T15:55:38.000Z</time>
      </trkpt>
      <trkpt lat="43.3627" lon="-1.66093">
        <ele>77</ele>
        <time>2026-08-23T15:55:40.000Z</time>
      </trkpt>
      <trkpt lat="43.36327" lon="-1.66082">
        <ele>76</ele>
        <time>2026-08-23T15:55:50.000Z</time>
      </trkpt>
      <trkpt lat="43.3637" lon="-1.66054">
        <ele>75</ele>
        <time>2026-08-23T15:55:59.000Z</time>
      </trkpt>
      <trkpt lat="43.36417" lon="-1.65987">
        <ele>74</ele>
        <time>2026-08-23T15:56:11.000Z</time>
      </trkpt>
      <trkpt lat="43.36511" lon="-1.6582">
        <ele>68</ele>
        <time>2026-08-23T15:56:38.000Z</time>
      </trkpt>
      <trkpt lat="43.36524" lon="-1.65795">
        <ele>68</ele>
        <time>2026-08-23T15:56:42.000Z</time>
      </trkpt>
      <trkpt lat="43.36536" lon="-1.65765">
        <ele>68</ele>
        <time>2026-08-23T15:56:47.000Z</time>
      </trkpt>
      <trkpt lat="43.36558" lon="-1.65684">
        <ele>72</ele>
        <time>2026-08-23T15:56:58.000Z</time>
      </trkpt>
      <trkpt lat="43.36565" lon="-1.65674">
        <ele>74</ele>
        <time>2026-08-23T15:57:00.000Z</time>
      </trkpt>
      <trkpt lat="43.36584" lon="-1.65655">
        <ele>75</ele>
        <time>2026-08-23T15:57:04.000Z</time>
      </trkpt>
      <trkpt lat="43.36597" lon="-1.65644">
        <ele>73</ele>
        <time>2026-08-23T15:57:06.000Z</time>
      </trkpt>
      <trkpt lat="43.36614" lon="-1.65635">
        <ele>72</ele>
        <time>2026-08-23T15:57:10.000Z</time>
      </trkpt>
      <trkpt lat="43.36636" lon="-1.65628">
        <ele>71</ele>
        <time>2026-08-23T15:57:14.000Z</time>
      </trkpt>
      <trkpt lat="43.36653" lon="-1.65628">
        <ele>70</ele>
        <time>2026-08-23T15:57:17.000Z</time>
      </trkpt>
      <trkpt lat="43.36676" lon="-1.65632">
        <ele>69</ele>
        <time>2026-08-23T15:57:21.000Z</time>
      </trkpt>
      <trkpt lat="43.36703" lon="-1.65641">
        <ele>67</ele>
        <time>2026-08-23T15:57:26.000Z</time>
      </trkpt>
      <trkpt lat="43.36733" lon="-1.65656">
        <ele>66</ele>
        <time>2026-08-23T15:57:31.000Z</time>
      </trkpt>
      <trkpt lat="43.36766" lon="-1.6568">
        <ele>65</ele>
        <time>2026-08-23T15:57:38.000Z</time>
      </trkpt>
      <trkpt lat="43.36853" lon="-1.65724">
        <ele>63</ele>
        <time>2026-08-23T15:57:55.000Z</time>
      </trkpt>
      <trkpt lat="43.36916" lon="-1.65752">
        <ele>60</ele>
        <time>2026-08-23T15:58:06.000Z</time>
      </trkpt>
      <trkpt lat="43.36982" lon="-1.65775">
        <ele>57</ele>
        <time>2026-08-23T15:58:18.000Z</time>
      </trkpt>
      <trkpt lat="43.37079" lon="-1.6583">
        <ele>60</ele>
        <time>2026-08-23T15:58:37.000Z</time>
      </trkpt>
      <trkpt lat="43.37089" lon="-1.65839">
        <ele>59</ele>
        <time>2026-08-23T15:58:39.000Z</time>
      </trkpt>
      <trkpt lat="43.37097" lon="-1.65849">
        <ele>57</ele>
        <time>2026-08-23T15:58:41.000Z</time>
      </trkpt>
      <trkpt lat="43.37109" lon="-1.65882">
        <ele>52</ele>
        <time>2026-08-23T15:58:46.000Z</time>
      </trkpt>
      <trkpt lat="43.37114" lon="-1.65888">
        <ele>52</ele>
        <time>2026-08-23T15:58:47.000Z</time>
      </trkpt>
      <trkpt lat="43.37122" lon="-1.65894">
        <ele>52</ele>
        <time>2026-08-23T15:58:49.000Z</time>
      </trkpt>
      <trkpt lat="43.37138" lon="-1.65898">
        <ele>52</ele>
        <time>2026-08-23T15:58:52.000Z</time>
      </trkpt>
      <trkpt lat="43.37323" lon="-1.65911">
        <ele>39</ele>
        <time>2026-08-23T15:59:25.000Z</time>
      </trkpt>
      <trkpt lat="43.37333" lon="-1.65911">
        <ele>38</ele>
        <time>2026-08-23T15:59:26.000Z</time>
      </trkpt>
      <trkpt lat="43.37349" lon="-1.65906">
        <ele>38</ele>
        <time>2026-08-23T15:59:29.000Z</time>
      </trkpt>
      <trkpt lat="43.37401" lon="-1.65886">
        <ele>37</ele>
        <time>2026-08-23T15:59:39.000Z</time>
      </trkpt>
      <trkpt lat="43.37425" lon="-1.65876">
        <ele>37</ele>
        <time>2026-08-23T15:59:43.000Z</time>
      </trkpt>
      <trkpt lat="43.37455" lon="-1.65872">
        <ele>39</ele>
        <time>2026-08-23T15:59:49.000Z</time>
      </trkpt>
      <trkpt lat="43.37477" lon="-1.65878">
        <ele>40</ele>
        <time>2026-08-23T15:59:53.000Z</time>
      </trkpt>
      <trkpt lat="43.37497" lon="-1.65893">
        <ele>41</ele>
        <time>2026-08-23T15:59:57.000Z</time>
      </trkpt>
      <trkpt lat="43.37519" lon="-1.65921">
        <ele>41</ele>
        <time>2026-08-23T16:00:02.000Z</time>
      </trkpt>
      <trkpt lat="43.37545" lon="-1.65959">
        <ele>40</ele>
        <time>2026-08-23T16:00:09.000Z</time>
      </trkpt>
      <trkpt lat="43.37555" lon="-1.65981">
        <ele>39</ele>
        <time>2026-08-23T16:00:12.000Z</time>
      </trkpt>
      <trkpt lat="43.37578" lon="-1.66021">
        <ele>35</ele>
        <time>2026-08-23T16:00:19.000Z</time>
      </trkpt>
      <trkpt lat="43.37599" lon="-1.66049">
        <ele>31</ele>
        <time>2026-08-23T16:00:24.000Z</time>
      </trkpt>
      <trkpt lat="43.37613" lon="-1.66066">
        <ele>28</ele>
        <time>2026-08-23T16:00:27.000Z</time>
      </trkpt>
      <trkpt lat="43.37631" lon="-1.66078">
        <ele>26</ele>
        <time>2026-08-23T16:00:31.000Z</time>
      </trkpt>
      <trkpt lat="43.37641" lon="-1.66082">
        <ele>26</ele>
        <time>2026-08-23T16:00:33.000Z</time>
      </trkpt>
      <trkpt lat="43.37654" lon="-1.66081">
        <ele>26</ele>
        <time>2026-08-23T16:00:35.000Z</time>
      </trkpt>
      <trkpt lat="43.37664" lon="-1.66077">
        <ele>26</ele>
        <time>2026-08-23T16:00:37.000Z</time>
      </trkpt>
      <trkpt lat="43.3768" lon="-1.66066">
        <ele>25</ele>
        <time>2026-08-23T16:00:40.000Z</time>
      </trkpt>
      <trkpt lat="43.37696" lon="-1.6605">
        <ele>25</ele>
        <time>2026-08-23T16:00:44.000Z</time>
      </trkpt>
      <trkpt lat="43.37708" lon="-1.66034">
        <ele>24</ele>
        <time>2026-08-23T16:00:47.000Z</time>
      </trkpt>
      <trkpt lat="43.37718" lon="-1.66014">
        <ele>24</ele>
        <time>2026-08-23T16:00:50.000Z</time>
      </trkpt>
      <trkpt lat="43.37732" lon="-1.65959">
        <ele>24</ele>
        <time>2026-08-23T16:00:57.000Z</time>
      </trkpt>
      <trkpt lat="43.37742" lon="-1.6591">
        <ele>24</ele>
        <time>2026-08-23T16:01:04.000Z</time>
      </trkpt>
      <trkpt lat="43.37748" lon="-1.65887">
        <ele>22</ele>
        <time>2026-08-23T16:01:07.000Z</time>
      </trkpt>
      <trkpt lat="43.37752" lon="-1.65881">
        <ele>22</ele>
        <time>2026-08-23T16:01:08.000Z</time>
      </trkpt>
      <trkpt lat="43.37756" lon="-1.65879">
        <ele>22</ele>
        <time>2026-08-23T16:01:09.000Z</time>
      </trkpt>
      <trkpt lat="43.37766" lon="-1.65881">
        <ele>21</ele>
        <time>2026-08-23T16:01:11.000Z</time>
      </trkpt>
      <trkpt lat="43.37817" lon="-1.65922">
        <ele>17</ele>
        <time>2026-08-23T16:01:21.000Z</time>
      </trkpt>
      <trkpt lat="43.37834" lon="-1.65938">
        <ele>15</ele>
        <time>2026-08-23T16:01:25.000Z</time>
      </trkpt>
      <trkpt lat="43.37845" lon="-1.65954">
        <ele>14</ele>
        <time>2026-08-23T16:01:28.000Z</time>
      </trkpt>
      <trkpt lat="43.37862" lon="-1.65988">
        <ele>12</ele>
        <time>2026-08-23T16:01:33.000Z</time>
      </trkpt>
      <trkpt lat="43.37878" lon="-1.66012">
        <ele>10</ele>
        <time>2026-08-23T16:01:37.000Z</time>
      </trkpt>
      <trkpt lat="43.3789" lon="-1.66023">
        <ele>9</ele>
        <time>2026-08-23T16:01:40.000Z</time>
      </trkpt>
      <trkpt lat="43.37923" lon="-1.66042">
        <ele>8</ele>
        <time>2026-08-23T16:01:46.000Z</time>
      </trkpt>
      <trkpt lat="43.37967" lon="-1.66075">
        <ele>6</ele>
        <time>2026-08-23T16:01:55.000Z</time>
      </trkpt>
      <trkpt lat="43.37989" lon="-1.66095">
        <ele>5</ele>
        <time>2026-08-23T16:02:00.000Z</time>
      </trkpt>
      <trkpt lat="43.38005" lon="-1.66115">
        <ele>5</ele>
        <time>2026-08-23T16:02:04.000Z</time>
      </trkpt>
      <trkpt lat="43.38033" lon="-1.6614">
        <ele>6</ele>
        <time>2026-08-23T16:02:10.000Z</time>
      </trkpt>
      <trkpt lat="43.38015" lon="-1.6616">
        <ele>5</ele>
        <time>2026-08-23T16:02:14.000Z</time>
      </trkpt>
      <trkpt lat="43.38001" lon="-1.66189">
        <ele>5</ele>
        <time>2026-08-23T16:02:18.000Z</time>
      </trkpt>
      <trkpt lat="43.38012" lon="-1.66221">
        <ele>5</ele>
        <time>2026-08-23T16:02:23.000Z</time>
      </trkpt>
      <trkpt lat="43.38026" lon="-1.66242">
        <ele>4</ele>
        <time>2026-08-23T16:02:26.000Z</time>
      </trkpt>
      <trkpt lat="43.38037" lon="-1.66252">
        <ele>4</ele>
        <time>2026-08-23T16:02:29.000Z</time>
      </trkpt>
      <trkpt lat="43.38072" lon="-1.6627">
        <ele>5</ele>
        <time>2026-08-23T16:02:35.000Z</time>
      </trkpt>
      <trkpt lat="43.38085" lon="-1.66281">
        <ele>5</ele>
        <time>2026-08-23T16:02:38.000Z</time>
      </trkpt>
      <trkpt lat="43.38093" lon="-1.66296">
        <ele>5</ele>
        <time>2026-08-23T16:02:41.000Z</time>
      </trkpt>
      <trkpt lat="43.38108" lon="-1.66404">
        <ele>6</ele>
        <time>2026-08-23T16:02:55.000Z</time>
      </trkpt>
      <trkpt lat="43.38118" lon="-1.66429">
        <ele>5</ele>
        <time>2026-08-23T16:02:58.000Z</time>
      </trkpt>
      <trkpt lat="43.38129" lon="-1.66448">
        <ele>5</ele>
        <time>2026-08-23T16:03:02.000Z</time>
      </trkpt>
      <trkpt lat="43.38141" lon="-1.66462">
        <ele>4</ele>
        <time>2026-08-23T16:03:04.000Z</time>
      </trkpt>
      <trkpt lat="43.38223" lon="-1.66552">
        <ele>3</ele>
        <time>2026-08-23T16:03:23.000Z</time>
      </trkpt>
      <trkpt lat="43.38274" lon="-1.66679">
        <ele>5</ele>
        <time>2026-08-23T16:03:42.000Z</time>
      </trkpt>
      <trkpt lat="43.38286" lon="-1.66703">
        <ele>6</ele>
        <time>2026-08-23T16:03:46.000Z</time>
      </trkpt>
      <trkpt lat="43.38305" lon="-1.66747">
        <ele>7</ele>
        <time>2026-08-23T16:03:52.000Z</time>
      </trkpt>
      <trkpt lat="43.38314" lon="-1.6676">
        <ele>7</ele>
        <time>2026-08-23T16:03:55.000Z</time>
      </trkpt>
      <trkpt lat="43.38344" lon="-1.66759">
        <ele>7</ele>
        <time>2026-08-23T16:04:00.000Z</time>
      </trkpt>
      <trkpt lat="43.38366" lon="-1.66755">
        <ele>6</ele>
        <time>2026-08-23T16:04:04.000Z</time>
      </trkpt>
      <trkpt lat="43.38378" lon="-1.66744">
        <ele>5</ele>
        <time>2026-08-23T16:04:06.000Z</time>
      </trkpt>
      <trkpt lat="43.38449" lon="-1.66646">
        <ele>4</ele>
        <time>2026-08-23T16:04:24.000Z</time>
      </trkpt>
      <trkpt lat="43.38446" lon="-1.66639">
        <ele>4</ele>
        <time>2026-08-23T16:04:25.000Z</time>
      </trkpt>
      <trkpt lat="43.38446" lon="-1.66631">
        <ele>4</ele>
        <time>2026-08-23T16:04:26.000Z</time>
      </trkpt>
      <trkpt lat="43.38411" lon="-1.66589">
        <ele>4</ele>
        <time>2026-08-23T16:04:35.000Z</time>
      </trkpt>
      <trkpt lat="43.38408" lon="-1.66568">
        <ele>4</ele>
        <time>2026-08-23T16:04:37.000Z</time>
      </trkpt>
      <trkpt lat="43.38416" lon="-1.66546">
        <ele>4</ele>
        <time>2026-08-23T16:04:41.000Z</time>
      </trkpt>
      <trkpt lat="43.38482" lon="-1.6642">
        <ele>5</ele>
        <time>2026-08-23T16:05:01.000Z</time>
      </trkpt>
      <trkpt lat="43.38517" lon="-1.66346">
        <ele>2</ele>
        <time>2026-08-23T16:05:12.000Z</time>
      </trkpt>
      <trkpt lat="43.38548" lon="-1.66274">
        <ele>3</ele>
        <time>2026-08-23T16:05:23.000Z</time>
      </trkpt>
      <trkpt lat="43.38558" lon="-1.6625">
        <ele>3</ele>
        <time>2026-08-23T16:05:26.000Z</time>
      </trkpt>
      <trkpt lat="43.38566" lon="-1.66229">
        <ele>3</ele>
        <time>2026-08-23T16:05:30.000Z</time>
      </trkpt>
      <trkpt lat="43.38574" lon="-1.66212">
        <ele>4</ele>
        <time>2026-08-23T16:05:32.000Z</time>
      </trkpt>
      <trkpt lat="43.38589" lon="-1.66194">
        <ele>4</ele>
        <time>2026-08-23T16:05:36.000Z</time>
      </trkpt>
      <trkpt lat="43.3859" lon="-1.66189">
        <ele>4</ele>
        <time>2026-08-23T16:05:36.000Z</time>
      </trkpt>
      <trkpt lat="43.38593" lon="-1.66178">
        <ele>4</ele>
        <time>2026-08-23T16:05:38.000Z</time>
      </trkpt>
      <trkpt lat="43.38598" lon="-1.66173">
        <ele>5</ele>
        <time>2026-08-23T16:05:39.000Z</time>
      </trkpt>
      <trkpt lat="43.38603" lon="-1.6617">
        <ele>5</ele>
        <time>2026-08-23T16:05:40.000Z</time>
      </trkpt>
      <trkpt lat="43.38609" lon="-1.6617">
        <ele>5</ele>
        <time>2026-08-23T16:05:41.000Z</time>
      </trkpt>
      <trkpt lat="43.38615" lon="-1.66172">
        <ele>6</ele>
        <time>2026-08-23T16:05:42.000Z</time>
      </trkpt>
      <trkpt lat="43.38623" lon="-1.66181">
        <ele>6</ele>
        <time>2026-08-23T16:05:44.000Z</time>
      </trkpt>
      <trkpt lat="43.38625" lon="-1.66195">
        <ele>5</ele>
        <time>2026-08-23T16:05:46.000Z</time>
      </trkpt>
      <trkpt lat="43.3863" lon="-1.66198">
        <ele>6</ele>
        <time>2026-08-23T16:05:47.000Z</time>
      </trkpt>
      <trkpt lat="43.38665" lon="-1.66299">
        <ele>2</ele>
        <time>2026-08-23T16:06:01.000Z</time>
      </trkpt>
      <trkpt lat="43.38674" lon="-1.66306">
        <ele>2</ele>
        <time>2026-08-23T16:06:03.000Z</time>
      </trkpt>
      <trkpt lat="43.3868" lon="-1.66306">
        <ele>2</ele>
        <time>2026-08-23T16:06:04.000Z</time>
      </trkpt>
      <trkpt lat="43.38685" lon="-1.66309">
        <ele>2</ele>
        <time>2026-08-23T16:06:05.000Z</time>
      </trkpt>
      <trkpt lat="43.38688" lon="-1.66317">
        <ele>2</ele>
        <time>2026-08-23T16:06:06.000Z</time>
      </trkpt>
      <trkpt lat="43.38687" lon="-1.66329">
        <ele>1</ele>
        <time>2026-08-23T16:06:08.000Z</time>
      </trkpt>
      <trkpt lat="43.38682" lon="-1.66334">
        <ele>1</ele>
        <time>2026-08-23T16:06:09.000Z</time>
      </trkpt>
      <trkpt lat="43.38678" lon="-1.66335">
        <ele>1</ele>
        <time>2026-08-23T16:06:10.000Z</time>
      </trkpt>
      <trkpt lat="43.3867" lon="-1.66331">
        <ele>4</ele>
        <time>2026-08-23T16:06:11.000Z</time>
      </trkpt>
      <trkpt lat="43.38668" lon="-1.66327">
        <ele>4</ele>
        <time>2026-08-23T16:06:12.000Z</time>
      </trkpt>
      <trkpt lat="43.38651" lon="-1.66328">
        <ele>4</ele>
        <time>2026-08-23T16:06:15.000Z</time>
      </trkpt>
      <trkpt lat="43.38636" lon="-1.66325">
        <ele>3.9</ele>
        <time>2026-08-23T16:06:18.000Z</time>
      </trkpt>
      <trkpt lat="43.38617" lon="-1.66317">
        <ele>3.4</ele>
        <time>2026-08-23T16:06:21.000Z</time>
      </trkpt>
      <trkpt lat="43.386" lon="-1.66303">
        <ele>1</ele>
        <time>2026-08-23T16:06:25.000Z</time>
      </trkpt>
      <trkpt lat="43.3857" lon="-1.66267">
        <ele>2</ele>
        <time>2026-08-23T16:06:32.000Z</time>
      </trkpt>
      <trkpt lat="43.38503" lon="-1.66208">
        <ele>4</ele>
        <time>2026-08-23T16:06:46.000Z</time>
      </trkpt>
      <trkpt lat="43.38496" lon="-1.66199">
        <ele>5</ele>
        <time>2026-08-23T16:06:48.000Z</time>
      </trkpt>
      <trkpt lat="43.38487" lon="-1.66173">
        <ele>5</ele>
        <time>2026-08-23T16:06:51.000Z</time>
      </trkpt>
      <trkpt lat="43.38481" lon="-1.66172">
        <ele>5</ele>
        <time>2026-08-23T16:06:52.000Z</time>
      </trkpt>
      <trkpt lat="43.38478" lon="-1.66167">
        <ele>6</ele>
        <time>2026-08-23T16:06:53.000Z</time>
      </trkpt>
      <trkpt lat="43.38477" lon="-1.66161">
        <ele>5</ele>
        <time>2026-08-23T16:06:54.000Z</time>
      </trkpt>
      <trkpt lat="43.38479" lon="-1.66155">
        <ele>5</ele>
        <time>2026-08-23T16:06:55.000Z</time>
      </trkpt>
      <trkpt lat="43.38462" lon="-1.66121">
        <ele>5</ele>
        <time>2026-08-23T16:07:00.000Z</time>
      </trkpt>
      <trkpt lat="43.38445" lon="-1.66095">
        <ele>5</ele>
        <time>2026-08-23T16:07:05.000Z</time>
      </trkpt>
      <trkpt lat="43.38347" lon="-1.65961">
        <ele>6</ele>
        <time>2026-08-23T16:07:29.000Z</time>
      </trkpt>
      <trkpt lat="43.3834" lon="-1.65943">
        <ele>6</ele>
        <time>2026-08-23T16:07:32.000Z</time>
      </trkpt>
      <trkpt lat="43.38336" lon="-1.65944">
        <ele>6</ele>
        <time>2026-08-23T16:07:33.000Z</time>
      </trkpt>
      <trkpt lat="43.3833" lon="-1.65941">
        <ele>6</ele>
        <time>2026-08-23T16:07:34.000Z</time>
      </trkpt>
      <trkpt lat="43.38328" lon="-1.65932">
        <ele>6</ele>
        <time>2026-08-23T16:07:35.000Z</time>
      </trkpt>
      <trkpt lat="43.3833" lon="-1.65928">
        <ele>6</ele>
        <time>2026-08-23T16:07:36.000Z</time>
      </trkpt>
      <trkpt lat="43.38318" lon="-1.65915">
        <ele>5</ele>
        <time>2026-08-23T16:07:38.000Z</time>
      </trkpt>
    </trkseg>
  </trk>
</gpx>